<?xml version="1.0" encoding="UTF-8" standalone="no" ?>
<gpx xmlns="http://www.topografix.com/GPX/1/1" xmlns:xsi="http://www.w3.org/2001/XMLSchema-instance" xsi:schemaLocation="http://www.topografix.com/GPX/1/1 http://www.topografix.com/GPX/1/1/gpx.xsd" version="1.1" creator="VisuGPX - https://www.visugpx.com">
  <metadata>
    <name>Andrésy - Bords de Seine et de l'Oise-Chateau du Fay</name>
  </metadata>
  <trk>
    <name><![CDATA[Andrésy - Bords de Seine et de l'Oise-Chateau du Fay_1]]></name>
    <trkseg>
      <trkpt lat="48.97553" lon="2.05424">
        <ele>25.8</ele>
        <time>2022-04-12T07:45:19Z</time>
      </trkpt>
      <trkpt lat="48.97549" lon="2.0543">
        <ele>9.6</ele>
        <time>2022-04-12T07:46:26Z</time>
      </trkpt>
      <trkpt lat="48.97544" lon="2.05435">
        <ele>8.2</ele>
        <time>2022-04-12T07:46:30Z</time>
      </trkpt>
      <trkpt lat="48.97539" lon="2.05441">
        <ele>3.7</ele>
        <time>2022-04-12T07:46:35Z</time>
      </trkpt>
      <trkpt lat="48.97535" lon="2.05447">
        <ele>3.7</ele>
        <time>2022-04-12T07:46:40Z</time>
      </trkpt>
      <trkpt lat="48.97529" lon="2.05459">
        <ele>2.8</ele>
        <time>2022-04-12T07:46:49Z</time>
      </trkpt>
      <trkpt lat="48.97527" lon="2.05466">
        <ele>3.2</ele>
        <time>2022-04-12T07:46:54Z</time>
      </trkpt>
      <trkpt lat="48.97523" lon="2.05471">
        <ele>3.5</ele>
        <time>2022-04-12T07:47:00Z</time>
      </trkpt>
      <trkpt lat="48.97519" lon="2.05477">
        <ele>7</ele>
        <time>2022-04-12T07:47:05Z</time>
      </trkpt>
      <trkpt lat="48.97516" lon="2.05483">
        <ele>8.6</ele>
        <time>2022-04-12T07:47:12Z</time>
      </trkpt>
      <trkpt lat="48.9752" lon="2.0548">
        <ele>8.5</ele>
        <time>2022-04-12T07:47:39Z</time>
      </trkpt>
      <trkpt lat="48.97524" lon="2.05485">
        <ele>10.2</ele>
        <time>2022-04-12T07:48:20Z</time>
      </trkpt>
      <trkpt lat="48.97528" lon="2.05489">
        <ele>10</ele>
        <time>2022-04-12T07:48:23Z</time>
      </trkpt>
      <trkpt lat="48.97533" lon="2.05496">
        <ele>9.7</ele>
        <time>2022-04-12T07:48:27Z</time>
      </trkpt>
      <trkpt lat="48.97537" lon="2.05501">
        <ele>11</ele>
        <time>2022-04-12T07:48:30Z</time>
      </trkpt>
      <trkpt lat="48.97541" lon="2.05505">
        <ele>11.4</ele>
        <time>2022-04-12T07:48:33Z</time>
      </trkpt>
      <trkpt lat="48.97546" lon="2.05509">
        <ele>12.9</ele>
        <time>2022-04-12T07:48:37Z</time>
      </trkpt>
      <trkpt lat="48.97551" lon="2.05511">
        <ele>13.4</ele>
        <time>2022-04-12T07:48:41Z</time>
      </trkpt>
      <trkpt lat="48.97557" lon="2.05514">
        <ele>13.5</ele>
        <time>2022-04-12T07:48:46Z</time>
      </trkpt>
      <trkpt lat="48.97561" lon="2.05518">
        <ele>13.3</ele>
        <time>2022-04-12T07:48:50Z</time>
      </trkpt>
      <trkpt lat="48.97567" lon="2.05523">
        <ele>17.4</ele>
        <time>2022-04-12T07:48:55Z</time>
      </trkpt>
      <trkpt lat="48.97571" lon="2.05529">
        <ele>18.2</ele>
        <time>2022-04-12T07:48:59Z</time>
      </trkpt>
      <trkpt lat="48.97575" lon="2.05534">
        <ele>19</ele>
        <time>2022-04-12T07:49:03Z</time>
      </trkpt>
      <trkpt lat="48.97579" lon="2.05538">
        <ele>17.7</ele>
        <time>2022-04-12T07:49:06Z</time>
      </trkpt>
      <trkpt lat="48.97583" lon="2.05541">
        <ele>17.8</ele>
        <time>2022-04-12T07:49:09Z</time>
      </trkpt>
      <trkpt lat="48.97588" lon="2.05546">
        <ele>17.2</ele>
        <time>2022-04-12T07:49:14Z</time>
      </trkpt>
      <trkpt lat="48.97592" lon="2.0555">
        <ele>17.2</ele>
        <time>2022-04-12T07:49:18Z</time>
      </trkpt>
      <trkpt lat="48.97597" lon="2.05553">
        <ele>17.3</ele>
        <time>2022-04-12T07:49:23Z</time>
      </trkpt>
      <trkpt lat="48.97601" lon="2.05556">
        <ele>17.8</ele>
        <time>2022-04-12T07:49:26Z</time>
      </trkpt>
      <trkpt lat="48.97605" lon="2.05561">
        <ele>18.1</ele>
        <time>2022-04-12T07:49:29Z</time>
      </trkpt>
      <trkpt lat="48.97609" lon="2.05565">
        <ele>18.8</ele>
        <time>2022-04-12T07:49:33Z</time>
      </trkpt>
      <trkpt lat="48.97613" lon="2.05571">
        <ele>17.7</ele>
        <time>2022-04-12T07:49:37Z</time>
      </trkpt>
      <trkpt lat="48.97616" lon="2.05576">
        <ele>17.8</ele>
        <time>2022-04-12T07:49:42Z</time>
      </trkpt>
      <trkpt lat="48.9762" lon="2.05581">
        <ele>19.1</ele>
        <time>2022-04-12T07:49:48Z</time>
      </trkpt>
      <trkpt lat="48.97624" lon="2.05587">
        <ele>20.6</ele>
        <time>2022-04-12T07:49:54Z</time>
      </trkpt>
      <trkpt lat="48.97628" lon="2.05591">
        <ele>21.3</ele>
        <time>2022-04-12T07:49:58Z</time>
      </trkpt>
      <trkpt lat="48.97632" lon="2.05596">
        <ele>22.6</ele>
        <time>2022-04-12T07:50:02Z</time>
      </trkpt>
      <trkpt lat="48.97636" lon="2.056">
        <ele>21.3</ele>
        <time>2022-04-12T07:50:06Z</time>
      </trkpt>
      <trkpt lat="48.97641" lon="2.05604">
        <ele>19.2</ele>
        <time>2022-04-12T07:50:11Z</time>
      </trkpt>
      <trkpt lat="48.97644" lon="2.05609">
        <ele>19.2</ele>
        <time>2022-04-12T07:50:15Z</time>
      </trkpt>
      <trkpt lat="48.97649" lon="2.05614">
        <ele>18.3</ele>
        <time>2022-04-12T07:50:19Z</time>
      </trkpt>
      <trkpt lat="48.97654" lon="2.05615">
        <ele>19.5</ele>
        <time>2022-04-12T07:50:24Z</time>
      </trkpt>
      <trkpt lat="48.97659" lon="2.05614">
        <ele>19.6</ele>
        <time>2022-04-12T07:50:27Z</time>
      </trkpt>
      <trkpt lat="48.97663" lon="2.0562">
        <ele>19.1</ele>
        <time>2022-04-12T07:50:31Z</time>
      </trkpt>
      <trkpt lat="48.97667" lon="2.05625">
        <ele>18.8</ele>
        <time>2022-04-12T07:50:36Z</time>
      </trkpt>
      <trkpt lat="48.97671" lon="2.05631">
        <ele>17.8</ele>
        <time>2022-04-12T07:50:40Z</time>
      </trkpt>
      <trkpt lat="48.97676" lon="2.05636">
        <ele>17.8</ele>
        <time>2022-04-12T07:50:45Z</time>
      </trkpt>
      <trkpt lat="48.9768" lon="2.05641">
        <ele>16.7</ele>
        <time>2022-04-12T07:50:50Z</time>
      </trkpt>
      <trkpt lat="48.97684" lon="2.05646">
        <ele>15.8</ele>
        <time>2022-04-12T07:50:54Z</time>
      </trkpt>
      <trkpt lat="48.97688" lon="2.0565">
        <ele>13</ele>
        <time>2022-04-12T07:50:58Z</time>
      </trkpt>
      <trkpt lat="48.97692" lon="2.05655">
        <ele>14.7</ele>
        <time>2022-04-12T07:51:02Z</time>
      </trkpt>
      <trkpt lat="48.97696" lon="2.0566">
        <ele>14.1</ele>
        <time>2022-04-12T07:51:07Z</time>
      </trkpt>
      <trkpt lat="48.977" lon="2.05665">
        <ele>14.2</ele>
        <time>2022-04-12T07:51:11Z</time>
      </trkpt>
      <trkpt lat="48.97704" lon="2.0567">
        <ele>14.4</ele>
        <time>2022-04-12T07:51:15Z</time>
      </trkpt>
      <trkpt lat="48.97709" lon="2.05675">
        <ele>15.4</ele>
        <time>2022-04-12T07:51:19Z</time>
      </trkpt>
      <trkpt lat="48.97713" lon="2.05678">
        <ele>16.8</ele>
        <time>2022-04-12T07:51:23Z</time>
      </trkpt>
      <trkpt lat="48.97718" lon="2.05681">
        <ele>17.6</ele>
        <time>2022-04-12T07:51:26Z</time>
      </trkpt>
      <trkpt lat="48.97722" lon="2.05684">
        <ele>19</ele>
        <time>2022-04-12T07:51:29Z</time>
      </trkpt>
      <trkpt lat="48.97726" lon="2.05688">
        <ele>18.7</ele>
        <time>2022-04-12T07:51:32Z</time>
      </trkpt>
      <trkpt lat="48.97729" lon="2.05693">
        <ele>17.6</ele>
        <time>2022-04-12T07:51:37Z</time>
      </trkpt>
      <trkpt lat="48.97734" lon="2.05696">
        <ele>17.5</ele>
        <time>2022-04-12T07:51:42Z</time>
      </trkpt>
      <trkpt lat="48.97737" lon="2.05702">
        <ele>18</ele>
        <time>2022-04-12T07:51:46Z</time>
      </trkpt>
      <trkpt lat="48.9774" lon="2.05709">
        <ele>18.1</ele>
        <time>2022-04-12T07:51:50Z</time>
      </trkpt>
      <trkpt lat="48.97744" lon="2.05714">
        <ele>18.3</ele>
        <time>2022-04-12T07:51:53Z</time>
      </trkpt>
      <trkpt lat="48.97749" lon="2.05717">
        <ele>17.1</ele>
        <time>2022-04-12T07:51:57Z</time>
      </trkpt>
      <trkpt lat="48.97753" lon="2.0572">
        <ele>17.7</ele>
        <time>2022-04-12T07:52:00Z</time>
      </trkpt>
      <trkpt lat="48.97757" lon="2.05723">
        <ele>17.3</ele>
        <time>2022-04-12T07:52:03Z</time>
      </trkpt>
      <trkpt lat="48.97761" lon="2.05727">
        <ele>17.4</ele>
        <time>2022-04-12T07:52:07Z</time>
      </trkpt>
      <trkpt lat="48.97765" lon="2.05733">
        <ele>17.1</ele>
        <time>2022-04-12T07:52:11Z</time>
      </trkpt>
      <trkpt lat="48.9777" lon="2.05738">
        <ele>16.2</ele>
        <time>2022-04-12T07:52:15Z</time>
      </trkpt>
      <trkpt lat="48.97774" lon="2.05739">
        <ele>16.8</ele>
        <time>2022-04-12T07:52:18Z</time>
      </trkpt>
      <trkpt lat="48.97779" lon="2.05742">
        <ele>16.7</ele>
        <time>2022-04-12T07:52:22Z</time>
      </trkpt>
      <trkpt lat="48.97784" lon="2.05746">
        <ele>16.4</ele>
        <time>2022-04-12T07:52:26Z</time>
      </trkpt>
      <trkpt lat="48.97788" lon="2.0575">
        <ele>17.6</ele>
        <time>2022-04-12T07:52:31Z</time>
      </trkpt>
      <trkpt lat="48.97793" lon="2.05754">
        <ele>17.6</ele>
        <time>2022-04-12T07:52:35Z</time>
      </trkpt>
      <trkpt lat="48.97798" lon="2.05757">
        <ele>17.6</ele>
        <time>2022-04-12T07:52:39Z</time>
      </trkpt>
      <trkpt lat="48.97802" lon="2.05761">
        <ele>18.8</ele>
        <time>2022-04-12T07:52:43Z</time>
      </trkpt>
      <trkpt lat="48.97807" lon="2.05765">
        <ele>18.8</ele>
        <time>2022-04-12T07:52:46Z</time>
      </trkpt>
      <trkpt lat="48.97812" lon="2.05766">
        <ele>19.5</ele>
        <time>2022-04-12T07:52:50Z</time>
      </trkpt>
      <trkpt lat="48.97817" lon="2.05768">
        <ele>18.3</ele>
        <time>2022-04-12T07:52:54Z</time>
      </trkpt>
      <trkpt lat="48.9782" lon="2.05774">
        <ele>17.2</ele>
        <time>2022-04-12T07:52:58Z</time>
      </trkpt>
      <trkpt lat="48.97824" lon="2.05779">
        <ele>17</ele>
        <time>2022-04-12T07:53:02Z</time>
      </trkpt>
      <trkpt lat="48.97829" lon="2.05784">
        <ele>16</ele>
        <time>2022-04-12T07:53:05Z</time>
      </trkpt>
      <trkpt lat="48.97834" lon="2.05785">
        <ele>17.7</ele>
        <time>2022-04-12T07:53:09Z</time>
      </trkpt>
      <trkpt lat="48.97839" lon="2.0579">
        <ele>17.7</ele>
        <time>2022-04-12T07:53:14Z</time>
      </trkpt>
      <trkpt lat="48.97844" lon="2.05797">
        <ele>16.2</ele>
        <time>2022-04-12T07:53:19Z</time>
      </trkpt>
      <trkpt lat="48.97847" lon="2.05801">
        <ele>16.1</ele>
        <time>2022-04-12T07:53:23Z</time>
      </trkpt>
      <trkpt lat="48.97852" lon="2.05805">
        <ele>15.8</ele>
        <time>2022-04-12T07:53:26Z</time>
      </trkpt>
      <trkpt lat="48.97856" lon="2.05812">
        <ele>14.8</ele>
        <time>2022-04-12T07:53:30Z</time>
      </trkpt>
      <trkpt lat="48.97859" lon="2.05818">
        <ele>16.5</ele>
        <time>2022-04-12T07:53:34Z</time>
      </trkpt>
      <trkpt lat="48.97863" lon="2.05822">
        <ele>16.9</ele>
        <time>2022-04-12T07:53:37Z</time>
      </trkpt>
      <trkpt lat="48.97867" lon="2.05827">
        <ele>16.9</ele>
        <time>2022-04-12T07:53:41Z</time>
      </trkpt>
      <trkpt lat="48.97871" lon="2.05832">
        <ele>16.3</ele>
        <time>2022-04-12T07:53:44Z</time>
      </trkpt>
      <trkpt lat="48.97875" lon="2.05838">
        <ele>15.6</ele>
        <time>2022-04-12T07:53:48Z</time>
      </trkpt>
      <trkpt lat="48.9788" lon="2.05842">
        <ele>15.4</ele>
        <time>2022-04-12T07:53:53Z</time>
      </trkpt>
      <trkpt lat="48.97884" lon="2.05848">
        <ele>15.1</ele>
        <time>2022-04-12T07:53:57Z</time>
      </trkpt>
      <trkpt lat="48.97887" lon="2.05854">
        <ele>14.7</ele>
        <time>2022-04-12T07:54:01Z</time>
      </trkpt>
      <trkpt lat="48.97891" lon="2.05859">
        <ele>14.9</ele>
        <time>2022-04-12T07:54:04Z</time>
      </trkpt>
      <trkpt lat="48.97896" lon="2.05863">
        <ele>15.2</ele>
        <time>2022-04-12T07:54:08Z</time>
      </trkpt>
      <trkpt lat="48.979" lon="2.05867">
        <ele>15.8</ele>
        <time>2022-04-12T07:54:12Z</time>
      </trkpt>
      <trkpt lat="48.97904" lon="2.0587">
        <ele>16</ele>
        <time>2022-04-12T07:54:15Z</time>
      </trkpt>
      <trkpt lat="48.97909" lon="2.05875">
        <ele>15.9</ele>
        <time>2022-04-12T07:54:19Z</time>
      </trkpt>
      <trkpt lat="48.97914" lon="2.05879">
        <ele>16.1</ele>
        <time>2022-04-12T07:54:22Z</time>
      </trkpt>
      <trkpt lat="48.97918" lon="2.05883">
        <ele>16.5</ele>
        <time>2022-04-12T07:54:26Z</time>
      </trkpt>
      <trkpt lat="48.97922" lon="2.05887">
        <ele>16.2</ele>
        <time>2022-04-12T07:54:31Z</time>
      </trkpt>
      <trkpt lat="48.97927" lon="2.05891">
        <ele>16.8</ele>
        <time>2022-04-12T07:54:35Z</time>
      </trkpt>
      <trkpt lat="48.97932" lon="2.05895">
        <ele>15.9</ele>
        <time>2022-04-12T07:54:39Z</time>
      </trkpt>
      <trkpt lat="48.97937" lon="2.059">
        <ele>15.1</ele>
        <time>2022-04-12T07:54:42Z</time>
      </trkpt>
      <trkpt lat="48.97941" lon="2.05904">
        <ele>14.7</ele>
        <time>2022-04-12T07:54:46Z</time>
      </trkpt>
      <trkpt lat="48.97946" lon="2.05909">
        <ele>15</ele>
        <time>2022-04-12T07:54:51Z</time>
      </trkpt>
      <trkpt lat="48.9795" lon="2.05913">
        <ele>15.6</ele>
        <time>2022-04-12T07:54:54Z</time>
      </trkpt>
      <trkpt lat="48.97954" lon="2.05916">
        <ele>15.6</ele>
        <time>2022-04-12T07:54:58Z</time>
      </trkpt>
      <trkpt lat="48.97959" lon="2.05918">
        <ele>15.6</ele>
        <time>2022-04-12T07:55:01Z</time>
      </trkpt>
      <trkpt lat="48.97963" lon="2.05924">
        <ele>13.8</ele>
        <time>2022-04-12T07:55:05Z</time>
      </trkpt>
      <trkpt lat="48.97967" lon="2.05928">
        <ele>12.2</ele>
        <time>2022-04-12T07:55:08Z</time>
      </trkpt>
      <trkpt lat="48.97972" lon="2.05932">
        <ele>12.2</ele>
        <time>2022-04-12T07:55:11Z</time>
      </trkpt>
      <trkpt lat="48.97976" lon="2.05935">
        <ele>12</ele>
        <time>2022-04-12T07:55:16Z</time>
      </trkpt>
      <trkpt lat="48.97981" lon="2.05939">
        <ele>12.6</ele>
        <time>2022-04-12T07:55:19Z</time>
      </trkpt>
      <trkpt lat="48.97985" lon="2.05943">
        <ele>12.6</ele>
        <time>2022-04-12T07:55:22Z</time>
      </trkpt>
      <trkpt lat="48.97989" lon="2.05947">
        <ele>13.2</ele>
        <time>2022-04-12T07:55:25Z</time>
      </trkpt>
      <trkpt lat="48.97993" lon="2.05952">
        <ele>12.9</ele>
        <time>2022-04-12T07:55:29Z</time>
      </trkpt>
      <trkpt lat="48.97997" lon="2.05958">
        <ele>13.1</ele>
        <time>2022-04-12T07:55:33Z</time>
      </trkpt>
      <trkpt lat="48.98002" lon="2.05963">
        <ele>14.3</ele>
        <time>2022-04-12T07:55:36Z</time>
      </trkpt>
      <trkpt lat="48.98054" lon="2.0602">
        <ele>11</ele>
        <time>2022-04-12T07:56:25Z</time>
      </trkpt>
      <trkpt lat="48.98059" lon="2.06023">
        <ele>9.8</ele>
        <time>2022-04-12T07:56:28Z</time>
      </trkpt>
      <trkpt lat="48.98063" lon="2.06028">
        <ele>11</ele>
        <time>2022-04-12T07:56:32Z</time>
      </trkpt>
      <trkpt lat="48.98067" lon="2.06032">
        <ele>12.5</ele>
        <time>2022-04-12T07:56:36Z</time>
      </trkpt>
      <trkpt lat="48.98071" lon="2.06039">
        <ele>13.4</ele>
        <time>2022-04-12T07:56:40Z</time>
      </trkpt>
      <trkpt lat="48.98075" lon="2.06045">
        <ele>13.8</ele>
        <time>2022-04-12T07:56:43Z</time>
      </trkpt>
      <trkpt lat="48.98078" lon="2.0605">
        <ele>13.1</ele>
        <time>2022-04-12T07:56:47Z</time>
      </trkpt>
      <trkpt lat="48.98082" lon="2.06054">
        <ele>12.7</ele>
        <time>2022-04-12T07:56:50Z</time>
      </trkpt>
      <trkpt lat="48.98086" lon="2.06058">
        <ele>12.6</ele>
        <time>2022-04-12T07:56:53Z</time>
      </trkpt>
      <trkpt lat="48.9809" lon="2.06063">
        <ele>13.3</ele>
        <time>2022-04-12T07:56:56Z</time>
      </trkpt>
      <trkpt lat="48.98094" lon="2.06067">
        <ele>15.5</ele>
        <time>2022-04-12T07:56:59Z</time>
      </trkpt>
      <trkpt lat="48.98098" lon="2.06071">
        <ele>16</ele>
        <time>2022-04-12T07:57:03Z</time>
      </trkpt>
      <trkpt lat="48.98102" lon="2.06074">
        <ele>17.4</ele>
        <time>2022-04-12T07:57:07Z</time>
      </trkpt>
      <trkpt lat="48.98107" lon="2.06077">
        <ele>16.7</ele>
        <time>2022-04-12T07:57:10Z</time>
      </trkpt>
      <trkpt lat="48.98112" lon="2.06081">
        <ele>15.7</ele>
        <time>2022-04-12T07:57:14Z</time>
      </trkpt>
      <trkpt lat="48.98115" lon="2.06085">
        <ele>15</ele>
        <time>2022-04-12T07:57:18Z</time>
      </trkpt>
      <trkpt lat="48.98121" lon="2.06089">
        <ele>14.8</ele>
        <time>2022-04-12T07:57:22Z</time>
      </trkpt>
      <trkpt lat="48.98124" lon="2.06095">
        <ele>15.9</ele>
        <time>2022-04-12T07:57:25Z</time>
      </trkpt>
      <trkpt lat="48.98128" lon="2.061">
        <ele>15.3</ele>
        <time>2022-04-12T07:57:29Z</time>
      </trkpt>
      <trkpt lat="48.98133" lon="2.06104">
        <ele>14.6</ele>
        <time>2022-04-12T07:57:33Z</time>
      </trkpt>
      <trkpt lat="48.98138" lon="2.06108">
        <ele>14.1</ele>
        <time>2022-04-12T07:57:37Z</time>
      </trkpt>
      <trkpt lat="48.98143" lon="2.0611">
        <ele>12.8</ele>
        <time>2022-04-12T07:57:40Z</time>
      </trkpt>
      <trkpt lat="48.98148" lon="2.06113">
        <ele>13.2</ele>
        <time>2022-04-12T07:57:44Z</time>
      </trkpt>
      <trkpt lat="48.98152" lon="2.06113">
        <ele>13.2</ele>
        <time>2022-04-12T07:57:48Z</time>
      </trkpt>
      <trkpt lat="48.98154" lon="2.06104">
        <ele>13.7</ele>
        <time>2022-04-12T07:58:02Z</time>
      </trkpt>
      <trkpt lat="48.98158" lon="2.06106">
        <ele>14.1</ele>
        <time>2022-04-12T07:58:04Z</time>
      </trkpt>
      <trkpt lat="48.98162" lon="2.06113">
        <ele>15</ele>
        <time>2022-04-12T07:58:08Z</time>
      </trkpt>
      <trkpt lat="48.98165" lon="2.06119">
        <ele>14.2</ele>
        <time>2022-04-12T07:58:14Z</time>
      </trkpt>
      <trkpt lat="48.98169" lon="2.06124">
        <ele>14.5</ele>
        <time>2022-04-12T07:58:19Z</time>
      </trkpt>
      <trkpt lat="48.98173" lon="2.06128">
        <ele>14.2</ele>
        <time>2022-04-12T07:58:25Z</time>
      </trkpt>
      <trkpt lat="48.98178" lon="2.06131">
        <ele>14.5</ele>
        <time>2022-04-12T07:58:29Z</time>
      </trkpt>
      <trkpt lat="48.98182" lon="2.06135">
        <ele>14.4</ele>
        <time>2022-04-12T07:58:33Z</time>
      </trkpt>
      <trkpt lat="48.98186" lon="2.06139">
        <ele>14.1</ele>
        <time>2022-04-12T07:58:37Z</time>
      </trkpt>
      <trkpt lat="48.98191" lon="2.06143">
        <ele>14.4</ele>
        <time>2022-04-12T07:58:43Z</time>
      </trkpt>
      <trkpt lat="48.98195" lon="2.06147">
        <ele>13.9</ele>
        <time>2022-04-12T07:58:47Z</time>
      </trkpt>
      <trkpt lat="48.982" lon="2.06151">
        <ele>11.6</ele>
        <time>2022-04-12T07:58:52Z</time>
      </trkpt>
      <trkpt lat="48.98203" lon="2.06155">
        <ele>11.3</ele>
        <time>2022-04-12T07:58:56Z</time>
      </trkpt>
      <trkpt lat="48.98208" lon="2.06159">
        <ele>10.8</ele>
        <time>2022-04-12T07:59:00Z</time>
      </trkpt>
      <trkpt lat="48.98212" lon="2.06161">
        <ele>11.9</ele>
        <time>2022-04-12T07:59:04Z</time>
      </trkpt>
      <trkpt lat="48.98217" lon="2.06164">
        <ele>11.8</ele>
        <time>2022-04-12T07:59:08Z</time>
      </trkpt>
      <trkpt lat="48.98221" lon="2.06168">
        <ele>11.7</ele>
        <time>2022-04-12T07:59:12Z</time>
      </trkpt>
      <trkpt lat="48.98226" lon="2.06172">
        <ele>11</ele>
        <time>2022-04-12T07:59:16Z</time>
      </trkpt>
      <trkpt lat="48.9823" lon="2.06177">
        <ele>10.9</ele>
        <time>2022-04-12T07:59:20Z</time>
      </trkpt>
      <trkpt lat="48.98235" lon="2.06182">
        <ele>13.5</ele>
        <time>2022-04-12T07:59:24Z</time>
      </trkpt>
      <trkpt lat="48.98238" lon="2.06189">
        <ele>12.9</ele>
        <time>2022-04-12T07:59:27Z</time>
      </trkpt>
      <trkpt lat="48.98242" lon="2.06195">
        <ele>12.3</ele>
        <time>2022-04-12T07:59:31Z</time>
      </trkpt>
      <trkpt lat="48.98246" lon="2.06199">
        <ele>12.6</ele>
        <time>2022-04-12T07:59:35Z</time>
      </trkpt>
      <trkpt lat="48.98251" lon="2.06203">
        <ele>13.2</ele>
        <time>2022-04-12T07:59:39Z</time>
      </trkpt>
      <trkpt lat="48.98256" lon="2.06206">
        <ele>13.2</ele>
        <time>2022-04-12T07:59:43Z</time>
      </trkpt>
      <trkpt lat="48.9826" lon="2.0621">
        <ele>15.1</ele>
        <time>2022-04-12T07:59:48Z</time>
      </trkpt>
      <trkpt lat="48.98265" lon="2.06214">
        <ele>15</ele>
        <time>2022-04-12T07:59:52Z</time>
      </trkpt>
      <trkpt lat="48.98269" lon="2.06217">
        <ele>15.2</ele>
        <time>2022-04-12T07:59:56Z</time>
      </trkpt>
      <trkpt lat="48.98273" lon="2.06221">
        <ele>15.8</ele>
        <time>2022-04-12T08:00:00Z</time>
      </trkpt>
      <trkpt lat="48.98278" lon="2.06225">
        <ele>17.1</ele>
        <time>2022-04-12T08:00:04Z</time>
      </trkpt>
      <trkpt lat="48.98284" lon="2.06228">
        <ele>15.6</ele>
        <time>2022-04-12T08:00:09Z</time>
      </trkpt>
      <trkpt lat="48.98289" lon="2.06229">
        <ele>14.6</ele>
        <time>2022-04-12T08:00:15Z</time>
      </trkpt>
      <trkpt lat="48.98294" lon="2.06234">
        <ele>13.8</ele>
        <time>2022-04-12T08:00:20Z</time>
      </trkpt>
      <trkpt lat="48.98299" lon="2.06237">
        <ele>13.6</ele>
        <time>2022-04-12T08:00:25Z</time>
      </trkpt>
      <trkpt lat="48.98303" lon="2.06241">
        <ele>12.7</ele>
        <time>2022-04-12T08:00:29Z</time>
      </trkpt>
      <trkpt lat="48.98307" lon="2.06245">
        <ele>12.4</ele>
        <time>2022-04-12T08:00:34Z</time>
      </trkpt>
      <trkpt lat="48.98311" lon="2.06249">
        <ele>10.9</ele>
        <time>2022-04-12T08:00:38Z</time>
      </trkpt>
      <trkpt lat="48.98315" lon="2.06252">
        <ele>13</ele>
        <time>2022-04-12T08:00:42Z</time>
      </trkpt>
      <trkpt lat="48.98319" lon="2.06256">
        <ele>12.6</ele>
        <time>2022-04-12T08:00:46Z</time>
      </trkpt>
      <trkpt lat="48.98323" lon="2.06261">
        <ele>12.7</ele>
        <time>2022-04-12T08:00:50Z</time>
      </trkpt>
      <trkpt lat="48.98327" lon="2.06266">
        <ele>12.1</ele>
        <time>2022-04-12T08:00:54Z</time>
      </trkpt>
      <trkpt lat="48.98331" lon="2.0627">
        <ele>12.7</ele>
        <time>2022-04-12T08:00:58Z</time>
      </trkpt>
      <trkpt lat="48.98335" lon="2.06274">
        <ele>13.1</ele>
        <time>2022-04-12T08:01:02Z</time>
      </trkpt>
      <trkpt lat="48.98339" lon="2.06279">
        <ele>12.8</ele>
        <time>2022-04-12T08:01:05Z</time>
      </trkpt>
      <trkpt lat="48.98342" lon="2.06285">
        <ele>13.4</ele>
        <time>2022-04-12T08:01:10Z</time>
      </trkpt>
      <trkpt lat="48.98346" lon="2.06289">
        <ele>13.4</ele>
        <time>2022-04-12T08:01:13Z</time>
      </trkpt>
      <trkpt lat="48.98351" lon="2.06294">
        <ele>13.6</ele>
        <time>2022-04-12T08:01:18Z</time>
      </trkpt>
      <trkpt lat="48.98355" lon="2.06299">
        <ele>13.7</ele>
        <time>2022-04-12T08:01:22Z</time>
      </trkpt>
      <trkpt lat="48.98357" lon="2.06308">
        <ele>13.3</ele>
        <time>2022-04-12T08:01:26Z</time>
      </trkpt>
      <trkpt lat="48.98361" lon="2.06313">
        <ele>13</ele>
        <time>2022-04-12T08:01:29Z</time>
      </trkpt>
      <trkpt lat="48.98364" lon="2.06318">
        <ele>15.3</ele>
        <time>2022-04-12T08:01:33Z</time>
      </trkpt>
      <trkpt lat="48.98368" lon="2.06324">
        <ele>15.4</ele>
        <time>2022-04-12T08:01:37Z</time>
      </trkpt>
      <trkpt lat="48.98372" lon="2.0633">
        <ele>18.2</ele>
        <time>2022-04-12T08:01:42Z</time>
      </trkpt>
      <trkpt lat="48.98376" lon="2.06335">
        <ele>20.2</ele>
        <time>2022-04-12T08:01:46Z</time>
      </trkpt>
      <trkpt lat="48.9838" lon="2.06342">
        <ele>18.9</ele>
        <time>2022-04-12T08:01:50Z</time>
      </trkpt>
      <trkpt lat="48.98383" lon="2.06349">
        <ele>20.4</ele>
        <time>2022-04-12T08:01:54Z</time>
      </trkpt>
      <trkpt lat="48.98387" lon="2.06354">
        <ele>16.9</ele>
        <time>2022-04-12T08:01:57Z</time>
      </trkpt>
      <trkpt lat="48.98391" lon="2.06359">
        <ele>17.4</ele>
        <time>2022-04-12T08:02:01Z</time>
      </trkpt>
      <trkpt lat="48.98394" lon="2.06364">
        <ele>17.6</ele>
        <time>2022-04-12T08:02:05Z</time>
      </trkpt>
      <trkpt lat="48.98397" lon="2.0637">
        <ele>17.6</ele>
        <time>2022-04-12T08:02:09Z</time>
      </trkpt>
      <trkpt lat="48.984" lon="2.06379">
        <ele>17.3</ele>
        <time>2022-04-12T08:02:14Z</time>
      </trkpt>
      <trkpt lat="48.98402" lon="2.06384">
        <ele>16.6</ele>
        <time>2022-04-12T08:02:17Z</time>
      </trkpt>
      <trkpt lat="48.98406" lon="2.0639">
        <ele>17</ele>
        <time>2022-04-12T08:02:22Z</time>
      </trkpt>
      <trkpt lat="48.9841" lon="2.06395">
        <ele>16.8</ele>
        <time>2022-04-12T08:02:26Z</time>
      </trkpt>
      <trkpt lat="48.98413" lon="2.06402">
        <ele>16.7</ele>
        <time>2022-04-12T08:02:30Z</time>
      </trkpt>
      <trkpt lat="48.98414" lon="2.0641">
        <ele>15.5</ele>
        <time>2022-04-12T08:02:34Z</time>
      </trkpt>
      <trkpt lat="48.98416" lon="2.06416">
        <ele>15.6</ele>
        <time>2022-04-12T08:02:37Z</time>
      </trkpt>
      <trkpt lat="48.9842" lon="2.06422">
        <ele>15.8</ele>
        <time>2022-04-12T08:02:41Z</time>
      </trkpt>
      <trkpt lat="48.98423" lon="2.06429">
        <ele>16.2</ele>
        <time>2022-04-12T08:02:45Z</time>
      </trkpt>
      <trkpt lat="48.98426" lon="2.06437">
        <ele>18.1</ele>
        <time>2022-04-12T08:02:50Z</time>
      </trkpt>
      <trkpt lat="48.9843" lon="2.06442">
        <ele>18.8</ele>
        <time>2022-04-12T08:02:54Z</time>
      </trkpt>
      <trkpt lat="48.98435" lon="2.06444">
        <ele>18.2</ele>
        <time>2022-04-12T08:02:58Z</time>
      </trkpt>
      <trkpt lat="48.9844" lon="2.06448">
        <ele>17.3</ele>
        <time>2022-04-12T08:03:02Z</time>
      </trkpt>
      <trkpt lat="48.98445" lon="2.06451">
        <ele>16.1</ele>
        <time>2022-04-12T08:03:07Z</time>
      </trkpt>
      <trkpt lat="48.9845" lon="2.06456">
        <ele>16.4</ele>
        <time>2022-04-12T08:03:12Z</time>
      </trkpt>
      <trkpt lat="48.98454" lon="2.06461">
        <ele>16.5</ele>
        <time>2022-04-12T08:03:16Z</time>
      </trkpt>
      <trkpt lat="48.98458" lon="2.06466">
        <ele>17.3</ele>
        <time>2022-04-12T08:03:20Z</time>
      </trkpt>
      <trkpt lat="48.98459" lon="2.06474">
        <ele>17.5</ele>
        <time>2022-04-12T08:03:24Z</time>
      </trkpt>
      <trkpt lat="48.98463" lon="2.06481">
        <ele>18.8</ele>
        <time>2022-04-12T08:03:29Z</time>
      </trkpt>
      <trkpt lat="48.98465" lon="2.0649">
        <ele>21.4</ele>
        <time>2022-04-12T08:03:33Z</time>
      </trkpt>
      <trkpt lat="48.98467" lon="2.06497">
        <ele>22.8</ele>
        <time>2022-04-12T08:03:36Z</time>
      </trkpt>
      <trkpt lat="48.98471" lon="2.06503">
        <ele>21.9</ele>
        <time>2022-04-12T08:03:40Z</time>
      </trkpt>
      <trkpt lat="48.98474" lon="2.06509">
        <ele>23.3</ele>
        <time>2022-04-12T08:03:44Z</time>
      </trkpt>
      <trkpt lat="48.98477" lon="2.06516">
        <ele>23.5</ele>
        <time>2022-04-12T08:03:47Z</time>
      </trkpt>
      <trkpt lat="48.9848" lon="2.06523">
        <ele>24.5</ele>
        <time>2022-04-12T08:03:51Z</time>
      </trkpt>
      <trkpt lat="48.98482" lon="2.06529">
        <ele>24.1</ele>
        <time>2022-04-12T08:03:55Z</time>
      </trkpt>
      <trkpt lat="48.98485" lon="2.06535">
        <ele>23.4</ele>
        <time>2022-04-12T08:03:59Z</time>
      </trkpt>
      <trkpt lat="48.98488" lon="2.06541">
        <ele>23.3</ele>
        <time>2022-04-12T08:04:03Z</time>
      </trkpt>
      <trkpt lat="48.98491" lon="2.06549">
        <ele>22.8</ele>
        <time>2022-04-12T08:04:08Z</time>
      </trkpt>
      <trkpt lat="48.98493" lon="2.06557">
        <ele>21.5</ele>
        <time>2022-04-12T08:04:12Z</time>
      </trkpt>
      <trkpt lat="48.98495" lon="2.06563">
        <ele>21.8</ele>
        <time>2022-04-12T08:04:15Z</time>
      </trkpt>
      <trkpt lat="48.98498" lon="2.06569">
        <ele>21.8</ele>
        <time>2022-04-12T08:04:19Z</time>
      </trkpt>
      <trkpt lat="48.98501" lon="2.06576">
        <ele>21.3</ele>
        <time>2022-04-12T08:04:23Z</time>
      </trkpt>
      <trkpt lat="48.98504" lon="2.06583">
        <ele>19.6</ele>
        <time>2022-04-12T08:04:28Z</time>
      </trkpt>
      <trkpt lat="48.98506" lon="2.06591">
        <ele>21.6</ele>
        <time>2022-04-12T08:04:32Z</time>
      </trkpt>
      <trkpt lat="48.98508" lon="2.06597">
        <ele>22</ele>
        <time>2022-04-12T08:04:36Z</time>
      </trkpt>
      <trkpt lat="48.9851" lon="2.06604">
        <ele>19.8</ele>
        <time>2022-04-12T08:04:39Z</time>
      </trkpt>
      <trkpt lat="48.98514" lon="2.0661">
        <ele>21.2</ele>
        <time>2022-04-12T08:04:43Z</time>
      </trkpt>
      <trkpt lat="48.98516" lon="2.06618">
        <ele>21.3</ele>
        <time>2022-04-12T08:04:47Z</time>
      </trkpt>
      <trkpt lat="48.98518" lon="2.06626">
        <ele>22.5</ele>
        <time>2022-04-12T08:04:52Z</time>
      </trkpt>
      <trkpt lat="48.9852" lon="2.06634">
        <ele>21.9</ele>
        <time>2022-04-12T08:04:56Z</time>
      </trkpt>
      <trkpt lat="48.98522" lon="2.06641">
        <ele>22.9</ele>
        <time>2022-04-12T08:05:00Z</time>
      </trkpt>
      <trkpt lat="48.98524" lon="2.06648">
        <ele>22.4</ele>
        <time>2022-04-12T08:05:04Z</time>
      </trkpt>
      <trkpt lat="48.98526" lon="2.06655">
        <ele>22</ele>
        <time>2022-04-12T08:05:07Z</time>
      </trkpt>
      <trkpt lat="48.98529" lon="2.06661">
        <ele>21.3</ele>
        <time>2022-04-12T08:05:11Z</time>
      </trkpt>
      <trkpt lat="48.98533" lon="2.06668">
        <ele>20.1</ele>
        <time>2022-04-12T08:05:16Z</time>
      </trkpt>
      <trkpt lat="48.98536" lon="2.06676">
        <ele>19.6</ele>
        <time>2022-04-12T08:05:21Z</time>
      </trkpt>
      <trkpt lat="48.98538" lon="2.06682">
        <ele>20.9</ele>
        <time>2022-04-12T08:05:25Z</time>
      </trkpt>
      <trkpt lat="48.9854" lon="2.06689">
        <ele>22.3</ele>
        <time>2022-04-12T08:05:29Z</time>
      </trkpt>
      <trkpt lat="48.98543" lon="2.06696">
        <ele>21.9</ele>
        <time>2022-04-12T08:05:33Z</time>
      </trkpt>
      <trkpt lat="48.98545" lon="2.06702">
        <ele>22.9</ele>
        <time>2022-04-12T08:05:37Z</time>
      </trkpt>
      <trkpt lat="48.98547" lon="2.0671">
        <ele>24.1</ele>
        <time>2022-04-12T08:05:40Z</time>
      </trkpt>
      <trkpt lat="48.9855" lon="2.06717">
        <ele>22.1</ele>
        <time>2022-04-12T08:05:44Z</time>
      </trkpt>
      <trkpt lat="48.98553" lon="2.06723">
        <ele>20.6</ele>
        <time>2022-04-12T08:05:48Z</time>
      </trkpt>
      <trkpt lat="48.98556" lon="2.06729">
        <ele>22.4</ele>
        <time>2022-04-12T08:05:52Z</time>
      </trkpt>
      <trkpt lat="48.98558" lon="2.06735">
        <ele>23.2</ele>
        <time>2022-04-12T08:05:55Z</time>
      </trkpt>
      <trkpt lat="48.9856" lon="2.06742">
        <ele>21.9</ele>
        <time>2022-04-12T08:05:59Z</time>
      </trkpt>
      <trkpt lat="48.98562" lon="2.06749">
        <ele>20.1</ele>
        <time>2022-04-12T08:06:03Z</time>
      </trkpt>
      <trkpt lat="48.98565" lon="2.06754">
        <ele>20.5</ele>
        <time>2022-04-12T08:06:06Z</time>
      </trkpt>
      <trkpt lat="48.98569" lon="2.0676">
        <ele>19.1</ele>
        <time>2022-04-12T08:06:10Z</time>
      </trkpt>
      <trkpt lat="48.98572" lon="2.06765">
        <ele>19.5</ele>
        <time>2022-04-12T08:06:14Z</time>
      </trkpt>
      <trkpt lat="48.98573" lon="2.06758">
        <ele>19.2</ele>
        <time>2022-04-12T08:06:29Z</time>
      </trkpt>
      <trkpt lat="48.98579" lon="2.06758">
        <ele>15.5</ele>
        <time>2022-04-12T08:07:31Z</time>
      </trkpt>
      <trkpt lat="48.98574" lon="2.06762">
        <ele>17.7</ele>
        <time>2022-04-12T08:07:45Z</time>
      </trkpt>
      <trkpt lat="48.98575" lon="2.0677">
        <ele>18</ele>
        <time>2022-04-12T08:07:48Z</time>
      </trkpt>
      <trkpt lat="48.98576" lon="2.06778">
        <ele>17.8</ele>
        <time>2022-04-12T08:07:50Z</time>
      </trkpt>
      <trkpt lat="48.98577" lon="2.06785">
        <ele>17.3</ele>
        <time>2022-04-12T08:07:53Z</time>
      </trkpt>
      <trkpt lat="48.9858" lon="2.06792">
        <ele>18.1</ele>
        <time>2022-04-12T08:07:56Z</time>
      </trkpt>
      <trkpt lat="48.98583" lon="2.06799">
        <ele>19.7</ele>
        <time>2022-04-12T08:08:00Z</time>
      </trkpt>
      <trkpt lat="48.98586" lon="2.06806">
        <ele>19.8</ele>
        <time>2022-04-12T08:08:04Z</time>
      </trkpt>
      <trkpt lat="48.98588" lon="2.06813">
        <ele>20.8</ele>
        <time>2022-04-12T08:08:07Z</time>
      </trkpt>
      <trkpt lat="48.9859" lon="2.0682">
        <ele>21.8</ele>
        <time>2022-04-12T08:08:11Z</time>
      </trkpt>
      <trkpt lat="48.98592" lon="2.06827">
        <ele>23.7</ele>
        <time>2022-04-12T08:08:14Z</time>
      </trkpt>
      <trkpt lat="48.98595" lon="2.06834">
        <ele>24.1</ele>
        <time>2022-04-12T08:08:18Z</time>
      </trkpt>
      <trkpt lat="48.98597" lon="2.06841">
        <ele>24.3</ele>
        <time>2022-04-12T08:08:22Z</time>
      </trkpt>
      <trkpt lat="48.986" lon="2.06847">
        <ele>23.6</ele>
        <time>2022-04-12T08:08:26Z</time>
      </trkpt>
      <trkpt lat="48.98604" lon="2.06854">
        <ele>24.2</ele>
        <time>2022-04-12T08:08:30Z</time>
      </trkpt>
      <trkpt lat="48.98608" lon="2.0686">
        <ele>22</ele>
        <time>2022-04-12T08:08:35Z</time>
      </trkpt>
      <trkpt lat="48.98612" lon="2.06866">
        <ele>22.3</ele>
        <time>2022-04-12T08:08:39Z</time>
      </trkpt>
      <trkpt lat="48.98615" lon="2.06874">
        <ele>19.3</ele>
        <time>2022-04-12T08:08:43Z</time>
      </trkpt>
      <trkpt lat="48.98618" lon="2.0688">
        <ele>19.8</ele>
        <time>2022-04-12T08:08:47Z</time>
      </trkpt>
      <trkpt lat="48.98621" lon="2.06887">
        <ele>20.5</ele>
        <time>2022-04-12T08:08:50Z</time>
      </trkpt>
      <trkpt lat="48.98625" lon="2.06893">
        <ele>17.9</ele>
        <time>2022-04-12T08:08:55Z</time>
      </trkpt>
      <trkpt lat="48.98627" lon="2.06899">
        <ele>19.4</ele>
        <time>2022-04-12T08:08:58Z</time>
      </trkpt>
      <trkpt lat="48.98629" lon="2.06907">
        <ele>20.3</ele>
        <time>2022-04-12T08:09:03Z</time>
      </trkpt>
      <trkpt lat="48.98632" lon="2.06915">
        <ele>20.3</ele>
        <time>2022-04-12T08:09:08Z</time>
      </trkpt>
      <trkpt lat="48.98635" lon="2.0692">
        <ele>19.6</ele>
        <time>2022-04-12T08:09:12Z</time>
      </trkpt>
      <trkpt lat="48.98638" lon="2.06926">
        <ele>20.2</ele>
        <time>2022-04-12T08:09:15Z</time>
      </trkpt>
      <trkpt lat="48.98641" lon="2.06931">
        <ele>19.6</ele>
        <time>2022-04-12T08:09:19Z</time>
      </trkpt>
      <trkpt lat="48.98644" lon="2.06937">
        <ele>20.2</ele>
        <time>2022-04-12T08:09:22Z</time>
      </trkpt>
      <trkpt lat="48.98648" lon="2.06941">
        <ele>19.8</ele>
        <time>2022-04-12T08:09:26Z</time>
      </trkpt>
      <trkpt lat="48.98653" lon="2.06946">
        <ele>19.2</ele>
        <time>2022-04-12T08:09:30Z</time>
      </trkpt>
      <trkpt lat="48.98656" lon="2.0695">
        <ele>19.5</ele>
        <time>2022-04-12T08:09:34Z</time>
      </trkpt>
      <trkpt lat="48.9866" lon="2.06956">
        <ele>19.3</ele>
        <time>2022-04-12T08:09:37Z</time>
      </trkpt>
      <trkpt lat="48.98664" lon="2.06962">
        <ele>18.6</ele>
        <time>2022-04-12T08:09:41Z</time>
      </trkpt>
      <trkpt lat="48.98668" lon="2.06968">
        <ele>17.8</ele>
        <time>2022-04-12T08:09:46Z</time>
      </trkpt>
      <trkpt lat="48.98673" lon="2.06975">
        <ele>18.1</ele>
        <time>2022-04-12T08:09:51Z</time>
      </trkpt>
      <trkpt lat="48.98676" lon="2.0698">
        <ele>19.4</ele>
        <time>2022-04-12T08:09:54Z</time>
      </trkpt>
      <trkpt lat="48.9868" lon="2.06986">
        <ele>20.3</ele>
        <time>2022-04-12T08:09:58Z</time>
      </trkpt>
      <trkpt lat="48.98684" lon="2.06991">
        <ele>20.6</ele>
        <time>2022-04-12T08:10:01Z</time>
      </trkpt>
      <trkpt lat="48.98687" lon="2.06996">
        <ele>20</ele>
        <time>2022-04-12T08:10:05Z</time>
      </trkpt>
      <trkpt lat="48.98692" lon="2.07002">
        <ele>19.9</ele>
        <time>2022-04-12T08:10:09Z</time>
      </trkpt>
      <trkpt lat="48.98695" lon="2.07007">
        <ele>20.3</ele>
        <time>2022-04-12T08:10:12Z</time>
      </trkpt>
      <trkpt lat="48.987" lon="2.07011">
        <ele>18.9</ele>
        <time>2022-04-12T08:10:16Z</time>
      </trkpt>
      <trkpt lat="48.98704" lon="2.07014">
        <ele>18.5</ele>
        <time>2022-04-12T08:10:20Z</time>
      </trkpt>
      <trkpt lat="48.98709" lon="2.07016">
        <ele>18.4</ele>
        <time>2022-04-12T08:10:24Z</time>
      </trkpt>
      <trkpt lat="48.98713" lon="2.0702">
        <ele>19.1</ele>
        <time>2022-04-12T08:10:28Z</time>
      </trkpt>
      <trkpt lat="48.98717" lon="2.07025">
        <ele>19.2</ele>
        <time>2022-04-12T08:10:32Z</time>
      </trkpt>
      <trkpt lat="48.98721" lon="2.0703">
        <ele>18.7</ele>
        <time>2022-04-12T08:10:36Z</time>
      </trkpt>
      <trkpt lat="48.98725" lon="2.07035">
        <ele>18.1</ele>
        <time>2022-04-12T08:10:40Z</time>
      </trkpt>
      <trkpt lat="48.98729" lon="2.0704">
        <ele>17.2</ele>
        <time>2022-04-12T08:10:43Z</time>
      </trkpt>
      <trkpt lat="48.98734" lon="2.07043">
        <ele>17</ele>
        <time>2022-04-12T08:10:47Z</time>
      </trkpt>
      <trkpt lat="48.98739" lon="2.07046">
        <ele>16.4</ele>
        <time>2022-04-12T08:10:52Z</time>
      </trkpt>
      <trkpt lat="48.98744" lon="2.07049">
        <ele>17.7</ele>
        <time>2022-04-12T08:10:56Z</time>
      </trkpt>
      <trkpt lat="48.98749" lon="2.07052">
        <ele>19</ele>
        <time>2022-04-12T08:11:01Z</time>
      </trkpt>
      <trkpt lat="48.98753" lon="2.07056">
        <ele>19.5</ele>
        <time>2022-04-12T08:11:05Z</time>
      </trkpt>
      <trkpt lat="48.98759" lon="2.07059">
        <ele>19.9</ele>
        <time>2022-04-12T08:11:08Z</time>
      </trkpt>
      <trkpt lat="48.98763" lon="2.07062">
        <ele>20.2</ele>
        <time>2022-04-12T08:11:11Z</time>
      </trkpt>
      <trkpt lat="48.98768" lon="2.07065">
        <ele>20.1</ele>
        <time>2022-04-12T08:11:15Z</time>
      </trkpt>
      <trkpt lat="48.98773" lon="2.07067">
        <ele>20.6</ele>
        <time>2022-04-12T08:11:18Z</time>
      </trkpt>
      <trkpt lat="48.98777" lon="2.07068">
        <ele>20.1</ele>
        <time>2022-04-12T08:11:22Z</time>
      </trkpt>
      <trkpt lat="48.98782" lon="2.07069">
        <ele>20.7</ele>
        <time>2022-04-12T08:11:26Z</time>
      </trkpt>
      <trkpt lat="48.98787" lon="2.07069">
        <ele>18.9</ele>
        <time>2022-04-12T08:11:30Z</time>
      </trkpt>
      <trkpt lat="48.98792" lon="2.07069">
        <ele>18.4</ele>
        <time>2022-04-12T08:11:34Z</time>
      </trkpt>
      <trkpt lat="48.98797" lon="2.07071">
        <ele>19.3</ele>
        <time>2022-04-12T08:11:38Z</time>
      </trkpt>
      <trkpt lat="48.98801" lon="2.07076">
        <ele>19.3</ele>
        <time>2022-04-12T08:11:41Z</time>
      </trkpt>
      <trkpt lat="48.98805" lon="2.07079">
        <ele>19.6</ele>
        <time>2022-04-12T08:11:45Z</time>
      </trkpt>
      <trkpt lat="48.9881" lon="2.0708">
        <ele>19.4</ele>
        <time>2022-04-12T08:11:49Z</time>
      </trkpt>
      <trkpt lat="48.98814" lon="2.0708">
        <ele>19.7</ele>
        <time>2022-04-12T08:11:53Z</time>
      </trkpt>
      <trkpt lat="48.98819" lon="2.07078">
        <ele>18.6</ele>
        <time>2022-04-12T08:11:57Z</time>
      </trkpt>
      <trkpt lat="48.98825" lon="2.07079">
        <ele>17.2</ele>
        <time>2022-04-12T08:12:01Z</time>
      </trkpt>
      <trkpt lat="48.9883" lon="2.0708">
        <ele>16.7</ele>
        <time>2022-04-12T08:12:05Z</time>
      </trkpt>
      <trkpt lat="48.98835" lon="2.0708">
        <ele>16.1</ele>
        <time>2022-04-12T08:12:09Z</time>
      </trkpt>
      <trkpt lat="48.9884" lon="2.07081">
        <ele>16.7</ele>
        <time>2022-04-12T08:12:12Z</time>
      </trkpt>
      <trkpt lat="48.98846" lon="2.07082">
        <ele>16.7</ele>
        <time>2022-04-12T08:12:17Z</time>
      </trkpt>
      <trkpt lat="48.98851" lon="2.07083">
        <ele>16.9</ele>
        <time>2022-04-12T08:12:22Z</time>
      </trkpt>
      <trkpt lat="48.98857" lon="2.07084">
        <ele>18.6</ele>
        <time>2022-04-12T08:12:27Z</time>
      </trkpt>
      <trkpt lat="48.98862" lon="2.07087">
        <ele>18.1</ele>
        <time>2022-04-12T08:12:30Z</time>
      </trkpt>
      <trkpt lat="48.98867" lon="2.07091">
        <ele>17.4</ele>
        <time>2022-04-12T08:12:35Z</time>
      </trkpt>
      <trkpt lat="48.98872" lon="2.07092">
        <ele>16.8</ele>
        <time>2022-04-12T08:12:39Z</time>
      </trkpt>
      <trkpt lat="48.98876" lon="2.07094">
        <ele>16.7</ele>
        <time>2022-04-12T08:12:42Z</time>
      </trkpt>
      <trkpt lat="48.98881" lon="2.07097">
        <ele>16.4</ele>
        <time>2022-04-12T08:12:46Z</time>
      </trkpt>
      <trkpt lat="48.98886" lon="2.07102">
        <ele>15.5</ele>
        <time>2022-04-12T08:12:51Z</time>
      </trkpt>
      <trkpt lat="48.9889" lon="2.07103">
        <ele>15.6</ele>
        <time>2022-04-12T08:12:54Z</time>
      </trkpt>
      <trkpt lat="48.98895" lon="2.07104">
        <ele>15.7</ele>
        <time>2022-04-12T08:12:58Z</time>
      </trkpt>
      <trkpt lat="48.989" lon="2.07105">
        <ele>16.1</ele>
        <time>2022-04-12T08:13:01Z</time>
      </trkpt>
      <trkpt lat="48.98905" lon="2.07104">
        <ele>16</ele>
        <time>2022-04-12T08:13:05Z</time>
      </trkpt>
      <trkpt lat="48.9891" lon="2.07102">
        <ele>16.3</ele>
        <time>2022-04-12T08:13:09Z</time>
      </trkpt>
      <trkpt lat="48.98915" lon="2.07101">
        <ele>16.5</ele>
        <time>2022-04-12T08:13:12Z</time>
      </trkpt>
      <trkpt lat="48.9892" lon="2.07103">
        <ele>17.9</ele>
        <time>2022-04-12T08:13:16Z</time>
      </trkpt>
      <trkpt lat="48.98925" lon="2.07107">
        <ele>16.4</ele>
        <time>2022-04-12T08:13:20Z</time>
      </trkpt>
      <trkpt lat="48.98929" lon="2.07111">
        <ele>16</ele>
        <time>2022-04-12T08:13:23Z</time>
      </trkpt>
      <trkpt lat="48.98934" lon="2.07114">
        <ele>14.5</ele>
        <time>2022-04-12T08:13:27Z</time>
      </trkpt>
      <trkpt lat="48.98939" lon="2.07115">
        <ele>14.4</ele>
        <time>2022-04-12T08:13:31Z</time>
      </trkpt>
      <trkpt lat="48.98944" lon="2.07117">
        <ele>15.8</ele>
        <time>2022-04-12T08:13:35Z</time>
      </trkpt>
      <trkpt lat="48.98949" lon="2.07118">
        <ele>14.1</ele>
        <time>2022-04-12T08:13:39Z</time>
      </trkpt>
      <trkpt lat="48.98953" lon="2.07119">
        <ele>13.7</ele>
        <time>2022-04-12T08:13:42Z</time>
      </trkpt>
      <trkpt lat="48.98958" lon="2.07121">
        <ele>13.9</ele>
        <time>2022-04-12T08:13:46Z</time>
      </trkpt>
      <trkpt lat="48.98962" lon="2.07124">
        <ele>13.6</ele>
        <time>2022-04-12T08:13:49Z</time>
      </trkpt>
      <trkpt lat="48.98967" lon="2.07126">
        <ele>13.8</ele>
        <time>2022-04-12T08:13:53Z</time>
      </trkpt>
      <trkpt lat="48.98972" lon="2.07129">
        <ele>14.9</ele>
        <time>2022-04-12T08:13:56Z</time>
      </trkpt>
      <trkpt lat="48.98977" lon="2.07131">
        <ele>15.1</ele>
        <time>2022-04-12T08:14:00Z</time>
      </trkpt>
      <trkpt lat="48.98982" lon="2.07135">
        <ele>14.3</ele>
        <time>2022-04-12T08:14:05Z</time>
      </trkpt>
      <trkpt lat="48.98986" lon="2.07139">
        <ele>14.1</ele>
        <time>2022-04-12T08:14:08Z</time>
      </trkpt>
      <trkpt lat="48.98992" lon="2.07139">
        <ele>14.1</ele>
        <time>2022-04-12T08:14:13Z</time>
      </trkpt>
      <trkpt lat="48.98997" lon="2.07136">
        <ele>13.4</ele>
        <time>2022-04-12T08:14:16Z</time>
      </trkpt>
      <trkpt lat="48.99003" lon="2.07138">
        <ele>13.4</ele>
        <time>2022-04-12T08:14:20Z</time>
      </trkpt>
      <trkpt lat="48.99009" lon="2.0714">
        <ele>14.1</ele>
        <time>2022-04-12T08:14:25Z</time>
      </trkpt>
      <trkpt lat="48.99014" lon="2.07142">
        <ele>14</ele>
        <time>2022-04-12T08:14:29Z</time>
      </trkpt>
      <trkpt lat="48.99019" lon="2.07142">
        <ele>14.7</ele>
        <time>2022-04-12T08:14:33Z</time>
      </trkpt>
      <trkpt lat="48.99025" lon="2.07143">
        <ele>14.9</ele>
        <time>2022-04-12T08:14:36Z</time>
      </trkpt>
      <trkpt lat="48.99029" lon="2.07145">
        <ele>14.4</ele>
        <time>2022-04-12T08:14:40Z</time>
      </trkpt>
      <trkpt lat="48.99035" lon="2.07146">
        <ele>14.4</ele>
        <time>2022-04-12T08:14:44Z</time>
      </trkpt>
      <trkpt lat="48.9904" lon="2.07147">
        <ele>15</ele>
        <time>2022-04-12T08:14:48Z</time>
      </trkpt>
      <trkpt lat="48.99045" lon="2.07147">
        <ele>15.4</ele>
        <time>2022-04-12T08:14:52Z</time>
      </trkpt>
      <trkpt lat="48.9905" lon="2.07148">
        <ele>15.7</ele>
        <time>2022-04-12T08:14:55Z</time>
      </trkpt>
      <trkpt lat="48.99055" lon="2.0715">
        <ele>15.4</ele>
        <time>2022-04-12T08:14:59Z</time>
      </trkpt>
      <trkpt lat="48.9906" lon="2.0715">
        <ele>15.5</ele>
        <time>2022-04-12T08:15:03Z</time>
      </trkpt>
      <trkpt lat="48.99064" lon="2.07152">
        <ele>15.6</ele>
        <time>2022-04-12T08:15:07Z</time>
      </trkpt>
      <trkpt lat="48.9907" lon="2.07153">
        <ele>15.1</ele>
        <time>2022-04-12T08:15:12Z</time>
      </trkpt>
      <trkpt lat="48.99075" lon="2.07153">
        <ele>14.8</ele>
        <time>2022-04-12T08:15:16Z</time>
      </trkpt>
      <trkpt lat="48.9908" lon="2.07153">
        <ele>14.2</ele>
        <time>2022-04-12T08:15:19Z</time>
      </trkpt>
      <trkpt lat="48.99085" lon="2.07155">
        <ele>14.3</ele>
        <time>2022-04-12T08:15:24Z</time>
      </trkpt>
      <trkpt lat="48.9909" lon="2.07157">
        <ele>13.6</ele>
        <time>2022-04-12T08:15:27Z</time>
      </trkpt>
      <trkpt lat="48.99096" lon="2.07158">
        <ele>14.1</ele>
        <time>2022-04-12T08:15:31Z</time>
      </trkpt>
      <trkpt lat="48.99101" lon="2.07158">
        <ele>13.8</ele>
        <time>2022-04-12T08:15:35Z</time>
      </trkpt>
      <trkpt lat="48.99106" lon="2.07159">
        <ele>13.7</ele>
        <time>2022-04-12T08:15:38Z</time>
      </trkpt>
      <trkpt lat="48.99112" lon="2.07159">
        <ele>14.9</ele>
        <time>2022-04-12T08:15:42Z</time>
      </trkpt>
      <trkpt lat="48.99116" lon="2.0716">
        <ele>15.2</ele>
        <time>2022-04-12T08:15:46Z</time>
      </trkpt>
      <trkpt lat="48.99122" lon="2.07161">
        <ele>15.2</ele>
        <time>2022-04-12T08:15:50Z</time>
      </trkpt>
      <trkpt lat="48.99126" lon="2.07162">
        <ele>16</ele>
        <time>2022-04-12T08:15:54Z</time>
      </trkpt>
      <trkpt lat="48.99131" lon="2.07164">
        <ele>16.5</ele>
        <time>2022-04-12T08:15:57Z</time>
      </trkpt>
      <trkpt lat="48.99136" lon="2.07165">
        <ele>16.5</ele>
        <time>2022-04-12T08:16:02Z</time>
      </trkpt>
      <trkpt lat="48.99141" lon="2.07166">
        <ele>17.7</ele>
        <time>2022-04-12T08:16:06Z</time>
      </trkpt>
      <trkpt lat="48.99147" lon="2.07167">
        <ele>17.3</ele>
        <time>2022-04-12T08:16:09Z</time>
      </trkpt>
      <trkpt lat="48.99152" lon="2.07166">
        <ele>16.5</ele>
        <time>2022-04-12T08:16:13Z</time>
      </trkpt>
      <trkpt lat="48.99157" lon="2.07164">
        <ele>16.5</ele>
        <time>2022-04-12T08:16:16Z</time>
      </trkpt>
      <trkpt lat="48.99162" lon="2.07162">
        <ele>17</ele>
        <time>2022-04-12T08:16:20Z</time>
      </trkpt>
      <trkpt lat="48.99166" lon="2.0716">
        <ele>16.9</ele>
        <time>2022-04-12T08:16:23Z</time>
      </trkpt>
      <trkpt lat="48.99171" lon="2.07158">
        <ele>17</ele>
        <time>2022-04-12T08:16:26Z</time>
      </trkpt>
      <trkpt lat="48.99177" lon="2.07158">
        <ele>16.7</ele>
        <time>2022-04-12T08:16:30Z</time>
      </trkpt>
      <trkpt lat="48.99183" lon="2.07158">
        <ele>16.8</ele>
        <time>2022-04-12T08:16:35Z</time>
      </trkpt>
      <trkpt lat="48.99188" lon="2.07158">
        <ele>16.8</ele>
        <time>2022-04-12T08:16:39Z</time>
      </trkpt>
      <trkpt lat="48.99193" lon="2.07157">
        <ele>16.7</ele>
        <time>2022-04-12T08:16:43Z</time>
      </trkpt>
      <trkpt lat="48.99198" lon="2.07157">
        <ele>15.2</ele>
        <time>2022-04-12T08:16:46Z</time>
      </trkpt>
      <trkpt lat="48.99203" lon="2.07158">
        <ele>15.9</ele>
        <time>2022-04-12T08:16:50Z</time>
      </trkpt>
      <trkpt lat="48.99208" lon="2.07158">
        <ele>16</ele>
        <time>2022-04-12T08:16:54Z</time>
      </trkpt>
      <trkpt lat="48.99214" lon="2.07157">
        <ele>14.3</ele>
        <time>2022-04-12T08:16:58Z</time>
      </trkpt>
      <trkpt lat="48.99219" lon="2.07156">
        <ele>12.9</ele>
        <time>2022-04-12T08:17:01Z</time>
      </trkpt>
      <trkpt lat="48.99224" lon="2.07156">
        <ele>14.1</ele>
        <time>2022-04-12T08:17:05Z</time>
      </trkpt>
      <trkpt lat="48.99229" lon="2.07157">
        <ele>14.4</ele>
        <time>2022-04-12T08:17:09Z</time>
      </trkpt>
      <trkpt lat="48.99236" lon="2.07157">
        <ele>13.7</ele>
        <time>2022-04-12T08:17:14Z</time>
      </trkpt>
      <trkpt lat="48.99241" lon="2.07156">
        <ele>13.4</ele>
        <time>2022-04-12T08:17:19Z</time>
      </trkpt>
      <trkpt lat="48.99246" lon="2.07153">
        <ele>13.2</ele>
        <time>2022-04-12T08:17:23Z</time>
      </trkpt>
      <trkpt lat="48.99252" lon="2.07153">
        <ele>14.1</ele>
        <time>2022-04-12T08:17:27Z</time>
      </trkpt>
      <trkpt lat="48.99256" lon="2.07151">
        <ele>14.9</ele>
        <time>2022-04-12T08:17:31Z</time>
      </trkpt>
      <trkpt lat="48.99261" lon="2.0715">
        <ele>15.5</ele>
        <time>2022-04-12T08:17:35Z</time>
      </trkpt>
      <trkpt lat="48.99267" lon="2.07148">
        <ele>14</ele>
        <time>2022-04-12T08:17:39Z</time>
      </trkpt>
      <trkpt lat="48.99272" lon="2.07146">
        <ele>14.1</ele>
        <time>2022-04-12T08:17:42Z</time>
      </trkpt>
      <trkpt lat="48.99278" lon="2.07145">
        <ele>14.8</ele>
        <time>2022-04-12T08:17:46Z</time>
      </trkpt>
      <trkpt lat="48.99283" lon="2.07143">
        <ele>14.8</ele>
        <time>2022-04-12T08:17:51Z</time>
      </trkpt>
      <trkpt lat="48.99288" lon="2.07141">
        <ele>15.8</ele>
        <time>2022-04-12T08:17:54Z</time>
      </trkpt>
      <trkpt lat="48.99293" lon="2.0714">
        <ele>15.5</ele>
        <time>2022-04-12T08:17:58Z</time>
      </trkpt>
      <trkpt lat="48.99297" lon="2.07138">
        <ele>14.5</ele>
        <time>2022-04-12T08:18:01Z</time>
      </trkpt>
      <trkpt lat="48.99302" lon="2.07136">
        <ele>14.2</ele>
        <time>2022-04-12T08:18:05Z</time>
      </trkpt>
      <trkpt lat="48.99307" lon="2.07133">
        <ele>14.6</ele>
        <time>2022-04-12T08:18:08Z</time>
      </trkpt>
      <trkpt lat="48.99313" lon="2.0713">
        <ele>15.4</ele>
        <time>2022-04-12T08:18:12Z</time>
      </trkpt>
      <trkpt lat="48.99317" lon="2.07127">
        <ele>14.3</ele>
        <time>2022-04-12T08:18:16Z</time>
      </trkpt>
      <trkpt lat="48.99322" lon="2.07123">
        <ele>13.6</ele>
        <time>2022-04-12T08:18:20Z</time>
      </trkpt>
      <trkpt lat="48.99327" lon="2.0712">
        <ele>14.4</ele>
        <time>2022-04-12T08:18:23Z</time>
      </trkpt>
      <trkpt lat="48.99331" lon="2.07117">
        <ele>15.2</ele>
        <time>2022-04-12T08:18:27Z</time>
      </trkpt>
      <trkpt lat="48.99335" lon="2.07113">
        <ele>15.3</ele>
        <time>2022-04-12T08:18:31Z</time>
      </trkpt>
      <trkpt lat="48.99339" lon="2.07109">
        <ele>15.3</ele>
        <time>2022-04-12T08:18:35Z</time>
      </trkpt>
      <trkpt lat="48.99344" lon="2.07106">
        <ele>15.8</ele>
        <time>2022-04-12T08:18:39Z</time>
      </trkpt>
      <trkpt lat="48.99349" lon="2.07103">
        <ele>14.7</ele>
        <time>2022-04-12T08:18:42Z</time>
      </trkpt>
      <trkpt lat="48.99353" lon="2.07098">
        <ele>13.8</ele>
        <time>2022-04-12T08:18:46Z</time>
      </trkpt>
      <trkpt lat="48.99359" lon="2.07095">
        <ele>13.5</ele>
        <time>2022-04-12T08:18:51Z</time>
      </trkpt>
      <trkpt lat="48.99365" lon="2.07093">
        <ele>14.2</ele>
        <time>2022-04-12T08:18:55Z</time>
      </trkpt>
      <trkpt lat="48.99369" lon="2.07091">
        <ele>15.2</ele>
        <time>2022-04-12T08:18:59Z</time>
      </trkpt>
      <trkpt lat="48.99374" lon="2.07089">
        <ele>14.9</ele>
        <time>2022-04-12T08:19:03Z</time>
      </trkpt>
      <trkpt lat="48.99379" lon="2.07087">
        <ele>13.6</ele>
        <time>2022-04-12T08:19:06Z</time>
      </trkpt>
      <trkpt lat="48.99384" lon="2.07085">
        <ele>13.7</ele>
        <time>2022-04-12T08:19:10Z</time>
      </trkpt>
      <trkpt lat="48.9939" lon="2.07083">
        <ele>13.2</ele>
        <time>2022-04-12T08:19:15Z</time>
      </trkpt>
      <trkpt lat="48.99395" lon="2.07083">
        <ele>14.2</ele>
        <time>2022-04-12T08:19:19Z</time>
      </trkpt>
      <trkpt lat="48.994" lon="2.07083">
        <ele>15</ele>
        <time>2022-04-12T08:19:22Z</time>
      </trkpt>
      <trkpt lat="48.99405" lon="2.07081">
        <ele>14.5</ele>
        <time>2022-04-12T08:19:26Z</time>
      </trkpt>
      <trkpt lat="48.99411" lon="2.0708">
        <ele>14.9</ele>
        <time>2022-04-12T08:19:31Z</time>
      </trkpt>
      <trkpt lat="48.99416" lon="2.07079">
        <ele>15.5</ele>
        <time>2022-04-12T08:19:35Z</time>
      </trkpt>
      <trkpt lat="48.99421" lon="2.07078">
        <ele>15.5</ele>
        <time>2022-04-12T08:19:39Z</time>
      </trkpt>
      <trkpt lat="48.99426" lon="2.07076">
        <ele>15.2</ele>
        <time>2022-04-12T08:19:42Z</time>
      </trkpt>
      <trkpt lat="48.99431" lon="2.07076">
        <ele>16</ele>
        <time>2022-04-12T08:19:45Z</time>
      </trkpt>
      <trkpt lat="48.99437" lon="2.07073">
        <ele>14.9</ele>
        <time>2022-04-12T08:19:50Z</time>
      </trkpt>
      <trkpt lat="48.99441" lon="2.07073">
        <ele>14.3</ele>
        <time>2022-04-12T08:19:54Z</time>
      </trkpt>
      <trkpt lat="48.99447" lon="2.07071">
        <ele>14.2</ele>
        <time>2022-04-12T08:19:58Z</time>
      </trkpt>
      <trkpt lat="48.99453" lon="2.0707">
        <ele>14.1</ele>
        <time>2022-04-12T08:20:02Z</time>
      </trkpt>
      <trkpt lat="48.99458" lon="2.0707">
        <ele>14.1</ele>
        <time>2022-04-12T08:20:06Z</time>
      </trkpt>
      <trkpt lat="48.99463" lon="2.0707">
        <ele>13.8</ele>
        <time>2022-04-12T08:20:10Z</time>
      </trkpt>
      <trkpt lat="48.99468" lon="2.0707">
        <ele>13.5</ele>
        <time>2022-04-12T08:20:13Z</time>
      </trkpt>
      <trkpt lat="48.99475" lon="2.07069">
        <ele>14.1</ele>
        <time>2022-04-12T08:20:18Z</time>
      </trkpt>
      <trkpt lat="48.99481" lon="2.07069">
        <ele>14.3</ele>
        <time>2022-04-12T08:20:22Z</time>
      </trkpt>
      <trkpt lat="48.99486" lon="2.07069">
        <ele>14.1</ele>
        <time>2022-04-12T08:20:25Z</time>
      </trkpt>
      <trkpt lat="48.99491" lon="2.07068">
        <ele>14.8</ele>
        <time>2022-04-12T08:20:30Z</time>
      </trkpt>
      <trkpt lat="48.99497" lon="2.07068">
        <ele>13.9</ele>
        <time>2022-04-12T08:20:34Z</time>
      </trkpt>
      <trkpt lat="48.99502" lon="2.07068">
        <ele>14.5</ele>
        <time>2022-04-12T08:20:38Z</time>
      </trkpt>
      <trkpt lat="48.99507" lon="2.07068">
        <ele>15</ele>
        <time>2022-04-12T08:20:41Z</time>
      </trkpt>
      <trkpt lat="48.99513" lon="2.07067">
        <ele>15</ele>
        <time>2022-04-12T08:20:45Z</time>
      </trkpt>
      <trkpt lat="48.99519" lon="2.07068">
        <ele>15.3</ele>
        <time>2022-04-12T08:20:49Z</time>
      </trkpt>
      <trkpt lat="48.99523" lon="2.07068">
        <ele>14.8</ele>
        <time>2022-04-12T08:20:53Z</time>
      </trkpt>
      <trkpt lat="48.99528" lon="2.07067">
        <ele>14.7</ele>
        <time>2022-04-12T08:20:57Z</time>
      </trkpt>
      <trkpt lat="48.99534" lon="2.07067">
        <ele>14.3</ele>
        <time>2022-04-12T08:21:01Z</time>
      </trkpt>
      <trkpt lat="48.99539" lon="2.07066">
        <ele>14</ele>
        <time>2022-04-12T08:21:05Z</time>
      </trkpt>
      <trkpt lat="48.99544" lon="2.07067">
        <ele>14.2</ele>
        <time>2022-04-12T08:21:08Z</time>
      </trkpt>
      <trkpt lat="48.9955" lon="2.07067">
        <ele>16.2</ele>
        <time>2022-04-12T08:21:12Z</time>
      </trkpt>
      <trkpt lat="48.99555" lon="2.07068">
        <ele>15.7</ele>
        <time>2022-04-12T08:21:16Z</time>
      </trkpt>
      <trkpt lat="48.99561" lon="2.07068">
        <ele>15.7</ele>
        <time>2022-04-12T08:21:20Z</time>
      </trkpt>
      <trkpt lat="48.99566" lon="2.07068">
        <ele>15.5</ele>
        <time>2022-04-12T08:21:23Z</time>
      </trkpt>
      <trkpt lat="48.99571" lon="2.07069">
        <ele>15.6</ele>
        <time>2022-04-12T08:21:27Z</time>
      </trkpt>
      <trkpt lat="48.99577" lon="2.0707">
        <ele>16.6</ele>
        <time>2022-04-12T08:21:32Z</time>
      </trkpt>
      <trkpt lat="48.99582" lon="2.0707">
        <ele>15.7</ele>
        <time>2022-04-12T08:21:36Z</time>
      </trkpt>
      <trkpt lat="48.99588" lon="2.07071">
        <ele>15.7</ele>
        <time>2022-04-12T08:21:40Z</time>
      </trkpt>
      <trkpt lat="48.99592" lon="2.07073">
        <ele>17.2</ele>
        <time>2022-04-12T08:21:43Z</time>
      </trkpt>
      <trkpt lat="48.99598" lon="2.07074">
        <ele>17</ele>
        <time>2022-04-12T08:21:47Z</time>
      </trkpt>
      <trkpt lat="48.99604" lon="2.07074">
        <ele>17.6</ele>
        <time>2022-04-12T08:21:51Z</time>
      </trkpt>
      <trkpt lat="48.99609" lon="2.07074">
        <ele>16.9</ele>
        <time>2022-04-12T08:21:54Z</time>
      </trkpt>
      <trkpt lat="48.99615" lon="2.07074">
        <ele>16.6</ele>
        <time>2022-04-12T08:21:58Z</time>
      </trkpt>
      <trkpt lat="48.9962" lon="2.07074">
        <ele>16.3</ele>
        <time>2022-04-12T08:22:03Z</time>
      </trkpt>
      <trkpt lat="48.99625" lon="2.07074">
        <ele>15.7</ele>
        <time>2022-04-12T08:22:07Z</time>
      </trkpt>
      <trkpt lat="48.9963" lon="2.07074">
        <ele>15.7</ele>
        <time>2022-04-12T08:22:10Z</time>
      </trkpt>
      <trkpt lat="48.99635" lon="2.07074">
        <ele>15.1</ele>
        <time>2022-04-12T08:22:14Z</time>
      </trkpt>
      <trkpt lat="48.9964" lon="2.07074">
        <ele>15.5</ele>
        <time>2022-04-12T08:22:18Z</time>
      </trkpt>
      <trkpt lat="48.99645" lon="2.07074">
        <ele>17</ele>
        <time>2022-04-12T08:22:21Z</time>
      </trkpt>
      <trkpt lat="48.9965" lon="2.07075">
        <ele>16</ele>
        <time>2022-04-12T08:22:25Z</time>
      </trkpt>
      <trkpt lat="48.99656" lon="2.07075">
        <ele>16.2</ele>
        <time>2022-04-12T08:22:28Z</time>
      </trkpt>
      <trkpt lat="48.99661" lon="2.07077">
        <ele>15.8</ele>
        <time>2022-04-12T08:22:32Z</time>
      </trkpt>
      <trkpt lat="48.99666" lon="2.0708">
        <ele>15.2</ele>
        <time>2022-04-12T08:22:37Z</time>
      </trkpt>
      <trkpt lat="48.99672" lon="2.0708">
        <ele>16.3</ele>
        <time>2022-04-12T08:22:42Z</time>
      </trkpt>
      <trkpt lat="48.99676" lon="2.07081">
        <ele>16.3</ele>
        <time>2022-04-12T08:22:45Z</time>
      </trkpt>
      <trkpt lat="48.99683" lon="2.07081">
        <ele>16.7</ele>
        <time>2022-04-12T08:22:49Z</time>
      </trkpt>
      <trkpt lat="48.99687" lon="2.07081">
        <ele>16</ele>
        <time>2022-04-12T08:22:53Z</time>
      </trkpt>
      <trkpt lat="48.99694" lon="2.07082">
        <ele>16.1</ele>
        <time>2022-04-12T08:22:58Z</time>
      </trkpt>
      <trkpt lat="48.99698" lon="2.07084">
        <ele>14.5</ele>
        <time>2022-04-12T08:23:01Z</time>
      </trkpt>
      <trkpt lat="48.99703" lon="2.07088">
        <ele>15</ele>
        <time>2022-04-12T08:23:05Z</time>
      </trkpt>
      <trkpt lat="48.99708" lon="2.07092">
        <ele>15.1</ele>
        <time>2022-04-12T08:23:10Z</time>
      </trkpt>
      <trkpt lat="48.99714" lon="2.07093">
        <ele>15.7</ele>
        <time>2022-04-12T08:23:14Z</time>
      </trkpt>
      <trkpt lat="48.99719" lon="2.07095">
        <ele>16.2</ele>
        <time>2022-04-12T08:23:18Z</time>
      </trkpt>
      <trkpt lat="48.99724" lon="2.07096">
        <ele>15.6</ele>
        <time>2022-04-12T08:23:21Z</time>
      </trkpt>
      <trkpt lat="48.99729" lon="2.07098">
        <ele>16.6</ele>
        <time>2022-04-12T08:23:25Z</time>
      </trkpt>
      <trkpt lat="48.99734" lon="2.07099">
        <ele>16.3</ele>
        <time>2022-04-12T08:23:30Z</time>
      </trkpt>
      <trkpt lat="48.99739" lon="2.07102">
        <ele>16.1</ele>
        <time>2022-04-12T08:23:35Z</time>
      </trkpt>
      <trkpt lat="48.99744" lon="2.07106">
        <ele>16.1</ele>
        <time>2022-04-12T08:23:39Z</time>
      </trkpt>
      <trkpt lat="48.99749" lon="2.07109">
        <ele>18.3</ele>
        <time>2022-04-12T08:23:43Z</time>
      </trkpt>
      <trkpt lat="48.99754" lon="2.07111">
        <ele>18.8</ele>
        <time>2022-04-12T08:23:46Z</time>
      </trkpt>
      <trkpt lat="48.99759" lon="2.07113">
        <ele>18.1</ele>
        <time>2022-04-12T08:23:50Z</time>
      </trkpt>
      <trkpt lat="48.99764" lon="2.07114">
        <ele>17</ele>
        <time>2022-04-12T08:23:54Z</time>
      </trkpt>
      <trkpt lat="48.99768" lon="2.07118">
        <ele>16.1</ele>
        <time>2022-04-12T08:23:58Z</time>
      </trkpt>
      <trkpt lat="48.99772" lon="2.07123">
        <ele>16.6</ele>
        <time>2022-04-12T08:24:02Z</time>
      </trkpt>
      <trkpt lat="48.99776" lon="2.07128">
        <ele>15.9</ele>
        <time>2022-04-12T08:24:05Z</time>
      </trkpt>
      <trkpt lat="48.9978" lon="2.07133">
        <ele>14.2</ele>
        <time>2022-04-12T08:24:09Z</time>
      </trkpt>
      <trkpt lat="48.99785" lon="2.07136">
        <ele>13.8</ele>
        <time>2022-04-12T08:24:14Z</time>
      </trkpt>
      <trkpt lat="48.99789" lon="2.07138">
        <ele>13.5</ele>
        <time>2022-04-12T08:24:18Z</time>
      </trkpt>
      <trkpt lat="48.99794" lon="2.07142">
        <ele>14.3</ele>
        <time>2022-04-12T08:24:21Z</time>
      </trkpt>
      <trkpt lat="48.99798" lon="2.07146">
        <ele>14.5</ele>
        <time>2022-04-12T08:24:24Z</time>
      </trkpt>
      <trkpt lat="48.99803" lon="2.07149">
        <ele>15.8</ele>
        <time>2022-04-12T08:24:28Z</time>
      </trkpt>
      <trkpt lat="48.99807" lon="2.07151">
        <ele>16.1</ele>
        <time>2022-04-12T08:24:32Z</time>
      </trkpt>
      <trkpt lat="48.99812" lon="2.07154">
        <ele>15.4</ele>
        <time>2022-04-12T08:24:36Z</time>
      </trkpt>
      <trkpt lat="48.99817" lon="2.07156">
        <ele>16.5</ele>
        <time>2022-04-12T08:24:39Z</time>
      </trkpt>
      <trkpt lat="48.99822" lon="2.07157">
        <ele>16.3</ele>
        <time>2022-04-12T08:24:43Z</time>
      </trkpt>
      <trkpt lat="48.99827" lon="2.07156">
        <ele>15.2</ele>
        <time>2022-04-12T08:24:47Z</time>
      </trkpt>
      <trkpt lat="48.99832" lon="2.07155">
        <ele>13.8</ele>
        <time>2022-04-12T08:24:51Z</time>
      </trkpt>
      <trkpt lat="48.99838" lon="2.07153">
        <ele>13</ele>
        <time>2022-04-12T08:24:55Z</time>
      </trkpt>
      <trkpt lat="48.99842" lon="2.07153">
        <ele>13.4</ele>
        <time>2022-04-12T08:24:58Z</time>
      </trkpt>
      <trkpt lat="48.99847" lon="2.07153">
        <ele>13.5</ele>
        <time>2022-04-12T08:25:02Z</time>
      </trkpt>
      <trkpt lat="48.99852" lon="2.07152">
        <ele>14.3</ele>
        <time>2022-04-12T08:25:05Z</time>
      </trkpt>
      <trkpt lat="48.99857" lon="2.07151">
        <ele>14.8</ele>
        <time>2022-04-12T08:25:08Z</time>
      </trkpt>
      <trkpt lat="48.99862" lon="2.07148">
        <ele>16.5</ele>
        <time>2022-04-12T08:25:13Z</time>
      </trkpt>
      <trkpt lat="48.99867" lon="2.07146">
        <ele>16.4</ele>
        <time>2022-04-12T08:25:16Z</time>
      </trkpt>
      <trkpt lat="48.99872" lon="2.07144">
        <ele>17.3</ele>
        <time>2022-04-12T08:25:20Z</time>
      </trkpt>
      <trkpt lat="48.99877" lon="2.0714">
        <ele>15.9</ele>
        <time>2022-04-12T08:25:24Z</time>
      </trkpt>
      <trkpt lat="48.99881" lon="2.07137">
        <ele>14.1</ele>
        <time>2022-04-12T08:25:27Z</time>
      </trkpt>
      <trkpt lat="48.99884" lon="2.07132">
        <ele>14.7</ele>
        <time>2022-04-12T08:25:31Z</time>
      </trkpt>
      <trkpt lat="48.99888" lon="2.07126">
        <ele>15.3</ele>
        <time>2022-04-12T08:25:35Z</time>
      </trkpt>
      <trkpt lat="48.99891" lon="2.0712">
        <ele>16.5</ele>
        <time>2022-04-12T08:25:39Z</time>
      </trkpt>
      <trkpt lat="48.99895" lon="2.07115">
        <ele>16.9</ele>
        <time>2022-04-12T08:25:43Z</time>
      </trkpt>
      <trkpt lat="48.999" lon="2.07115">
        <ele>16.9</ele>
        <time>2022-04-12T08:25:47Z</time>
      </trkpt>
      <trkpt lat="48.99905" lon="2.07118">
        <ele>16.4</ele>
        <time>2022-04-12T08:25:50Z</time>
      </trkpt>
      <trkpt lat="48.99909" lon="2.07119">
        <ele>15.9</ele>
        <time>2022-04-12T08:25:54Z</time>
      </trkpt>
      <trkpt lat="48.99915" lon="2.0712">
        <ele>16.3</ele>
        <time>2022-04-12T08:25:59Z</time>
      </trkpt>
      <trkpt lat="48.9992" lon="2.07119">
        <ele>16.5</ele>
        <time>2022-04-12T08:26:02Z</time>
      </trkpt>
      <trkpt lat="48.99925" lon="2.07117">
        <ele>17</ele>
        <time>2022-04-12T08:26:07Z</time>
      </trkpt>
      <trkpt lat="48.9993" lon="2.07115">
        <ele>17</ele>
        <time>2022-04-12T08:26:10Z</time>
      </trkpt>
      <trkpt lat="48.99935" lon="2.07113">
        <ele>16.6</ele>
        <time>2022-04-12T08:26:14Z</time>
      </trkpt>
      <trkpt lat="48.99939" lon="2.0711">
        <ele>18</ele>
        <time>2022-04-12T08:26:18Z</time>
      </trkpt>
      <trkpt lat="48.99944" lon="2.07107">
        <ele>18.6</ele>
        <time>2022-04-12T08:26:21Z</time>
      </trkpt>
      <trkpt lat="48.99948" lon="2.07106">
        <ele>18.6</ele>
        <time>2022-04-12T08:26:25Z</time>
      </trkpt>
      <trkpt lat="48.99953" lon="2.07104">
        <ele>20.2</ele>
        <time>2022-04-12T08:26:29Z</time>
      </trkpt>
      <trkpt lat="48.99958" lon="2.07101">
        <ele>18.5</ele>
        <time>2022-04-12T08:26:32Z</time>
      </trkpt>
      <trkpt lat="48.99962" lon="2.07098">
        <ele>18.9</ele>
        <time>2022-04-12T08:26:36Z</time>
      </trkpt>
      <trkpt lat="48.99967" lon="2.07094">
        <ele>18.4</ele>
        <time>2022-04-12T08:26:40Z</time>
      </trkpt>
      <trkpt lat="48.9997" lon="2.07088">
        <ele>18.4</ele>
        <time>2022-04-12T08:26:44Z</time>
      </trkpt>
      <trkpt lat="48.99974" lon="2.07082">
        <ele>18.4</ele>
        <time>2022-04-12T08:26:48Z</time>
      </trkpt>
      <trkpt lat="48.99979" lon="2.07078">
        <ele>19.1</ele>
        <time>2022-04-12T08:26:52Z</time>
      </trkpt>
      <trkpt lat="48.99984" lon="2.07075">
        <ele>16.4</ele>
        <time>2022-04-12T08:26:55Z</time>
      </trkpt>
      <trkpt lat="48.99989" lon="2.07074">
        <ele>16.4</ele>
        <time>2022-04-12T08:26:59Z</time>
      </trkpt>
      <trkpt lat="48.99994" lon="2.07076">
        <ele>15.9</ele>
        <time>2022-04-12T08:27:04Z</time>
      </trkpt>
      <trkpt lat="48.99999" lon="2.07078">
        <ele>16.7</ele>
        <time>2022-04-12T08:27:08Z</time>
      </trkpt>
      <trkpt lat="49.00005" lon="2.0708">
        <ele>18.2</ele>
        <time>2022-04-12T08:27:12Z</time>
      </trkpt>
      <trkpt lat="49.00009" lon="2.07083">
        <ele>20.1</ele>
        <time>2022-04-12T08:27:16Z</time>
      </trkpt>
      <trkpt lat="49.00013" lon="2.07087">
        <ele>18.7</ele>
        <time>2022-04-12T08:27:20Z</time>
      </trkpt>
      <trkpt lat="49.00017" lon="2.07093">
        <ele>18.1</ele>
        <time>2022-04-12T08:27:24Z</time>
      </trkpt>
      <trkpt lat="49.00021" lon="2.07098">
        <ele>17.5</ele>
        <time>2022-04-12T08:27:28Z</time>
      </trkpt>
      <trkpt lat="49.00025" lon="2.07102">
        <ele>17.5</ele>
        <time>2022-04-12T08:27:31Z</time>
      </trkpt>
      <trkpt lat="49.0003" lon="2.07106">
        <ele>16.8</ele>
        <time>2022-04-12T08:27:36Z</time>
      </trkpt>
      <trkpt lat="49.00035" lon="2.0711">
        <ele>16.4</ele>
        <time>2022-04-12T08:27:40Z</time>
      </trkpt>
      <trkpt lat="49.0004" lon="2.07111">
        <ele>16.2</ele>
        <time>2022-04-12T08:27:44Z</time>
      </trkpt>
      <trkpt lat="49.00046" lon="2.07112">
        <ele>16.1</ele>
        <time>2022-04-12T08:27:47Z</time>
      </trkpt>
      <trkpt lat="49.00051" lon="2.0711">
        <ele>16.1</ele>
        <time>2022-04-12T08:27:51Z</time>
      </trkpt>
      <trkpt lat="49.00056" lon="2.07109">
        <ele>16.6</ele>
        <time>2022-04-12T08:27:55Z</time>
      </trkpt>
      <trkpt lat="49.00061" lon="2.07109">
        <ele>17.8</ele>
        <time>2022-04-12T08:27:59Z</time>
      </trkpt>
      <trkpt lat="49.00066" lon="2.0711">
        <ele>16.7</ele>
        <time>2022-04-12T08:28:03Z</time>
      </trkpt>
      <trkpt lat="49.00072" lon="2.07109">
        <ele>16.8</ele>
        <time>2022-04-12T08:28:07Z</time>
      </trkpt>
      <trkpt lat="49.00077" lon="2.07106">
        <ele>16.4</ele>
        <time>2022-04-12T08:28:12Z</time>
      </trkpt>
      <trkpt lat="49.00084" lon="2.07104">
        <ele>15.7</ele>
        <time>2022-04-12T08:28:17Z</time>
      </trkpt>
      <trkpt lat="49.00089" lon="2.07104">
        <ele>15.7</ele>
        <time>2022-04-12T08:28:21Z</time>
      </trkpt>
      <trkpt lat="49.00094" lon="2.07103">
        <ele>16.5</ele>
        <time>2022-04-12T08:28:25Z</time>
      </trkpt>
      <trkpt lat="49.00098" lon="2.07097">
        <ele>17.6</ele>
        <time>2022-04-12T08:28:29Z</time>
      </trkpt>
      <trkpt lat="49.00099" lon="2.0709">
        <ele>18.4</ele>
        <time>2022-04-12T08:28:33Z</time>
      </trkpt>
      <trkpt lat="49.00099" lon="2.07082">
        <ele>19.8</ele>
        <time>2022-04-12T08:28:38Z</time>
      </trkpt>
      <trkpt lat="49.00098" lon="2.07074">
        <ele>19.1</ele>
        <time>2022-04-12T08:28:42Z</time>
      </trkpt>
      <trkpt lat="49.00097" lon="2.07066">
        <ele>18.1</ele>
        <time>2022-04-12T08:28:46Z</time>
      </trkpt>
      <trkpt lat="49.00096" lon="2.07059">
        <ele>18</ele>
        <time>2022-04-12T08:28:50Z</time>
      </trkpt>
      <trkpt lat="49.00095" lon="2.07052">
        <ele>18.5</ele>
        <time>2022-04-12T08:28:55Z</time>
      </trkpt>
      <trkpt lat="49.00093" lon="2.07044">
        <ele>18</ele>
        <time>2022-04-12T08:28:59Z</time>
      </trkpt>
      <trkpt lat="49.00091" lon="2.07037">
        <ele>18.2</ele>
        <time>2022-04-12T08:29:03Z</time>
      </trkpt>
      <trkpt lat="49.0009" lon="2.0703">
        <ele>18.3</ele>
        <time>2022-04-12T08:29:07Z</time>
      </trkpt>
      <trkpt lat="49.00089" lon="2.07022">
        <ele>18.1</ele>
        <time>2022-04-12T08:29:12Z</time>
      </trkpt>
      <trkpt lat="49.00089" lon="2.07016">
        <ele>17.2</ele>
        <time>2022-04-12T08:29:15Z</time>
      </trkpt>
      <trkpt lat="49.00087" lon="2.07008">
        <ele>18.5</ele>
        <time>2022-04-12T08:29:19Z</time>
      </trkpt>
      <trkpt lat="49.00086" lon="2.07001">
        <ele>18</ele>
        <time>2022-04-12T08:29:24Z</time>
      </trkpt>
      <trkpt lat="49.00084" lon="2.06995">
        <ele>17.9</ele>
        <time>2022-04-12T08:29:28Z</time>
      </trkpt>
      <trkpt lat="49.00082" lon="2.06988">
        <ele>19.1</ele>
        <time>2022-04-12T08:29:32Z</time>
      </trkpt>
      <trkpt lat="49.0008" lon="2.0698">
        <ele>19.5</ele>
        <time>2022-04-12T08:29:36Z</time>
      </trkpt>
      <trkpt lat="49.0008" lon="2.06973">
        <ele>20.8</ele>
        <time>2022-04-12T08:29:40Z</time>
      </trkpt>
      <trkpt lat="49.00079" lon="2.06966">
        <ele>21</ele>
        <time>2022-04-12T08:29:43Z</time>
      </trkpt>
      <trkpt lat="49.00076" lon="2.06959">
        <ele>18.1</ele>
        <time>2022-04-12T08:29:47Z</time>
      </trkpt>
      <trkpt lat="49.00075" lon="2.06952">
        <ele>19.2</ele>
        <time>2022-04-12T08:29:51Z</time>
      </trkpt>
      <trkpt lat="49.00074" lon="2.06944">
        <ele>19.1</ele>
        <time>2022-04-12T08:29:55Z</time>
      </trkpt>
      <trkpt lat="49.00073" lon="2.06937">
        <ele>19.1</ele>
        <time>2022-04-12T08:29:59Z</time>
      </trkpt>
      <trkpt lat="49.00072" lon="2.0693">
        <ele>20.5</ele>
        <time>2022-04-12T08:30:03Z</time>
      </trkpt>
      <trkpt lat="49.0007" lon="2.0692">
        <ele>20.8</ele>
        <time>2022-04-12T08:30:08Z</time>
      </trkpt>
      <trkpt lat="49.00068" lon="2.06913">
        <ele>15.8</ele>
        <time>2022-04-12T08:30:12Z</time>
      </trkpt>
      <trkpt lat="49.00064" lon="2.06906">
        <ele>14.5</ele>
        <time>2022-04-12T08:30:16Z</time>
      </trkpt>
      <trkpt lat="49.00062" lon="2.06898">
        <ele>17.6</ele>
        <time>2022-04-12T08:30:21Z</time>
      </trkpt>
      <trkpt lat="49.00061" lon="2.0689">
        <ele>17.2</ele>
        <time>2022-04-12T08:30:25Z</time>
      </trkpt>
      <trkpt lat="49.0006" lon="2.06882">
        <ele>17</ele>
        <time>2022-04-12T08:30:29Z</time>
      </trkpt>
      <trkpt lat="49.00059" lon="2.06874">
        <ele>19.1</ele>
        <time>2022-04-12T08:30:33Z</time>
      </trkpt>
      <trkpt lat="49.00058" lon="2.06867">
        <ele>19.8</ele>
        <time>2022-04-12T08:30:37Z</time>
      </trkpt>
      <trkpt lat="49.00057" lon="2.0686">
        <ele>17.4</ele>
        <time>2022-04-12T08:30:41Z</time>
      </trkpt>
      <trkpt lat="49.00054" lon="2.06854">
        <ele>15.8</ele>
        <time>2022-04-12T08:30:45Z</time>
      </trkpt>
      <trkpt lat="49.00052" lon="2.06847">
        <ele>16.8</ele>
        <time>2022-04-12T08:30:48Z</time>
      </trkpt>
      <trkpt lat="49.0005" lon="2.06839">
        <ele>17.4</ele>
        <time>2022-04-12T08:30:52Z</time>
      </trkpt>
      <trkpt lat="49.00049" lon="2.06831">
        <ele>15.8</ele>
        <time>2022-04-12T08:30:56Z</time>
      </trkpt>
      <trkpt lat="49.00047" lon="2.06824">
        <ele>15.3</ele>
        <time>2022-04-12T08:31:00Z</time>
      </trkpt>
      <trkpt lat="49.00045" lon="2.06817">
        <ele>14.5</ele>
        <time>2022-04-12T08:31:03Z</time>
      </trkpt>
      <trkpt lat="49.00044" lon="2.06809">
        <ele>13.6</ele>
        <time>2022-04-12T08:31:07Z</time>
      </trkpt>
      <trkpt lat="49.00043" lon="2.06802">
        <ele>15</ele>
        <time>2022-04-12T08:31:11Z</time>
      </trkpt>
      <trkpt lat="49.00042" lon="2.06794">
        <ele>16.2</ele>
        <time>2022-04-12T08:31:14Z</time>
      </trkpt>
      <trkpt lat="49.00041" lon="2.06786">
        <ele>14.1</ele>
        <time>2022-04-12T08:31:18Z</time>
      </trkpt>
      <trkpt lat="49.0004" lon="2.06777">
        <ele>15.7</ele>
        <time>2022-04-12T08:31:22Z</time>
      </trkpt>
      <trkpt lat="49.00038" lon="2.06769">
        <ele>14.4</ele>
        <time>2022-04-12T08:31:27Z</time>
      </trkpt>
      <trkpt lat="49.00037" lon="2.0676">
        <ele>14.4</ele>
        <time>2022-04-12T08:31:31Z</time>
      </trkpt>
      <trkpt lat="49.00034" lon="2.06753">
        <ele>12.9</ele>
        <time>2022-04-12T08:31:35Z</time>
      </trkpt>
      <trkpt lat="49.00032" lon="2.06747">
        <ele>13.4</ele>
        <time>2022-04-12T08:31:38Z</time>
      </trkpt>
      <trkpt lat="49.00032" lon="2.06738">
        <ele>14.3</ele>
        <time>2022-04-12T08:31:43Z</time>
      </trkpt>
      <trkpt lat="49.00031" lon="2.06729">
        <ele>13.6</ele>
        <time>2022-04-12T08:31:47Z</time>
      </trkpt>
      <trkpt lat="49.00029" lon="2.0672">
        <ele>13.9</ele>
        <time>2022-04-12T08:31:52Z</time>
      </trkpt>
      <trkpt lat="49.00029" lon="2.06712">
        <ele>14.3</ele>
        <time>2022-04-12T08:31:56Z</time>
      </trkpt>
      <trkpt lat="49.00028" lon="2.06704">
        <ele>15</ele>
        <time>2022-04-12T08:31:59Z</time>
      </trkpt>
      <trkpt lat="49.00027" lon="2.06697">
        <ele>15.3</ele>
        <time>2022-04-12T08:32:03Z</time>
      </trkpt>
      <trkpt lat="49.00025" lon="2.0669">
        <ele>14.5</ele>
        <time>2022-04-12T08:32:07Z</time>
      </trkpt>
      <trkpt lat="49.00025" lon="2.06682">
        <ele>13.4</ele>
        <time>2022-04-12T08:32:10Z</time>
      </trkpt>
      <trkpt lat="49.00023" lon="2.06676">
        <ele>13.4</ele>
        <time>2022-04-12T08:32:14Z</time>
      </trkpt>
      <trkpt lat="49.00021" lon="2.06666">
        <ele>13.9</ele>
        <time>2022-04-12T08:32:19Z</time>
      </trkpt>
      <trkpt lat="49.00019" lon="2.06658">
        <ele>15.9</ele>
        <time>2022-04-12T08:32:23Z</time>
      </trkpt>
      <trkpt lat="49.00018" lon="2.06651">
        <ele>14.8</ele>
        <time>2022-04-12T08:32:27Z</time>
      </trkpt>
      <trkpt lat="49.00016" lon="2.06643">
        <ele>15.7</ele>
        <time>2022-04-12T08:32:31Z</time>
      </trkpt>
      <trkpt lat="49.00014" lon="2.06637">
        <ele>16.3</ele>
        <time>2022-04-12T08:32:35Z</time>
      </trkpt>
      <trkpt lat="49.00012" lon="2.06629">
        <ele>16.1</ele>
        <time>2022-04-12T08:32:40Z</time>
      </trkpt>
      <trkpt lat="49.00011" lon="2.06622">
        <ele>17.2</ele>
        <time>2022-04-12T08:32:44Z</time>
      </trkpt>
      <trkpt lat="49.0001" lon="2.06614">
        <ele>18.2</ele>
        <time>2022-04-12T08:32:47Z</time>
      </trkpt>
      <trkpt lat="49.00009" lon="2.06606">
        <ele>18.2</ele>
        <time>2022-04-12T08:32:52Z</time>
      </trkpt>
      <trkpt lat="49.00008" lon="2.06599">
        <ele>18.1</ele>
        <time>2022-04-12T08:32:56Z</time>
      </trkpt>
      <trkpt lat="49.00008" lon="2.06591">
        <ele>19.4</ele>
        <time>2022-04-12T08:32:59Z</time>
      </trkpt>
      <trkpt lat="49.00007" lon="2.06583">
        <ele>19.6</ele>
        <time>2022-04-12T08:33:03Z</time>
      </trkpt>
      <trkpt lat="49.00005" lon="2.06574">
        <ele>18.5</ele>
        <time>2022-04-12T08:33:08Z</time>
      </trkpt>
      <trkpt lat="49.00003" lon="2.06568">
        <ele>18.9</ele>
        <time>2022-04-12T08:33:11Z</time>
      </trkpt>
      <trkpt lat="49.00002" lon="2.06561">
        <ele>18.3</ele>
        <time>2022-04-12T08:33:15Z</time>
      </trkpt>
      <trkpt lat="49.00001" lon="2.06552">
        <ele>18.5</ele>
        <time>2022-04-12T08:33:18Z</time>
      </trkpt>
      <trkpt lat="48.99999" lon="2.06545">
        <ele>17.4</ele>
        <time>2022-04-12T08:33:23Z</time>
      </trkpt>
      <trkpt lat="48.99997" lon="2.06537">
        <ele>17.3</ele>
        <time>2022-04-12T08:33:28Z</time>
      </trkpt>
      <trkpt lat="48.99996" lon="2.06529">
        <ele>18.9</ele>
        <time>2022-04-12T08:33:31Z</time>
      </trkpt>
      <trkpt lat="48.99994" lon="2.06523">
        <ele>17.4</ele>
        <time>2022-04-12T08:33:34Z</time>
      </trkpt>
      <trkpt lat="48.99989" lon="2.06518">
        <ele>16.2</ele>
        <time>2022-04-12T08:33:37Z</time>
      </trkpt>
      <trkpt lat="48.99984" lon="2.06514">
        <ele>16.6</ele>
        <time>2022-04-12T08:33:41Z</time>
      </trkpt>
      <trkpt lat="48.99981" lon="2.06506">
        <ele>17.1</ele>
        <time>2022-04-12T08:33:46Z</time>
      </trkpt>
      <trkpt lat="48.9998" lon="2.06498">
        <ele>17.7</ele>
        <time>2022-04-12T08:33:50Z</time>
      </trkpt>
      <trkpt lat="48.9998" lon="2.0649">
        <ele>18.8</ele>
        <time>2022-04-12T08:33:53Z</time>
      </trkpt>
      <trkpt lat="48.99979" lon="2.06483">
        <ele>18.4</ele>
        <time>2022-04-12T08:33:57Z</time>
      </trkpt>
      <trkpt lat="48.99978" lon="2.06474">
        <ele>17.4</ele>
        <time>2022-04-12T08:34:01Z</time>
      </trkpt>
      <trkpt lat="48.99977" lon="2.06466">
        <ele>18.1</ele>
        <time>2022-04-12T08:34:05Z</time>
      </trkpt>
      <trkpt lat="48.99975" lon="2.06458">
        <ele>18.7</ele>
        <time>2022-04-12T08:34:08Z</time>
      </trkpt>
      <trkpt lat="48.99974" lon="2.06451">
        <ele>19.8</ele>
        <time>2022-04-12T08:34:11Z</time>
      </trkpt>
      <trkpt lat="48.99974" lon="2.06443">
        <ele>22.5</ele>
        <time>2022-04-12T08:34:15Z</time>
      </trkpt>
      <trkpt lat="48.99973" lon="2.06435">
        <ele>21.3</ele>
        <time>2022-04-12T08:34:20Z</time>
      </trkpt>
      <trkpt lat="48.99971" lon="2.06428">
        <ele>19.9</ele>
        <time>2022-04-12T08:34:24Z</time>
      </trkpt>
      <trkpt lat="48.99969" lon="2.06421">
        <ele>20.4</ele>
        <time>2022-04-12T08:34:27Z</time>
      </trkpt>
      <trkpt lat="48.99965" lon="2.06415">
        <ele>19.8</ele>
        <time>2022-04-12T08:34:32Z</time>
      </trkpt>
      <trkpt lat="48.99962" lon="2.06409">
        <ele>18.6</ele>
        <time>2022-04-12T08:34:36Z</time>
      </trkpt>
      <trkpt lat="48.9996" lon="2.06401">
        <ele>18.4</ele>
        <time>2022-04-12T08:34:40Z</time>
      </trkpt>
      <trkpt lat="48.9996" lon="2.06394">
        <ele>17.6</ele>
        <time>2022-04-12T08:34:43Z</time>
      </trkpt>
      <trkpt lat="48.9996" lon="2.06386">
        <ele>16.5</ele>
        <time>2022-04-12T08:34:48Z</time>
      </trkpt>
      <trkpt lat="48.9996" lon="2.06377">
        <ele>16.9</ele>
        <time>2022-04-12T08:34:53Z</time>
      </trkpt>
      <trkpt lat="48.9996" lon="2.06369">
        <ele>16.7</ele>
        <time>2022-04-12T08:34:57Z</time>
      </trkpt>
      <trkpt lat="48.99959" lon="2.06361">
        <ele>16.4</ele>
        <time>2022-04-12T08:35:00Z</time>
      </trkpt>
      <trkpt lat="48.99957" lon="2.06352">
        <ele>15.4</ele>
        <time>2022-04-12T08:35:05Z</time>
      </trkpt>
      <trkpt lat="48.99955" lon="2.06343">
        <ele>15.3</ele>
        <time>2022-04-12T08:35:09Z</time>
      </trkpt>
      <trkpt lat="48.99954" lon="2.06336">
        <ele>15.9</ele>
        <time>2022-04-12T08:35:13Z</time>
      </trkpt>
      <trkpt lat="48.99953" lon="2.06329">
        <ele>15.5</ele>
        <time>2022-04-12T08:35:16Z</time>
      </trkpt>
      <trkpt lat="48.99952" lon="2.0632">
        <ele>16.2</ele>
        <time>2022-04-12T08:35:20Z</time>
      </trkpt>
      <trkpt lat="48.99952" lon="2.06312">
        <ele>16.7</ele>
        <time>2022-04-12T08:35:24Z</time>
      </trkpt>
      <trkpt lat="48.9995" lon="2.06306">
        <ele>17.3</ele>
        <time>2022-04-12T08:35:28Z</time>
      </trkpt>
      <trkpt lat="48.99949" lon="2.06299">
        <ele>16.4</ele>
        <time>2022-04-12T08:35:31Z</time>
      </trkpt>
      <trkpt lat="48.99948" lon="2.06291">
        <ele>15.9</ele>
        <time>2022-04-12T08:35:36Z</time>
      </trkpt>
      <trkpt lat="48.99946" lon="2.06283">
        <ele>16.9</ele>
        <time>2022-04-12T08:35:40Z</time>
      </trkpt>
      <trkpt lat="48.99945" lon="2.06276">
        <ele>16.8</ele>
        <time>2022-04-12T08:35:43Z</time>
      </trkpt>
      <trkpt lat="48.99943" lon="2.06268">
        <ele>16.6</ele>
        <time>2022-04-12T08:35:47Z</time>
      </trkpt>
      <trkpt lat="48.99942" lon="2.0626">
        <ele>16.4</ele>
        <time>2022-04-12T08:35:51Z</time>
      </trkpt>
      <trkpt lat="48.99942" lon="2.06252">
        <ele>16.6</ele>
        <time>2022-04-12T08:35:55Z</time>
      </trkpt>
      <trkpt lat="48.99946" lon="2.06247">
        <ele>19.4</ele>
        <time>2022-04-12T08:35:58Z</time>
      </trkpt>
      <trkpt lat="48.99948" lon="2.0624">
        <ele>19.6</ele>
        <time>2022-04-12T08:36:01Z</time>
      </trkpt>
      <trkpt lat="48.99945" lon="2.06233">
        <ele>19.4</ele>
        <time>2022-04-12T08:36:06Z</time>
      </trkpt>
      <trkpt lat="48.99941" lon="2.06227">
        <ele>20.3</ele>
        <time>2022-04-12T08:36:10Z</time>
      </trkpt>
      <trkpt lat="48.99939" lon="2.06221">
        <ele>19.8</ele>
        <time>2022-04-12T08:36:14Z</time>
      </trkpt>
      <trkpt lat="48.99938" lon="2.06213">
        <ele>18</ele>
        <time>2022-04-12T08:36:17Z</time>
      </trkpt>
      <trkpt lat="48.99936" lon="2.06206">
        <ele>17.9</ele>
        <time>2022-04-12T08:36:21Z</time>
      </trkpt>
      <trkpt lat="48.99934" lon="2.06198">
        <ele>18.6</ele>
        <time>2022-04-12T08:36:26Z</time>
      </trkpt>
      <trkpt lat="48.99933" lon="2.06191">
        <ele>19.4</ele>
        <time>2022-04-12T08:36:30Z</time>
      </trkpt>
      <trkpt lat="48.99933" lon="2.06181">
        <ele>18.9</ele>
        <time>2022-04-12T08:36:35Z</time>
      </trkpt>
      <trkpt lat="48.99931" lon="2.06174">
        <ele>19.4</ele>
        <time>2022-04-12T08:36:39Z</time>
      </trkpt>
      <trkpt lat="48.99929" lon="2.06167">
        <ele>19.8</ele>
        <time>2022-04-12T08:36:42Z</time>
      </trkpt>
      <trkpt lat="48.99928" lon="2.0616">
        <ele>19.6</ele>
        <time>2022-04-12T08:36:47Z</time>
      </trkpt>
      <trkpt lat="48.99928" lon="2.06152">
        <ele>19.4</ele>
        <time>2022-04-12T08:36:51Z</time>
      </trkpt>
      <trkpt lat="48.99926" lon="2.06146">
        <ele>19.5</ele>
        <time>2022-04-12T08:36:54Z</time>
      </trkpt>
      <trkpt lat="48.99924" lon="2.06139">
        <ele>17.9</ele>
        <time>2022-04-12T08:36:59Z</time>
      </trkpt>
      <trkpt lat="48.99923" lon="2.06131">
        <ele>19.3</ele>
        <time>2022-04-12T08:37:03Z</time>
      </trkpt>
      <trkpt lat="48.99922" lon="2.06124">
        <ele>19.3</ele>
        <time>2022-04-12T08:37:07Z</time>
      </trkpt>
      <trkpt lat="48.99921" lon="2.06116">
        <ele>20</ele>
        <time>2022-04-12T08:37:11Z</time>
      </trkpt>
      <trkpt lat="48.99919" lon="2.06109">
        <ele>21</ele>
        <time>2022-04-12T08:37:14Z</time>
      </trkpt>
      <trkpt lat="48.99918" lon="2.06101">
        <ele>21.4</ele>
        <time>2022-04-12T08:37:18Z</time>
      </trkpt>
      <trkpt lat="48.99916" lon="2.06093">
        <ele>20.7</ele>
        <time>2022-04-12T08:37:23Z</time>
      </trkpt>
      <trkpt lat="48.99915" lon="2.06084">
        <ele>20.4</ele>
        <time>2022-04-12T08:37:27Z</time>
      </trkpt>
      <trkpt lat="48.99914" lon="2.06077">
        <ele>20.3</ele>
        <time>2022-04-12T08:37:31Z</time>
      </trkpt>
      <trkpt lat="48.99914" lon="2.06069">
        <ele>21.2</ele>
        <time>2022-04-12T08:37:35Z</time>
      </trkpt>
      <trkpt lat="48.99912" lon="2.06061">
        <ele>20.6</ele>
        <time>2022-04-12T08:37:40Z</time>
      </trkpt>
      <trkpt lat="48.99911" lon="2.06053">
        <ele>20.1</ele>
        <time>2022-04-12T08:37:44Z</time>
      </trkpt>
      <trkpt lat="48.99909" lon="2.06045">
        <ele>20.1</ele>
        <time>2022-04-12T08:37:48Z</time>
      </trkpt>
      <trkpt lat="48.99907" lon="2.06038">
        <ele>20.2</ele>
        <time>2022-04-12T08:37:52Z</time>
      </trkpt>
      <trkpt lat="48.99906" lon="2.0603">
        <ele>21.9</ele>
        <time>2022-04-12T08:37:56Z</time>
      </trkpt>
      <trkpt lat="48.99905" lon="2.06022">
        <ele>21.5</ele>
        <time>2022-04-12T08:37:59Z</time>
      </trkpt>
      <trkpt lat="48.99903" lon="2.06015">
        <ele>21.6</ele>
        <time>2022-04-12T08:38:03Z</time>
      </trkpt>
      <trkpt lat="48.99903" lon="2.06008">
        <ele>21.9</ele>
        <time>2022-04-12T08:38:07Z</time>
      </trkpt>
      <trkpt lat="48.99901" lon="2.05999">
        <ele>21.7</ele>
        <time>2022-04-12T08:38:11Z</time>
      </trkpt>
      <trkpt lat="48.999" lon="2.05992">
        <ele>22.1</ele>
        <time>2022-04-12T08:38:15Z</time>
      </trkpt>
      <trkpt lat="48.99898" lon="2.05984">
        <ele>22.3</ele>
        <time>2022-04-12T08:38:19Z</time>
      </trkpt>
      <trkpt lat="48.99897" lon="2.05977">
        <ele>22.6</ele>
        <time>2022-04-12T08:38:23Z</time>
      </trkpt>
      <trkpt lat="48.99896" lon="2.05969">
        <ele>23.1</ele>
        <time>2022-04-12T08:38:27Z</time>
      </trkpt>
      <trkpt lat="48.99894" lon="2.05962">
        <ele>23.3</ele>
        <time>2022-04-12T08:38:30Z</time>
      </trkpt>
      <trkpt lat="48.99891" lon="2.05955">
        <ele>23.1</ele>
        <time>2022-04-12T08:38:34Z</time>
      </trkpt>
      <trkpt lat="48.99889" lon="2.05948">
        <ele>22.9</ele>
        <time>2022-04-12T08:38:39Z</time>
      </trkpt>
      <trkpt lat="48.99888" lon="2.05941">
        <ele>23.1</ele>
        <time>2022-04-12T08:38:43Z</time>
      </trkpt>
      <trkpt lat="48.99887" lon="2.05932">
        <ele>23</ele>
        <time>2022-04-12T08:38:47Z</time>
      </trkpt>
      <trkpt lat="48.99885" lon="2.05926">
        <ele>20.9</ele>
        <time>2022-04-12T08:38:50Z</time>
      </trkpt>
      <trkpt lat="48.99886" lon="2.05918">
        <ele>22.4</ele>
        <time>2022-04-12T08:38:56Z</time>
      </trkpt>
      <trkpt lat="48.99885" lon="2.05911">
        <ele>22.5</ele>
        <time>2022-04-12T08:39:06Z</time>
      </trkpt>
      <trkpt lat="48.99882" lon="2.05905">
        <ele>24.1</ele>
        <time>2022-04-12T08:39:18Z</time>
      </trkpt>
      <trkpt lat="48.99881" lon="2.05897">
        <ele>23.4</ele>
        <time>2022-04-12T08:39:25Z</time>
      </trkpt>
      <trkpt lat="48.99881" lon="2.05889">
        <ele>25.1</ele>
        <time>2022-04-12T08:39:31Z</time>
      </trkpt>
      <trkpt lat="48.9988" lon="2.05881">
        <ele>24.7</ele>
        <time>2022-04-12T08:39:37Z</time>
      </trkpt>
      <trkpt lat="48.99879" lon="2.05873">
        <ele>25.2</ele>
        <time>2022-04-12T08:39:43Z</time>
      </trkpt>
      <trkpt lat="48.99878" lon="2.05866">
        <ele>26.2</ele>
        <time>2022-04-12T08:39:50Z</time>
      </trkpt>
      <trkpt lat="48.99876" lon="2.05859">
        <ele>27</ele>
        <time>2022-04-12T08:39:56Z</time>
      </trkpt>
      <trkpt lat="48.99876" lon="2.05851">
        <ele>29.4</ele>
        <time>2022-04-12T08:40:01Z</time>
      </trkpt>
      <trkpt lat="48.99875" lon="2.05843">
        <ele>29.6</ele>
        <time>2022-04-12T08:40:07Z</time>
      </trkpt>
      <trkpt lat="48.99873" lon="2.05835">
        <ele>29</ele>
        <time>2022-04-12T08:40:12Z</time>
      </trkpt>
      <trkpt lat="48.99871" lon="2.05828">
        <ele>28.5</ele>
        <time>2022-04-12T08:40:18Z</time>
      </trkpt>
      <trkpt lat="48.99869" lon="2.0582">
        <ele>29.4</ele>
        <time>2022-04-12T08:40:23Z</time>
      </trkpt>
      <trkpt lat="48.99869" lon="2.05812">
        <ele>30.5</ele>
        <time>2022-04-12T08:40:28Z</time>
      </trkpt>
      <trkpt lat="48.99868" lon="2.05806">
        <ele>30.1</ele>
        <time>2022-04-12T08:40:33Z</time>
      </trkpt>
      <trkpt lat="48.99867" lon="2.05797">
        <ele>31.3</ele>
        <time>2022-04-12T08:40:39Z</time>
      </trkpt>
      <trkpt lat="48.99866" lon="2.0579">
        <ele>31.7</ele>
        <time>2022-04-12T08:40:44Z</time>
      </trkpt>
      <trkpt lat="48.99865" lon="2.05781">
        <ele>31.4</ele>
        <time>2022-04-12T08:40:48Z</time>
      </trkpt>
      <trkpt lat="48.99863" lon="2.05774">
        <ele>31.3</ele>
        <time>2022-04-12T08:40:54Z</time>
      </trkpt>
      <trkpt lat="48.99862" lon="2.05767">
        <ele>31.8</ele>
        <time>2022-04-12T08:40:59Z</time>
      </trkpt>
      <trkpt lat="48.99861" lon="2.0576">
        <ele>32.1</ele>
        <time>2022-04-12T08:41:05Z</time>
      </trkpt>
      <trkpt lat="48.99859" lon="2.05753">
        <ele>31.6</ele>
        <time>2022-04-12T08:41:10Z</time>
      </trkpt>
      <trkpt lat="48.99858" lon="2.05745">
        <ele>31.4</ele>
        <time>2022-04-12T08:41:15Z</time>
      </trkpt>
      <trkpt lat="48.99857" lon="2.05738">
        <ele>34</ele>
        <time>2022-04-12T08:41:20Z</time>
      </trkpt>
      <trkpt lat="48.99856" lon="2.05731">
        <ele>34.8</ele>
        <time>2022-04-12T08:41:25Z</time>
      </trkpt>
      <trkpt lat="48.99854" lon="2.05723">
        <ele>34.5</ele>
        <time>2022-04-12T08:41:31Z</time>
      </trkpt>
      <trkpt lat="48.99853" lon="2.05716">
        <ele>34.9</ele>
        <time>2022-04-12T08:41:36Z</time>
      </trkpt>
      <trkpt lat="48.99852" lon="2.05707">
        <ele>36.3</ele>
        <time>2022-04-12T08:41:41Z</time>
      </trkpt>
      <trkpt lat="48.9985" lon="2.057">
        <ele>36.6</ele>
        <time>2022-04-12T08:41:45Z</time>
      </trkpt>
      <trkpt lat="48.99849" lon="2.05692">
        <ele>37.4</ele>
        <time>2022-04-12T08:41:51Z</time>
      </trkpt>
      <trkpt lat="48.99847" lon="2.05685">
        <ele>37.3</ele>
        <time>2022-04-12T08:41:56Z</time>
      </trkpt>
      <trkpt lat="48.99846" lon="2.05677">
        <ele>38</ele>
        <time>2022-04-12T08:42:02Z</time>
      </trkpt>
      <trkpt lat="48.99844" lon="2.05669">
        <ele>39</ele>
        <time>2022-04-12T08:42:07Z</time>
      </trkpt>
      <trkpt lat="48.99843" lon="2.05661">
        <ele>40.1</ele>
        <time>2022-04-12T08:42:12Z</time>
      </trkpt>
      <trkpt lat="48.99843" lon="2.05654">
        <ele>42.3</ele>
        <time>2022-04-12T08:42:16Z</time>
      </trkpt>
      <trkpt lat="48.99842" lon="2.05647">
        <ele>43.3</ele>
        <time>2022-04-12T08:42:21Z</time>
      </trkpt>
      <trkpt lat="48.99841" lon="2.05638">
        <ele>44.4</ele>
        <time>2022-04-12T08:42:27Z</time>
      </trkpt>
      <trkpt lat="48.99838" lon="2.05632">
        <ele>44.2</ele>
        <time>2022-04-12T08:42:31Z</time>
      </trkpt>
      <trkpt lat="48.99836" lon="2.05625">
        <ele>44.2</ele>
        <time>2022-04-12T08:42:36Z</time>
      </trkpt>
      <trkpt lat="48.99835" lon="2.05619">
        <ele>44.2</ele>
        <time>2022-04-12T08:42:41Z</time>
      </trkpt>
      <trkpt lat="48.99832" lon="2.05613">
        <ele>44.4</ele>
        <time>2022-04-12T08:42:46Z</time>
      </trkpt>
      <trkpt lat="48.99827" lon="2.05609">
        <ele>44.4</ele>
        <time>2022-04-12T08:42:51Z</time>
      </trkpt>
      <trkpt lat="48.99823" lon="2.05606">
        <ele>45.3</ele>
        <time>2022-04-12T08:42:55Z</time>
      </trkpt>
      <trkpt lat="48.99819" lon="2.05602">
        <ele>43.6</ele>
        <time>2022-04-12T08:43:00Z</time>
      </trkpt>
      <trkpt lat="48.99814" lon="2.05598">
        <ele>42.7</ele>
        <time>2022-04-12T08:43:04Z</time>
      </trkpt>
      <trkpt lat="48.9981" lon="2.05593">
        <ele>43.6</ele>
        <time>2022-04-12T08:43:09Z</time>
      </trkpt>
      <trkpt lat="48.99806" lon="2.05587">
        <ele>44</ele>
        <time>2022-04-12T08:43:13Z</time>
      </trkpt>
      <trkpt lat="48.99802" lon="2.05582">
        <ele>41.5</ele>
        <time>2022-04-12T08:43:18Z</time>
      </trkpt>
      <trkpt lat="48.99797" lon="2.05579">
        <ele>43.4</ele>
        <time>2022-04-12T08:43:23Z</time>
      </trkpt>
      <trkpt lat="48.99791" lon="2.05576">
        <ele>40.5</ele>
        <time>2022-04-12T08:43:28Z</time>
      </trkpt>
      <trkpt lat="48.99786" lon="2.05576">
        <ele>40.9</ele>
        <time>2022-04-12T08:43:33Z</time>
      </trkpt>
      <trkpt lat="48.99782" lon="2.05578">
        <ele>42.7</ele>
        <time>2022-04-12T08:43:37Z</time>
      </trkpt>
      <trkpt lat="48.99777" lon="2.0558">
        <ele>44.4</ele>
        <time>2022-04-12T08:43:41Z</time>
      </trkpt>
      <trkpt lat="48.99773" lon="2.05582">
        <ele>45.7</ele>
        <time>2022-04-12T08:43:46Z</time>
      </trkpt>
      <trkpt lat="48.99768" lon="2.05585">
        <ele>44.9</ele>
        <time>2022-04-12T08:43:51Z</time>
      </trkpt>
      <trkpt lat="48.99763" lon="2.05586">
        <ele>46.7</ele>
        <time>2022-04-12T08:43:55Z</time>
      </trkpt>
      <trkpt lat="48.99758" lon="2.05585">
        <ele>46.7</ele>
        <time>2022-04-12T08:44:00Z</time>
      </trkpt>
      <trkpt lat="48.99753" lon="2.05586">
        <ele>45.5</ele>
        <time>2022-04-12T08:44:03Z</time>
      </trkpt>
      <trkpt lat="48.99748" lon="2.05588">
        <ele>45.8</ele>
        <time>2022-04-12T08:44:08Z</time>
      </trkpt>
      <trkpt lat="48.99743" lon="2.05589">
        <ele>43.6</ele>
        <time>2022-04-12T08:44:12Z</time>
      </trkpt>
      <trkpt lat="48.99737" lon="2.05589">
        <ele>45.1</ele>
        <time>2022-04-12T08:44:16Z</time>
      </trkpt>
      <trkpt lat="48.99733" lon="2.05586">
        <ele>45.5</ele>
        <time>2022-04-12T08:44:20Z</time>
      </trkpt>
      <trkpt lat="48.99728" lon="2.05588">
        <ele>48.1</ele>
        <time>2022-04-12T08:44:25Z</time>
      </trkpt>
      <trkpt lat="48.99724" lon="2.05592">
        <ele>49.2</ele>
        <time>2022-04-12T08:44:29Z</time>
      </trkpt>
      <trkpt lat="48.99719" lon="2.05597">
        <ele>50.4</ele>
        <time>2022-04-12T08:44:34Z</time>
      </trkpt>
      <trkpt lat="48.99715" lon="2.05599">
        <ele>49.2</ele>
        <time>2022-04-12T08:44:38Z</time>
      </trkpt>
      <trkpt lat="48.9971" lon="2.05599">
        <ele>48.9</ele>
        <time>2022-04-12T08:44:43Z</time>
      </trkpt>
      <trkpt lat="48.99705" lon="2.05597">
        <ele>47.8</ele>
        <time>2022-04-12T08:44:47Z</time>
      </trkpt>
      <trkpt lat="48.997" lon="2.05594">
        <ele>48</ele>
        <time>2022-04-12T08:44:53Z</time>
      </trkpt>
      <trkpt lat="48.99701" lon="2.05602">
        <ele>47.4</ele>
        <time>2022-04-12T08:46:51Z</time>
      </trkpt>
      <trkpt lat="48.99698" lon="2.05609">
        <ele>45.9</ele>
        <time>2022-04-12T08:46:58Z</time>
      </trkpt>
      <trkpt lat="48.99694" lon="2.05614">
        <ele>47.6</ele>
        <time>2022-04-12T08:47:02Z</time>
      </trkpt>
      <trkpt lat="48.9969" lon="2.05619">
        <ele>47.4</ele>
        <time>2022-04-12T08:47:06Z</time>
      </trkpt>
      <trkpt lat="48.99685" lon="2.05623">
        <ele>47.3</ele>
        <time>2022-04-12T08:47:11Z</time>
      </trkpt>
      <trkpt lat="48.9968" lon="2.05624">
        <ele>46.9</ele>
        <time>2022-04-12T08:47:16Z</time>
      </trkpt>
      <trkpt lat="48.99675" lon="2.05626">
        <ele>47.8</ele>
        <time>2022-04-12T08:47:21Z</time>
      </trkpt>
      <trkpt lat="48.9967" lon="2.05628">
        <ele>48.5</ele>
        <time>2022-04-12T08:47:25Z</time>
      </trkpt>
      <trkpt lat="48.99665" lon="2.0563">
        <ele>47</ele>
        <time>2022-04-12T08:47:30Z</time>
      </trkpt>
      <trkpt lat="48.9966" lon="2.05632">
        <ele>46.1</ele>
        <time>2022-04-12T08:47:36Z</time>
      </trkpt>
      <trkpt lat="48.99655" lon="2.05632">
        <ele>43.8</ele>
        <time>2022-04-12T08:47:40Z</time>
      </trkpt>
      <trkpt lat="48.9965" lon="2.05635">
        <ele>42.6</ele>
        <time>2022-04-12T08:47:45Z</time>
      </trkpt>
      <trkpt lat="48.99646" lon="2.0564">
        <ele>40.3</ele>
        <time>2022-04-12T08:47:51Z</time>
      </trkpt>
      <trkpt lat="48.99642" lon="2.0564">
        <ele>38.2</ele>
        <time>2022-04-12T08:47:55Z</time>
      </trkpt>
      <trkpt lat="48.99637" lon="2.05636">
        <ele>37.8</ele>
        <time>2022-04-12T08:47:59Z</time>
      </trkpt>
      <trkpt lat="48.99632" lon="2.05634">
        <ele>37</ele>
        <time>2022-04-12T08:48:04Z</time>
      </trkpt>
      <trkpt lat="48.99627" lon="2.05637">
        <ele>37.1</ele>
        <time>2022-04-12T08:48:10Z</time>
      </trkpt>
      <trkpt lat="48.99628" lon="2.05645">
        <ele>37.2</ele>
        <time>2022-04-12T08:48:13Z</time>
      </trkpt>
      <trkpt lat="48.99631" lon="2.05651">
        <ele>37.4</ele>
        <time>2022-04-12T08:48:16Z</time>
      </trkpt>
      <trkpt lat="48.99635" lon="2.05656">
        <ele>38.1</ele>
        <time>2022-04-12T08:48:20Z</time>
      </trkpt>
      <trkpt lat="48.99638" lon="2.05662">
        <ele>37</ele>
        <time>2022-04-12T08:48:24Z</time>
      </trkpt>
      <trkpt lat="48.99641" lon="2.05669">
        <ele>37.2</ele>
        <time>2022-04-12T08:48:28Z</time>
      </trkpt>
      <trkpt lat="48.99644" lon="2.05675">
        <ele>36.9</ele>
        <time>2022-04-12T08:48:32Z</time>
      </trkpt>
      <trkpt lat="48.99647" lon="2.05682">
        <ele>36</ele>
        <time>2022-04-12T08:48:36Z</time>
      </trkpt>
      <trkpt lat="48.99642" lon="2.05682">
        <ele>33.9</ele>
        <time>2022-04-12T08:48:47Z</time>
      </trkpt>
      <trkpt lat="48.99647" lon="2.05685">
        <ele>31.8</ele>
        <time>2022-04-12T08:49:03Z</time>
      </trkpt>
      <trkpt lat="48.99651" lon="2.05689">
        <ele>32</ele>
        <time>2022-04-12T08:49:06Z</time>
      </trkpt>
      <trkpt lat="48.99654" lon="2.05697">
        <ele>32.1</ele>
        <time>2022-04-12T08:49:10Z</time>
      </trkpt>
      <trkpt lat="48.99654" lon="2.05704">
        <ele>33.4</ele>
        <time>2022-04-12T08:49:14Z</time>
      </trkpt>
      <trkpt lat="48.99656" lon="2.05712">
        <ele>33.6</ele>
        <time>2022-04-12T08:49:17Z</time>
      </trkpt>
      <trkpt lat="48.99658" lon="2.05718">
        <ele>33.7</ele>
        <time>2022-04-12T08:49:20Z</time>
      </trkpt>
      <trkpt lat="48.9966" lon="2.05725">
        <ele>33.3</ele>
        <time>2022-04-12T08:49:25Z</time>
      </trkpt>
      <trkpt lat="48.99659" lon="2.05733">
        <ele>31.9</ele>
        <time>2022-04-12T08:49:29Z</time>
      </trkpt>
      <trkpt lat="48.99653" lon="2.05733">
        <ele>31.4</ele>
        <time>2022-04-12T08:49:32Z</time>
      </trkpt>
      <trkpt lat="48.99648" lon="2.05732">
        <ele>29.7</ele>
        <time>2022-04-12T08:49:36Z</time>
      </trkpt>
      <trkpt lat="48.99643" lon="2.05734">
        <ele>32.5</ele>
        <time>2022-04-12T08:49:39Z</time>
      </trkpt>
      <trkpt lat="48.9964" lon="2.05741">
        <ele>32.1</ele>
        <time>2022-04-12T08:49:43Z</time>
      </trkpt>
      <trkpt lat="48.99638" lon="2.05748">
        <ele>33.8</ele>
        <time>2022-04-12T08:49:47Z</time>
      </trkpt>
      <trkpt lat="48.99632" lon="2.05754">
        <ele>36.1</ele>
        <time>2022-04-12T08:49:52Z</time>
      </trkpt>
      <trkpt lat="48.99627" lon="2.05758">
        <ele>34.8</ele>
        <time>2022-04-12T08:49:56Z</time>
      </trkpt>
      <trkpt lat="48.99623" lon="2.05761">
        <ele>33.5</ele>
        <time>2022-04-12T08:50:00Z</time>
      </trkpt>
      <trkpt lat="48.99618" lon="2.05764">
        <ele>31.7</ele>
        <time>2022-04-12T08:50:04Z</time>
      </trkpt>
      <trkpt lat="48.99614" lon="2.05767">
        <ele>33.6</ele>
        <time>2022-04-12T08:50:08Z</time>
      </trkpt>
      <trkpt lat="48.99609" lon="2.05768">
        <ele>33.5</ele>
        <time>2022-04-12T08:50:12Z</time>
      </trkpt>
      <trkpt lat="48.99604" lon="2.05769">
        <ele>36.2</ele>
        <time>2022-04-12T08:50:16Z</time>
      </trkpt>
      <trkpt lat="48.99599" lon="2.05768">
        <ele>34.5</ele>
        <time>2022-04-12T08:50:20Z</time>
      </trkpt>
      <trkpt lat="48.99594" lon="2.05764">
        <ele>33.9</ele>
        <time>2022-04-12T08:50:24Z</time>
      </trkpt>
      <trkpt lat="48.9959" lon="2.0576">
        <ele>33.4</ele>
        <time>2022-04-12T08:50:28Z</time>
      </trkpt>
      <trkpt lat="48.99586" lon="2.05756">
        <ele>34.1</ele>
        <time>2022-04-12T08:50:32Z</time>
      </trkpt>
      <trkpt lat="48.99582" lon="2.05752">
        <ele>34.9</ele>
        <time>2022-04-12T08:50:36Z</time>
      </trkpt>
      <trkpt lat="48.99577" lon="2.05749">
        <ele>36.5</ele>
        <time>2022-04-12T08:50:40Z</time>
      </trkpt>
      <trkpt lat="48.99573" lon="2.05746">
        <ele>38</ele>
        <time>2022-04-12T08:50:44Z</time>
      </trkpt>
      <trkpt lat="48.99569" lon="2.05741">
        <ele>38.3</ele>
        <time>2022-04-12T08:50:49Z</time>
      </trkpt>
      <trkpt lat="48.99564" lon="2.05736">
        <ele>39.3</ele>
        <time>2022-04-12T08:50:54Z</time>
      </trkpt>
      <trkpt lat="48.99559" lon="2.05732">
        <ele>40.1</ele>
        <time>2022-04-12T08:50:58Z</time>
      </trkpt>
      <trkpt lat="48.99556" lon="2.05727">
        <ele>40</ele>
        <time>2022-04-12T08:51:02Z</time>
      </trkpt>
      <trkpt lat="48.99552" lon="2.05722">
        <ele>38.8</ele>
        <time>2022-04-12T08:51:06Z</time>
      </trkpt>
      <trkpt lat="48.99548" lon="2.05716">
        <ele>40.5</ele>
        <time>2022-04-12T08:51:10Z</time>
      </trkpt>
      <trkpt lat="48.99544" lon="2.0571">
        <ele>40</ele>
        <time>2022-04-12T08:51:14Z</time>
      </trkpt>
      <trkpt lat="48.9954" lon="2.05706">
        <ele>38.6</ele>
        <time>2022-04-12T08:51:19Z</time>
      </trkpt>
      <trkpt lat="48.99537" lon="2.05703">
        <ele>39.3</ele>
        <time>2022-04-12T08:51:23Z</time>
      </trkpt>
      <trkpt lat="48.99533" lon="2.05698">
        <ele>39.9</ele>
        <time>2022-04-12T08:51:27Z</time>
      </trkpt>
      <trkpt lat="48.99529" lon="2.05693">
        <ele>38.4</ele>
        <time>2022-04-12T08:51:31Z</time>
      </trkpt>
      <trkpt lat="48.99524" lon="2.05689">
        <ele>37.5</ele>
        <time>2022-04-12T08:51:36Z</time>
      </trkpt>
      <trkpt lat="48.99519" lon="2.05685">
        <ele>40.1</ele>
        <time>2022-04-12T08:51:40Z</time>
      </trkpt>
      <trkpt lat="48.99515" lon="2.0568">
        <ele>44.1</ele>
        <time>2022-04-12T08:51:45Z</time>
      </trkpt>
      <trkpt lat="48.9951" lon="2.05677">
        <ele>45.3</ele>
        <time>2022-04-12T08:51:49Z</time>
      </trkpt>
      <trkpt lat="48.99506" lon="2.05673">
        <ele>44.9</ele>
        <time>2022-04-12T08:51:54Z</time>
      </trkpt>
      <trkpt lat="48.99501" lon="2.05674">
        <ele>46.2</ele>
        <time>2022-04-12T08:52:01Z</time>
      </trkpt>
      <trkpt lat="48.99496" lon="2.05672">
        <ele>48</ele>
        <time>2022-04-12T08:52:06Z</time>
      </trkpt>
      <trkpt lat="48.99494" lon="2.05666">
        <ele>47.5</ele>
        <time>2022-04-12T08:52:10Z</time>
      </trkpt>
      <trkpt lat="48.9949" lon="2.0566">
        <ele>48.8</ele>
        <time>2022-04-12T08:52:14Z</time>
      </trkpt>
      <trkpt lat="48.99487" lon="2.05656">
        <ele>48.8</ele>
        <time>2022-04-12T08:52:19Z</time>
      </trkpt>
      <trkpt lat="48.99482" lon="2.05652">
        <ele>50</ele>
        <time>2022-04-12T08:52:23Z</time>
      </trkpt>
      <trkpt lat="48.99478" lon="2.05647">
        <ele>50.4</ele>
        <time>2022-04-12T08:52:29Z</time>
      </trkpt>
      <trkpt lat="48.99472" lon="2.05647">
        <ele>52.9</ele>
        <time>2022-04-12T08:52:34Z</time>
      </trkpt>
      <trkpt lat="48.99471" lon="2.05654">
        <ele>52.9</ele>
        <time>2022-04-12T08:52:38Z</time>
      </trkpt>
      <trkpt lat="48.99473" lon="2.05661">
        <ele>52.3</ele>
        <time>2022-04-12T08:52:43Z</time>
      </trkpt>
      <trkpt lat="48.99476" lon="2.05667">
        <ele>50.9</ele>
        <time>2022-04-12T08:52:47Z</time>
      </trkpt>
      <trkpt lat="48.99478" lon="2.05674">
        <ele>50.6</ele>
        <time>2022-04-12T08:52:51Z</time>
      </trkpt>
      <trkpt lat="48.9948" lon="2.05681">
        <ele>50</ele>
        <time>2022-04-12T08:52:55Z</time>
      </trkpt>
      <trkpt lat="48.99482" lon="2.05688">
        <ele>50.3</ele>
        <time>2022-04-12T08:52:59Z</time>
      </trkpt>
      <trkpt lat="48.99483" lon="2.05695">
        <ele>49.1</ele>
        <time>2022-04-12T08:53:04Z</time>
      </trkpt>
      <trkpt lat="48.99484" lon="2.05703">
        <ele>49.1</ele>
        <time>2022-04-12T08:53:08Z</time>
      </trkpt>
      <trkpt lat="48.99485" lon="2.0571">
        <ele>50.8</ele>
        <time>2022-04-12T08:53:12Z</time>
      </trkpt>
      <trkpt lat="48.99486" lon="2.05718">
        <ele>51.6</ele>
        <time>2022-04-12T08:53:16Z</time>
      </trkpt>
      <trkpt lat="48.99487" lon="2.05726">
        <ele>50.3</ele>
        <time>2022-04-12T08:53:20Z</time>
      </trkpt>
      <trkpt lat="48.99488" lon="2.05734">
        <ele>50</ele>
        <time>2022-04-12T08:53:24Z</time>
      </trkpt>
      <trkpt lat="48.99489" lon="2.05742">
        <ele>51</ele>
        <time>2022-04-12T08:53:29Z</time>
      </trkpt>
      <trkpt lat="48.99486" lon="2.05748">
        <ele>50.9</ele>
        <time>2022-04-12T08:53:32Z</time>
      </trkpt>
      <trkpt lat="48.9948" lon="2.05747">
        <ele>50.6</ele>
        <time>2022-04-12T08:53:36Z</time>
      </trkpt>
      <trkpt lat="48.99475" lon="2.05745">
        <ele>50.4</ele>
        <time>2022-04-12T08:53:40Z</time>
      </trkpt>
      <trkpt lat="48.9947" lon="2.05744">
        <ele>49.6</ele>
        <time>2022-04-12T08:53:44Z</time>
      </trkpt>
      <trkpt lat="48.99465" lon="2.05743">
        <ele>49.1</ele>
        <time>2022-04-12T08:53:48Z</time>
      </trkpt>
      <trkpt lat="48.9946" lon="2.05743">
        <ele>48.4</ele>
        <time>2022-04-12T08:53:52Z</time>
      </trkpt>
      <trkpt lat="48.99454" lon="2.05744">
        <ele>47.2</ele>
        <time>2022-04-12T08:53:56Z</time>
      </trkpt>
      <trkpt lat="48.99448" lon="2.05745">
        <ele>47.6</ele>
        <time>2022-04-12T08:54:00Z</time>
      </trkpt>
      <trkpt lat="48.99443" lon="2.05745">
        <ele>47.8</ele>
        <time>2022-04-12T08:54:03Z</time>
      </trkpt>
      <trkpt lat="48.99437" lon="2.05746">
        <ele>47.1</ele>
        <time>2022-04-12T08:54:07Z</time>
      </trkpt>
      <trkpt lat="48.99432" lon="2.05747">
        <ele>50</ele>
        <time>2022-04-12T08:54:11Z</time>
      </trkpt>
      <trkpt lat="48.99427" lon="2.05747">
        <ele>50.8</ele>
        <time>2022-04-12T08:54:15Z</time>
      </trkpt>
      <trkpt lat="48.99422" lon="2.05747">
        <ele>49</ele>
        <time>2022-04-12T08:54:20Z</time>
      </trkpt>
      <trkpt lat="48.99417" lon="2.05748">
        <ele>51.6</ele>
        <time>2022-04-12T08:54:23Z</time>
      </trkpt>
      <trkpt lat="48.99412" lon="2.05749">
        <ele>54.3</ele>
        <time>2022-04-12T08:54:27Z</time>
      </trkpt>
      <trkpt lat="48.99407" lon="2.05749">
        <ele>54.2</ele>
        <time>2022-04-12T08:54:31Z</time>
      </trkpt>
      <trkpt lat="48.99401" lon="2.05749">
        <ele>52.6</ele>
        <time>2022-04-12T08:54:35Z</time>
      </trkpt>
      <trkpt lat="48.99396" lon="2.0575">
        <ele>52.4</ele>
        <time>2022-04-12T08:54:38Z</time>
      </trkpt>
      <trkpt lat="48.99391" lon="2.0575">
        <ele>52.7</ele>
        <time>2022-04-12T08:54:42Z</time>
      </trkpt>
      <trkpt lat="48.99386" lon="2.0575">
        <ele>51</ele>
        <time>2022-04-12T08:54:46Z</time>
      </trkpt>
      <trkpt lat="48.99381" lon="2.0575">
        <ele>52.5</ele>
        <time>2022-04-12T08:54:50Z</time>
      </trkpt>
      <trkpt lat="48.99376" lon="2.05751">
        <ele>52.6</ele>
        <time>2022-04-12T08:54:54Z</time>
      </trkpt>
      <trkpt lat="48.99371" lon="2.05752">
        <ele>52.3</ele>
        <time>2022-04-12T08:54:58Z</time>
      </trkpt>
      <trkpt lat="48.99365" lon="2.05753">
        <ele>51.1</ele>
        <time>2022-04-12T08:55:01Z</time>
      </trkpt>
      <trkpt lat="48.9936" lon="2.05754">
        <ele>52.3</ele>
        <time>2022-04-12T08:55:05Z</time>
      </trkpt>
      <trkpt lat="48.99356" lon="2.05755">
        <ele>52.7</ele>
        <time>2022-04-12T08:55:09Z</time>
      </trkpt>
      <trkpt lat="48.9935" lon="2.05756">
        <ele>54.4</ele>
        <time>2022-04-12T08:55:13Z</time>
      </trkpt>
      <trkpt lat="48.99345" lon="2.05755">
        <ele>54.3</ele>
        <time>2022-04-12T08:55:17Z</time>
      </trkpt>
      <trkpt lat="48.9934" lon="2.05755">
        <ele>53.9</ele>
        <time>2022-04-12T08:55:20Z</time>
      </trkpt>
      <trkpt lat="48.99335" lon="2.05755">
        <ele>52.6</ele>
        <time>2022-04-12T08:55:24Z</time>
      </trkpt>
      <trkpt lat="48.99329" lon="2.05755">
        <ele>52.5</ele>
        <time>2022-04-12T08:55:29Z</time>
      </trkpt>
      <trkpt lat="48.99323" lon="2.05755">
        <ele>52.8</ele>
        <time>2022-04-12T08:55:33Z</time>
      </trkpt>
      <trkpt lat="48.99319" lon="2.05757">
        <ele>51.7</ele>
        <time>2022-04-12T08:55:37Z</time>
      </trkpt>
      <trkpt lat="48.99314" lon="2.05759">
        <ele>52.6</ele>
        <time>2022-04-12T08:55:40Z</time>
      </trkpt>
      <trkpt lat="48.99309" lon="2.0576">
        <ele>55.7</ele>
        <time>2022-04-12T08:55:44Z</time>
      </trkpt>
      <trkpt lat="48.99304" lon="2.05762">
        <ele>54.3</ele>
        <time>2022-04-12T08:55:47Z</time>
      </trkpt>
      <trkpt lat="48.99299" lon="2.05763">
        <ele>51.3</ele>
        <time>2022-04-12T08:55:51Z</time>
      </trkpt>
      <trkpt lat="48.99294" lon="2.05764">
        <ele>52.4</ele>
        <time>2022-04-12T08:55:55Z</time>
      </trkpt>
      <trkpt lat="48.9929" lon="2.05766">
        <ele>50.9</ele>
        <time>2022-04-12T08:55:59Z</time>
      </trkpt>
      <trkpt lat="48.99285" lon="2.05768">
        <ele>51.3</ele>
        <time>2022-04-12T08:56:02Z</time>
      </trkpt>
      <trkpt lat="48.9928" lon="2.0577">
        <ele>50.6</ele>
        <time>2022-04-12T08:56:06Z</time>
      </trkpt>
      <trkpt lat="48.99275" lon="2.05775">
        <ele>51</ele>
        <time>2022-04-12T08:56:10Z</time>
      </trkpt>
      <trkpt lat="48.9927" lon="2.05778">
        <ele>52.9</ele>
        <time>2022-04-12T08:56:14Z</time>
      </trkpt>
      <trkpt lat="48.99266" lon="2.05778">
        <ele>53.9</ele>
        <time>2022-04-12T08:56:17Z</time>
      </trkpt>
      <trkpt lat="48.99261" lon="2.05778">
        <ele>51.8</ele>
        <time>2022-04-12T08:56:21Z</time>
      </trkpt>
      <trkpt lat="48.99256" lon="2.0578">
        <ele>50.5</ele>
        <time>2022-04-12T08:56:25Z</time>
      </trkpt>
      <trkpt lat="48.99251" lon="2.05783">
        <ele>51.9</ele>
        <time>2022-04-12T08:56:29Z</time>
      </trkpt>
      <trkpt lat="48.99246" lon="2.05785">
        <ele>50.3</ele>
        <time>2022-04-12T08:56:33Z</time>
      </trkpt>
      <trkpt lat="48.99242" lon="2.0578">
        <ele>49</ele>
        <time>2022-04-12T08:56:38Z</time>
      </trkpt>
      <trkpt lat="48.99241" lon="2.05773">
        <ele>49.1</ele>
        <time>2022-04-12T08:56:42Z</time>
      </trkpt>
      <trkpt lat="48.99242" lon="2.05766">
        <ele>51.4</ele>
        <time>2022-04-12T08:56:47Z</time>
      </trkpt>
      <trkpt lat="48.99245" lon="2.0576">
        <ele>51.8</ele>
        <time>2022-04-12T08:57:32Z</time>
      </trkpt>
      <trkpt lat="48.99249" lon="2.05754">
        <ele>51.8</ele>
        <time>2022-04-12T08:57:37Z</time>
      </trkpt>
      <trkpt lat="48.99252" lon="2.05748">
        <ele>51.2</ele>
        <time>2022-04-12T08:57:41Z</time>
      </trkpt>
      <trkpt lat="48.99252" lon="2.0574">
        <ele>50.3</ele>
        <time>2022-04-12T08:57:47Z</time>
      </trkpt>
      <trkpt lat="48.99254" lon="2.05732">
        <ele>52.7</ele>
        <time>2022-04-12T08:57:52Z</time>
      </trkpt>
      <trkpt lat="48.99256" lon="2.05725">
        <ele>55</ele>
        <time>2022-04-12T08:57:57Z</time>
      </trkpt>
      <trkpt lat="48.99257" lon="2.05717">
        <ele>54.7</ele>
        <time>2022-04-12T08:58:02Z</time>
      </trkpt>
      <trkpt lat="48.99259" lon="2.05709">
        <ele>55.6</ele>
        <time>2022-04-12T08:58:06Z</time>
      </trkpt>
      <trkpt lat="48.9926" lon="2.05701">
        <ele>55.2</ele>
        <time>2022-04-12T08:58:10Z</time>
      </trkpt>
      <trkpt lat="48.9926" lon="2.05695">
        <ele>53.9</ele>
        <time>2022-04-12T08:58:14Z</time>
      </trkpt>
      <trkpt lat="48.9926" lon="2.05688">
        <ele>55.2</ele>
        <time>2022-04-12T08:58:18Z</time>
      </trkpt>
      <trkpt lat="48.99261" lon="2.05679">
        <ele>57.1</ele>
        <time>2022-04-12T08:58:22Z</time>
      </trkpt>
      <trkpt lat="48.99262" lon="2.05671">
        <ele>55.6</ele>
        <time>2022-04-12T08:58:26Z</time>
      </trkpt>
      <trkpt lat="48.99261" lon="2.05664">
        <ele>54.7</ele>
        <time>2022-04-12T08:58:30Z</time>
      </trkpt>
      <trkpt lat="48.99262" lon="2.05656">
        <ele>56.3</ele>
        <time>2022-04-12T08:58:34Z</time>
      </trkpt>
      <trkpt lat="48.99263" lon="2.05649">
        <ele>56.6</ele>
        <time>2022-04-12T08:58:38Z</time>
      </trkpt>
      <trkpt lat="48.99264" lon="2.05642">
        <ele>58.8</ele>
        <time>2022-04-12T08:58:42Z</time>
      </trkpt>
      <trkpt lat="48.99265" lon="2.05634">
        <ele>59.6</ele>
        <time>2022-04-12T08:58:46Z</time>
      </trkpt>
      <trkpt lat="48.99265" lon="2.05626">
        <ele>60</ele>
        <time>2022-04-12T08:58:50Z</time>
      </trkpt>
      <trkpt lat="48.99265" lon="2.05619">
        <ele>60.1</ele>
        <time>2022-04-12T08:58:54Z</time>
      </trkpt>
      <trkpt lat="48.99264" lon="2.0561">
        <ele>60.7</ele>
        <time>2022-04-12T08:58:59Z</time>
      </trkpt>
      <trkpt lat="48.99264" lon="2.05603">
        <ele>61.4</ele>
        <time>2022-04-12T08:59:02Z</time>
      </trkpt>
      <trkpt lat="48.99264" lon="2.05594">
        <ele>61.9</ele>
        <time>2022-04-12T08:59:07Z</time>
      </trkpt>
      <trkpt lat="48.99264" lon="2.05587">
        <ele>62.3</ele>
        <time>2022-04-12T08:59:11Z</time>
      </trkpt>
      <trkpt lat="48.99264" lon="2.05579">
        <ele>61.5</ele>
        <time>2022-04-12T08:59:15Z</time>
      </trkpt>
      <trkpt lat="48.99264" lon="2.05571">
        <ele>62</ele>
        <time>2022-04-12T08:59:19Z</time>
      </trkpt>
      <trkpt lat="48.99264" lon="2.05564">
        <ele>61.5</ele>
        <time>2022-04-12T08:59:23Z</time>
      </trkpt>
      <trkpt lat="48.99264" lon="2.05556">
        <ele>60.6</ele>
        <time>2022-04-12T08:59:27Z</time>
      </trkpt>
      <trkpt lat="48.99264" lon="2.05548">
        <ele>60.3</ele>
        <time>2022-04-12T08:59:31Z</time>
      </trkpt>
      <trkpt lat="48.99263" lon="2.0554">
        <ele>59</ele>
        <time>2022-04-12T08:59:35Z</time>
      </trkpt>
      <trkpt lat="48.99263" lon="2.05532">
        <ele>60</ele>
        <time>2022-04-12T08:59:39Z</time>
      </trkpt>
      <trkpt lat="48.99263" lon="2.05525">
        <ele>60.2</ele>
        <time>2022-04-12T08:59:43Z</time>
      </trkpt>
      <trkpt lat="48.99263" lon="2.05517">
        <ele>62.1</ele>
        <time>2022-04-12T08:59:47Z</time>
      </trkpt>
      <trkpt lat="48.99262" lon="2.0551">
        <ele>62.2</ele>
        <time>2022-04-12T08:59:51Z</time>
      </trkpt>
      <trkpt lat="48.99261" lon="2.05503">
        <ele>61.7</ele>
        <time>2022-04-12T08:59:54Z</time>
      </trkpt>
      <trkpt lat="48.9926" lon="2.05496">
        <ele>61.1</ele>
        <time>2022-04-12T08:59:58Z</time>
      </trkpt>
      <trkpt lat="48.9926" lon="2.05488">
        <ele>61.6</ele>
        <time>2022-04-12T09:00:02Z</time>
      </trkpt>
      <trkpt lat="48.9926" lon="2.05481">
        <ele>62.1</ele>
        <time>2022-04-12T09:00:06Z</time>
      </trkpt>
      <trkpt lat="48.99259" lon="2.05474">
        <ele>62.9</ele>
        <time>2022-04-12T09:00:10Z</time>
      </trkpt>
      <trkpt lat="48.99258" lon="2.05466">
        <ele>64.8</ele>
        <time>2022-04-12T09:00:15Z</time>
      </trkpt>
      <trkpt lat="48.99258" lon="2.05458">
        <ele>63.7</ele>
        <time>2022-04-12T09:00:19Z</time>
      </trkpt>
      <trkpt lat="48.99257" lon="2.05451">
        <ele>60.6</ele>
        <time>2022-04-12T09:00:23Z</time>
      </trkpt>
      <trkpt lat="48.99256" lon="2.05445">
        <ele>59.8</ele>
        <time>2022-04-12T09:00:27Z</time>
      </trkpt>
      <trkpt lat="48.99254" lon="2.05438">
        <ele>61</ele>
        <time>2022-04-12T09:00:31Z</time>
      </trkpt>
      <trkpt lat="48.99253" lon="2.0543">
        <ele>61.7</ele>
        <time>2022-04-12T09:00:36Z</time>
      </trkpt>
      <trkpt lat="48.99253" lon="2.05423">
        <ele>63.4</ele>
        <time>2022-04-12T09:00:40Z</time>
      </trkpt>
      <trkpt lat="48.99252" lon="2.05416">
        <ele>61.2</ele>
        <time>2022-04-12T09:00:44Z</time>
      </trkpt>
      <trkpt lat="48.99251" lon="2.05407">
        <ele>61.4</ele>
        <time>2022-04-12T09:00:49Z</time>
      </trkpt>
      <trkpt lat="48.99251" lon="2.054">
        <ele>63.3</ele>
        <time>2022-04-12T09:00:53Z</time>
      </trkpt>
      <trkpt lat="48.99253" lon="2.05391">
        <ele>62.4</ele>
        <time>2022-04-12T09:00:58Z</time>
      </trkpt>
      <trkpt lat="48.99252" lon="2.05383">
        <ele>62.4</ele>
        <time>2022-04-12T09:01:02Z</time>
      </trkpt>
      <trkpt lat="48.99251" lon="2.05376">
        <ele>62.4</ele>
        <time>2022-04-12T09:01:06Z</time>
      </trkpt>
      <trkpt lat="48.99249" lon="2.05369">
        <ele>63.3</ele>
        <time>2022-04-12T09:01:10Z</time>
      </trkpt>
      <trkpt lat="48.99248" lon="2.05361">
        <ele>62.6</ele>
        <time>2022-04-12T09:01:14Z</time>
      </trkpt>
      <trkpt lat="48.99246" lon="2.05352">
        <ele>64.6</ele>
        <time>2022-04-12T09:01:19Z</time>
      </trkpt>
      <trkpt lat="48.99245" lon="2.05345">
        <ele>62.9</ele>
        <time>2022-04-12T09:01:23Z</time>
      </trkpt>
      <trkpt lat="48.99243" lon="2.05338">
        <ele>63.5</ele>
        <time>2022-04-12T09:01:27Z</time>
      </trkpt>
      <trkpt lat="48.99241" lon="2.05331">
        <ele>63.3</ele>
        <time>2022-04-12T09:01:30Z</time>
      </trkpt>
      <trkpt lat="48.99239" lon="2.05324">
        <ele>63.3</ele>
        <time>2022-04-12T09:01:34Z</time>
      </trkpt>
      <trkpt lat="48.99237" lon="2.05317">
        <ele>64.2</ele>
        <time>2022-04-12T09:01:38Z</time>
      </trkpt>
      <trkpt lat="48.99235" lon="2.05309">
        <ele>64.9</ele>
        <time>2022-04-12T09:01:43Z</time>
      </trkpt>
      <trkpt lat="48.99232" lon="2.05301">
        <ele>65.8</ele>
        <time>2022-04-12T09:01:48Z</time>
      </trkpt>
      <trkpt lat="48.9923" lon="2.05294">
        <ele>65.9</ele>
        <time>2022-04-12T09:01:52Z</time>
      </trkpt>
      <trkpt lat="48.99228" lon="2.05288">
        <ele>65.3</ele>
        <time>2022-04-12T09:01:56Z</time>
      </trkpt>
      <trkpt lat="48.99226" lon="2.05281">
        <ele>64.9</ele>
        <time>2022-04-12T09:02:00Z</time>
      </trkpt>
      <trkpt lat="48.99223" lon="2.05275">
        <ele>64.3</ele>
        <time>2022-04-12T09:02:04Z</time>
      </trkpt>
      <trkpt lat="48.9922" lon="2.05269">
        <ele>64.5</ele>
        <time>2022-04-12T09:02:08Z</time>
      </trkpt>
      <trkpt lat="48.99218" lon="2.05262">
        <ele>64.7</ele>
        <time>2022-04-12T09:02:11Z</time>
      </trkpt>
      <trkpt lat="48.99216" lon="2.05255">
        <ele>65.2</ele>
        <time>2022-04-12T09:02:15Z</time>
      </trkpt>
      <trkpt lat="48.99215" lon="2.05249">
        <ele>65.7</ele>
        <time>2022-04-12T09:02:19Z</time>
      </trkpt>
      <trkpt lat="48.99212" lon="2.0524">
        <ele>65.4</ele>
        <time>2022-04-12T09:02:23Z</time>
      </trkpt>
      <trkpt lat="48.9921" lon="2.05235">
        <ele>65.5</ele>
        <time>2022-04-12T09:02:27Z</time>
      </trkpt>
      <trkpt lat="48.99208" lon="2.05227">
        <ele>66.1</ele>
        <time>2022-04-12T09:02:31Z</time>
      </trkpt>
      <trkpt lat="48.99205" lon="2.0522">
        <ele>65.6</ele>
        <time>2022-04-12T09:02:36Z</time>
      </trkpt>
      <trkpt lat="48.99203" lon="2.05213">
        <ele>66.1</ele>
        <time>2022-04-12T09:02:40Z</time>
      </trkpt>
      <trkpt lat="48.992" lon="2.05206">
        <ele>66.2</ele>
        <time>2022-04-12T09:02:44Z</time>
      </trkpt>
      <trkpt lat="48.99198" lon="2.052">
        <ele>65.4</ele>
        <time>2022-04-12T09:02:48Z</time>
      </trkpt>
      <trkpt lat="48.99196" lon="2.05193">
        <ele>64.8</ele>
        <time>2022-04-12T09:02:52Z</time>
      </trkpt>
      <trkpt lat="48.99193" lon="2.05187">
        <ele>65</ele>
        <time>2022-04-12T09:02:56Z</time>
      </trkpt>
      <trkpt lat="48.9919" lon="2.05179">
        <ele>64.5</ele>
        <time>2022-04-12T09:03:00Z</time>
      </trkpt>
      <trkpt lat="48.99189" lon="2.05172">
        <ele>65.9</ele>
        <time>2022-04-12T09:03:04Z</time>
      </trkpt>
      <trkpt lat="48.99187" lon="2.05166">
        <ele>66.3</ele>
        <time>2022-04-12T09:03:07Z</time>
      </trkpt>
      <trkpt lat="48.99185" lon="2.0516">
        <ele>66.5</ele>
        <time>2022-04-12T09:03:11Z</time>
      </trkpt>
      <trkpt lat="48.99182" lon="2.05152">
        <ele>67.2</ele>
        <time>2022-04-12T09:03:15Z</time>
      </trkpt>
      <trkpt lat="48.99179" lon="2.05146">
        <ele>67.9</ele>
        <time>2022-04-12T09:03:19Z</time>
      </trkpt>
      <trkpt lat="48.99177" lon="2.05139">
        <ele>68</ele>
        <time>2022-04-12T09:03:23Z</time>
      </trkpt>
      <trkpt lat="48.99175" lon="2.05132">
        <ele>69.7</ele>
        <time>2022-04-12T09:03:27Z</time>
      </trkpt>
      <trkpt lat="48.99172" lon="2.05123">
        <ele>71.3</ele>
        <time>2022-04-12T09:03:32Z</time>
      </trkpt>
      <trkpt lat="48.9917" lon="2.05114">
        <ele>71</ele>
        <time>2022-04-12T09:03:37Z</time>
      </trkpt>
      <trkpt lat="48.99168" lon="2.05108">
        <ele>71.4</ele>
        <time>2022-04-12T09:03:41Z</time>
      </trkpt>
      <trkpt lat="48.99165" lon="2.05101">
        <ele>72.2</ele>
        <time>2022-04-12T09:03:45Z</time>
      </trkpt>
      <trkpt lat="48.99162" lon="2.05095">
        <ele>72.9</ele>
        <time>2022-04-12T09:03:49Z</time>
      </trkpt>
      <trkpt lat="48.9916" lon="2.05089">
        <ele>72.9</ele>
        <time>2022-04-12T09:03:53Z</time>
      </trkpt>
      <trkpt lat="48.99158" lon="2.0508">
        <ele>72.9</ele>
        <time>2022-04-12T09:03:58Z</time>
      </trkpt>
      <trkpt lat="48.99155" lon="2.05073">
        <ele>74.1</ele>
        <time>2022-04-12T09:04:02Z</time>
      </trkpt>
      <trkpt lat="48.99152" lon="2.05065">
        <ele>73.8</ele>
        <time>2022-04-12T09:04:07Z</time>
      </trkpt>
      <trkpt lat="48.9915" lon="2.05058">
        <ele>74.3</ele>
        <time>2022-04-12T09:04:11Z</time>
      </trkpt>
      <trkpt lat="48.99149" lon="2.05051">
        <ele>74.4</ele>
        <time>2022-04-12T09:04:15Z</time>
      </trkpt>
      <trkpt lat="48.99147" lon="2.05044">
        <ele>74.7</ele>
        <time>2022-04-12T09:04:19Z</time>
      </trkpt>
      <trkpt lat="48.99144" lon="2.05035">
        <ele>74.9</ele>
        <time>2022-04-12T09:04:24Z</time>
      </trkpt>
      <trkpt lat="48.99142" lon="2.0503">
        <ele>75.8</ele>
        <time>2022-04-12T09:04:28Z</time>
      </trkpt>
      <trkpt lat="48.99139" lon="2.05023">
        <ele>75.1</ele>
        <time>2022-04-12T09:04:32Z</time>
      </trkpt>
      <trkpt lat="48.99136" lon="2.05016">
        <ele>75.1</ele>
        <time>2022-04-12T09:04:37Z</time>
      </trkpt>
      <trkpt lat="48.99133" lon="2.0501">
        <ele>75</ele>
        <time>2022-04-12T09:04:41Z</time>
      </trkpt>
      <trkpt lat="48.9913" lon="2.05001">
        <ele>74.8</ele>
        <time>2022-04-12T09:04:46Z</time>
      </trkpt>
      <trkpt lat="48.99128" lon="2.04995">
        <ele>76.2</ele>
        <time>2022-04-12T09:04:50Z</time>
      </trkpt>
      <trkpt lat="48.99125" lon="2.04988">
        <ele>76.6</ele>
        <time>2022-04-12T09:04:55Z</time>
      </trkpt>
      <trkpt lat="48.99124" lon="2.04981">
        <ele>77.3</ele>
        <time>2022-04-12T09:04:59Z</time>
      </trkpt>
      <trkpt lat="48.99123" lon="2.04974">
        <ele>77.7</ele>
        <time>2022-04-12T09:05:03Z</time>
      </trkpt>
      <trkpt lat="48.99121" lon="2.04967">
        <ele>78</ele>
        <time>2022-04-12T09:05:09Z</time>
      </trkpt>
      <trkpt lat="48.99119" lon="2.0496">
        <ele>77.5</ele>
        <time>2022-04-12T09:05:13Z</time>
      </trkpt>
      <trkpt lat="48.99117" lon="2.04952">
        <ele>76.7</ele>
        <time>2022-04-12T09:05:18Z</time>
      </trkpt>
      <trkpt lat="48.99115" lon="2.04944">
        <ele>77</ele>
        <time>2022-04-12T09:05:23Z</time>
      </trkpt>
      <trkpt lat="48.99113" lon="2.04937">
        <ele>79.1</ele>
        <time>2022-04-12T09:05:27Z</time>
      </trkpt>
      <trkpt lat="48.99112" lon="2.04929">
        <ele>79.7</ele>
        <time>2022-04-12T09:05:32Z</time>
      </trkpt>
      <trkpt lat="48.99111" lon="2.04921">
        <ele>79.9</ele>
        <time>2022-04-12T09:05:36Z</time>
      </trkpt>
      <trkpt lat="48.99109" lon="2.04914">
        <ele>79.7</ele>
        <time>2022-04-12T09:05:40Z</time>
      </trkpt>
      <trkpt lat="48.99107" lon="2.04908">
        <ele>79.6</ele>
        <time>2022-04-12T09:05:44Z</time>
      </trkpt>
      <trkpt lat="48.99105" lon="2.04901">
        <ele>79.9</ele>
        <time>2022-04-12T09:05:48Z</time>
      </trkpt>
      <trkpt lat="48.99102" lon="2.04892">
        <ele>79.6</ele>
        <time>2022-04-12T09:05:53Z</time>
      </trkpt>
      <trkpt lat="48.991" lon="2.04883">
        <ele>81.3</ele>
        <time>2022-04-12T09:05:58Z</time>
      </trkpt>
      <trkpt lat="48.99098" lon="2.04876">
        <ele>84.1</ele>
        <time>2022-04-12T09:06:02Z</time>
      </trkpt>
      <trkpt lat="48.99096" lon="2.04869">
        <ele>85.4</ele>
        <time>2022-04-12T09:06:06Z</time>
      </trkpt>
      <trkpt lat="48.99096" lon="2.04861">
        <ele>87.3</ele>
        <time>2022-04-12T09:06:11Z</time>
      </trkpt>
      <trkpt lat="48.99096" lon="2.04852">
        <ele>85.5</ele>
        <time>2022-04-12T09:06:15Z</time>
      </trkpt>
      <trkpt lat="48.99094" lon="2.04844">
        <ele>85</ele>
        <time>2022-04-12T09:06:20Z</time>
      </trkpt>
      <trkpt lat="48.99093" lon="2.04836">
        <ele>85</ele>
        <time>2022-04-12T09:06:24Z</time>
      </trkpt>
      <trkpt lat="48.99091" lon="2.04829">
        <ele>85.2</ele>
        <time>2022-04-12T09:06:28Z</time>
      </trkpt>
      <trkpt lat="48.99093" lon="2.04824">
        <ele>87.4</ele>
        <time>2022-04-12T09:08:42Z</time>
      </trkpt>
      <trkpt lat="48.99092" lon="2.04815">
        <ele>88.9</ele>
        <time>2022-04-12T09:08:49Z</time>
      </trkpt>
      <trkpt lat="48.99089" lon="2.04809">
        <ele>85.6</ele>
        <time>2022-04-12T09:08:53Z</time>
      </trkpt>
      <trkpt lat="48.99085" lon="2.04805">
        <ele>84.6</ele>
        <time>2022-04-12T09:08:56Z</time>
      </trkpt>
      <trkpt lat="48.99082" lon="2.04798">
        <ele>85</ele>
        <time>2022-04-12T09:09:02Z</time>
      </trkpt>
      <trkpt lat="48.99081" lon="2.04791">
        <ele>85.2</ele>
        <time>2022-04-12T09:09:07Z</time>
      </trkpt>
      <trkpt lat="48.99079" lon="2.04784">
        <ele>83.9</ele>
        <time>2022-04-12T09:09:11Z</time>
      </trkpt>
      <trkpt lat="48.99077" lon="2.04778">
        <ele>85.8</ele>
        <time>2022-04-12T09:09:16Z</time>
      </trkpt>
      <trkpt lat="48.99076" lon="2.0477">
        <ele>88.9</ele>
        <time>2022-04-12T09:09:20Z</time>
      </trkpt>
      <trkpt lat="48.99073" lon="2.04764">
        <ele>90.3</ele>
        <time>2022-04-12T09:09:25Z</time>
      </trkpt>
      <trkpt lat="48.9907" lon="2.04758">
        <ele>92.5</ele>
        <time>2022-04-12T09:09:29Z</time>
      </trkpt>
      <trkpt lat="48.99067" lon="2.04752">
        <ele>90.2</ele>
        <time>2022-04-12T09:09:35Z</time>
      </trkpt>
      <trkpt lat="48.99064" lon="2.04745">
        <ele>90.3</ele>
        <time>2022-04-12T09:09:40Z</time>
      </trkpt>
      <trkpt lat="48.99061" lon="2.04739">
        <ele>91.9</ele>
        <time>2022-04-12T09:09:46Z</time>
      </trkpt>
      <trkpt lat="48.99058" lon="2.04731">
        <ele>90.5</ele>
        <time>2022-04-12T09:09:51Z</time>
      </trkpt>
      <trkpt lat="48.99056" lon="2.04725">
        <ele>91</ele>
        <time>2022-04-12T09:09:55Z</time>
      </trkpt>
      <trkpt lat="48.99054" lon="2.04718">
        <ele>91.1</ele>
        <time>2022-04-12T09:09:59Z</time>
      </trkpt>
      <trkpt lat="48.99051" lon="2.04711">
        <ele>91.6</ele>
        <time>2022-04-12T09:10:04Z</time>
      </trkpt>
      <trkpt lat="48.99049" lon="2.04703">
        <ele>91.5</ele>
        <time>2022-04-12T09:10:09Z</time>
      </trkpt>
      <trkpt lat="48.99045" lon="2.04696">
        <ele>90.8</ele>
        <time>2022-04-12T09:10:14Z</time>
      </trkpt>
      <trkpt lat="48.99043" lon="2.04688">
        <ele>92</ele>
        <time>2022-04-12T09:10:18Z</time>
      </trkpt>
      <trkpt lat="48.99042" lon="2.04682">
        <ele>91.5</ele>
        <time>2022-04-12T09:10:22Z</time>
      </trkpt>
      <trkpt lat="48.99039" lon="2.04675">
        <ele>90.9</ele>
        <time>2022-04-12T09:10:26Z</time>
      </trkpt>
      <trkpt lat="48.99037" lon="2.04667">
        <ele>91.4</ele>
        <time>2022-04-12T09:10:30Z</time>
      </trkpt>
      <trkpt lat="48.99036" lon="2.04658">
        <ele>93.3</ele>
        <time>2022-04-12T09:10:35Z</time>
      </trkpt>
      <trkpt lat="48.99035" lon="2.04651">
        <ele>94.5</ele>
        <time>2022-04-12T09:10:38Z</time>
      </trkpt>
      <trkpt lat="48.99034" lon="2.04642">
        <ele>94.2</ele>
        <time>2022-04-12T09:10:43Z</time>
      </trkpt>
      <trkpt lat="48.99033" lon="2.04634">
        <ele>94.1</ele>
        <time>2022-04-12T09:10:47Z</time>
      </trkpt>
      <trkpt lat="48.99031" lon="2.04627">
        <ele>94.3</ele>
        <time>2022-04-12T09:10:51Z</time>
      </trkpt>
      <trkpt lat="48.9903" lon="2.0462">
        <ele>94.4</ele>
        <time>2022-04-12T09:10:55Z</time>
      </trkpt>
      <trkpt lat="48.99028" lon="2.04612">
        <ele>93.9</ele>
        <time>2022-04-12T09:10:59Z</time>
      </trkpt>
      <trkpt lat="48.99027" lon="2.04605">
        <ele>95.5</ele>
        <time>2022-04-12T09:11:03Z</time>
      </trkpt>
      <trkpt lat="48.99026" lon="2.04597">
        <ele>95</ele>
        <time>2022-04-12T09:11:07Z</time>
      </trkpt>
      <trkpt lat="48.99023" lon="2.0459">
        <ele>95.4</ele>
        <time>2022-04-12T09:11:11Z</time>
      </trkpt>
      <trkpt lat="48.99021" lon="2.04582">
        <ele>95.1</ele>
        <time>2022-04-12T09:11:15Z</time>
      </trkpt>
      <trkpt lat="48.9902" lon="2.04576">
        <ele>95.4</ele>
        <time>2022-04-12T09:11:18Z</time>
      </trkpt>
      <trkpt lat="48.99019" lon="2.04569">
        <ele>96.9</ele>
        <time>2022-04-12T09:11:22Z</time>
      </trkpt>
      <trkpt lat="48.99019" lon="2.04561">
        <ele>97.7</ele>
        <time>2022-04-12T09:11:26Z</time>
      </trkpt>
      <trkpt lat="48.99017" lon="2.04553">
        <ele>97.4</ele>
        <time>2022-04-12T09:11:30Z</time>
      </trkpt>
      <trkpt lat="48.99015" lon="2.04546">
        <ele>97.9</ele>
        <time>2022-04-12T09:11:34Z</time>
      </trkpt>
      <trkpt lat="48.99013" lon="2.04538">
        <ele>97.5</ele>
        <time>2022-04-12T09:11:39Z</time>
      </trkpt>
      <trkpt lat="48.99011" lon="2.0453">
        <ele>96.1</ele>
        <time>2022-04-12T09:11:43Z</time>
      </trkpt>
      <trkpt lat="48.99009" lon="2.04521">
        <ele>97.5</ele>
        <time>2022-04-12T09:11:48Z</time>
      </trkpt>
      <trkpt lat="48.99008" lon="2.04513">
        <ele>96</ele>
        <time>2022-04-12T09:11:52Z</time>
      </trkpt>
      <trkpt lat="48.99007" lon="2.04505">
        <ele>95.2</ele>
        <time>2022-04-12T09:11:56Z</time>
      </trkpt>
      <trkpt lat="48.99005" lon="2.04498">
        <ele>95.3</ele>
        <time>2022-04-12T09:11:59Z</time>
      </trkpt>
      <trkpt lat="48.99004" lon="2.04491">
        <ele>93.9</ele>
        <time>2022-04-12T09:12:03Z</time>
      </trkpt>
      <trkpt lat="48.99002" lon="2.04484">
        <ele>93.3</ele>
        <time>2022-04-12T09:12:07Z</time>
      </trkpt>
      <trkpt lat="48.99" lon="2.04477">
        <ele>94.6</ele>
        <time>2022-04-12T09:12:11Z</time>
      </trkpt>
      <trkpt lat="48.98999" lon="2.04469">
        <ele>96.2</ele>
        <time>2022-04-12T09:12:15Z</time>
      </trkpt>
      <trkpt lat="48.98997" lon="2.0446">
        <ele>94.3</ele>
        <time>2022-04-12T09:12:20Z</time>
      </trkpt>
      <trkpt lat="48.98996" lon="2.04451">
        <ele>94.2</ele>
        <time>2022-04-12T09:12:24Z</time>
      </trkpt>
      <trkpt lat="48.98995" lon="2.04443">
        <ele>95</ele>
        <time>2022-04-12T09:12:29Z</time>
      </trkpt>
      <trkpt lat="48.98994" lon="2.04435">
        <ele>94.2</ele>
        <time>2022-04-12T09:12:33Z</time>
      </trkpt>
      <trkpt lat="48.98993" lon="2.04428">
        <ele>95.5</ele>
        <time>2022-04-12T09:12:36Z</time>
      </trkpt>
      <trkpt lat="48.98992" lon="2.0442">
        <ele>94.3</ele>
        <time>2022-04-12T09:12:40Z</time>
      </trkpt>
      <trkpt lat="48.98991" lon="2.04411">
        <ele>93.2</ele>
        <time>2022-04-12T09:12:45Z</time>
      </trkpt>
      <trkpt lat="48.9899" lon="2.04403">
        <ele>93.4</ele>
        <time>2022-04-12T09:12:49Z</time>
      </trkpt>
      <trkpt lat="48.98989" lon="2.04395">
        <ele>93.5</ele>
        <time>2022-04-12T09:12:53Z</time>
      </trkpt>
      <trkpt lat="48.98988" lon="2.04388">
        <ele>94.3</ele>
        <time>2022-04-12T09:12:57Z</time>
      </trkpt>
      <trkpt lat="48.98987" lon="2.04381">
        <ele>93.6</ele>
        <time>2022-04-12T09:13:01Z</time>
      </trkpt>
      <trkpt lat="48.98985" lon="2.04374">
        <ele>93.4</ele>
        <time>2022-04-12T09:13:04Z</time>
      </trkpt>
      <trkpt lat="48.98983" lon="2.04367">
        <ele>93.4</ele>
        <time>2022-04-12T09:13:08Z</time>
      </trkpt>
      <trkpt lat="48.98982" lon="2.0436">
        <ele>93.5</ele>
        <time>2022-04-12T09:13:12Z</time>
      </trkpt>
      <trkpt lat="48.98981" lon="2.04353">
        <ele>93.6</ele>
        <time>2022-04-12T09:13:16Z</time>
      </trkpt>
      <trkpt lat="48.98979" lon="2.04345">
        <ele>94.8</ele>
        <time>2022-04-12T09:13:20Z</time>
      </trkpt>
      <trkpt lat="48.98979" lon="2.04337">
        <ele>94.4</ele>
        <time>2022-04-12T09:13:24Z</time>
      </trkpt>
      <trkpt lat="48.98977" lon="2.0433">
        <ele>94.8</ele>
        <time>2022-04-12T09:13:28Z</time>
      </trkpt>
      <trkpt lat="48.98975" lon="2.04323">
        <ele>94.7</ele>
        <time>2022-04-12T09:13:32Z</time>
      </trkpt>
      <trkpt lat="48.98974" lon="2.04315">
        <ele>94.9</ele>
        <time>2022-04-12T09:13:36Z</time>
      </trkpt>
      <trkpt lat="48.98973" lon="2.04308">
        <ele>95.2</ele>
        <time>2022-04-12T09:13:40Z</time>
      </trkpt>
      <trkpt lat="48.98972" lon="2.04301">
        <ele>95.8</ele>
        <time>2022-04-12T09:13:43Z</time>
      </trkpt>
      <trkpt lat="48.9897" lon="2.04293">
        <ele>96.3</ele>
        <time>2022-04-12T09:13:48Z</time>
      </trkpt>
      <trkpt lat="48.98969" lon="2.04285">
        <ele>96.8</ele>
        <time>2022-04-12T09:13:52Z</time>
      </trkpt>
      <trkpt lat="48.98968" lon="2.04276">
        <ele>97</ele>
        <time>2022-04-12T09:13:57Z</time>
      </trkpt>
      <trkpt lat="48.98967" lon="2.04269">
        <ele>97.3</ele>
        <time>2022-04-12T09:14:01Z</time>
      </trkpt>
      <trkpt lat="48.98965" lon="2.04261">
        <ele>97</ele>
        <time>2022-04-12T09:14:05Z</time>
      </trkpt>
      <trkpt lat="48.98963" lon="2.04254">
        <ele>97</ele>
        <time>2022-04-12T09:14:09Z</time>
      </trkpt>
      <trkpt lat="48.98962" lon="2.04247">
        <ele>97.6</ele>
        <time>2022-04-12T09:14:14Z</time>
      </trkpt>
      <trkpt lat="48.9896" lon="2.04237">
        <ele>96.9</ele>
        <time>2022-04-12T09:14:19Z</time>
      </trkpt>
      <trkpt lat="48.9896" lon="2.04231">
        <ele>97</ele>
        <time>2022-04-12T09:14:22Z</time>
      </trkpt>
      <trkpt lat="48.98958" lon="2.04223">
        <ele>97.3</ele>
        <time>2022-04-12T09:14:27Z</time>
      </trkpt>
      <trkpt lat="48.98957" lon="2.04216">
        <ele>97.7</ele>
        <time>2022-04-12T09:14:31Z</time>
      </trkpt>
      <trkpt lat="48.98955" lon="2.04209">
        <ele>98.4</ele>
        <time>2022-04-12T09:14:35Z</time>
      </trkpt>
      <trkpt lat="48.98954" lon="2.04202">
        <ele>98.9</ele>
        <time>2022-04-12T09:14:38Z</time>
      </trkpt>
      <trkpt lat="48.98952" lon="2.04193">
        <ele>99.4</ele>
        <time>2022-04-12T09:14:43Z</time>
      </trkpt>
      <trkpt lat="48.98951" lon="2.04186">
        <ele>99.6</ele>
        <time>2022-04-12T09:14:47Z</time>
      </trkpt>
      <trkpt lat="48.9895" lon="2.04177">
        <ele>100.8</ele>
        <time>2022-04-12T09:14:51Z</time>
      </trkpt>
      <trkpt lat="48.9895" lon="2.0417">
        <ele>101.2</ele>
        <time>2022-04-12T09:14:55Z</time>
      </trkpt>
      <trkpt lat="48.98949" lon="2.04162">
        <ele>102.5</ele>
        <time>2022-04-12T09:15:00Z</time>
      </trkpt>
      <trkpt lat="48.98948" lon="2.04155">
        <ele>102.5</ele>
        <time>2022-04-12T09:15:04Z</time>
      </trkpt>
      <trkpt lat="48.98946" lon="2.04147">
        <ele>102.3</ele>
        <time>2022-04-12T09:15:08Z</time>
      </trkpt>
      <trkpt lat="48.98945" lon="2.04141">
        <ele>102.9</ele>
        <time>2022-04-12T09:15:13Z</time>
      </trkpt>
      <trkpt lat="48.98943" lon="2.04134">
        <ele>102</ele>
        <time>2022-04-12T09:15:17Z</time>
      </trkpt>
      <trkpt lat="48.98942" lon="2.04126">
        <ele>101.8</ele>
        <time>2022-04-12T09:15:22Z</time>
      </trkpt>
      <trkpt lat="48.9894" lon="2.04119">
        <ele>102.6</ele>
        <time>2022-04-12T09:15:26Z</time>
      </trkpt>
      <trkpt lat="48.9894" lon="2.0411">
        <ele>103.1</ele>
        <time>2022-04-12T09:15:31Z</time>
      </trkpt>
      <trkpt lat="48.98939" lon="2.04103">
        <ele>103.4</ele>
        <time>2022-04-12T09:15:34Z</time>
      </trkpt>
      <trkpt lat="48.98938" lon="2.04096">
        <ele>104.4</ele>
        <time>2022-04-12T09:15:38Z</time>
      </trkpt>
      <trkpt lat="48.98937" lon="2.04087">
        <ele>103.8</ele>
        <time>2022-04-12T09:15:42Z</time>
      </trkpt>
      <trkpt lat="48.98936" lon="2.0408">
        <ele>103</ele>
        <time>2022-04-12T09:15:46Z</time>
      </trkpt>
      <trkpt lat="48.98934" lon="2.04072">
        <ele>103.1</ele>
        <time>2022-04-12T09:15:51Z</time>
      </trkpt>
      <trkpt lat="48.98933" lon="2.04063">
        <ele>102.9</ele>
        <time>2022-04-12T09:15:56Z</time>
      </trkpt>
      <trkpt lat="48.98931" lon="2.04056">
        <ele>101.9</ele>
        <time>2022-04-12T09:16:00Z</time>
      </trkpt>
      <trkpt lat="48.9893" lon="2.04048">
        <ele>101.7</ele>
        <time>2022-04-12T09:16:04Z</time>
      </trkpt>
      <trkpt lat="48.98929" lon="2.0404">
        <ele>101.3</ele>
        <time>2022-04-12T09:16:08Z</time>
      </trkpt>
      <trkpt lat="48.98927" lon="2.04032">
        <ele>101.6</ele>
        <time>2022-04-12T09:16:13Z</time>
      </trkpt>
      <trkpt lat="48.98925" lon="2.04024">
        <ele>101.7</ele>
        <time>2022-04-12T09:16:17Z</time>
      </trkpt>
      <trkpt lat="48.98924" lon="2.04015">
        <ele>101.6</ele>
        <time>2022-04-12T09:16:22Z</time>
      </trkpt>
      <trkpt lat="48.98924" lon="2.04006">
        <ele>102.5</ele>
        <time>2022-04-12T09:16:26Z</time>
      </trkpt>
      <trkpt lat="48.98925" lon="2.03999">
        <ele>102.2</ele>
        <time>2022-04-12T09:16:30Z</time>
      </trkpt>
      <trkpt lat="48.98926" lon="2.03992">
        <ele>102.3</ele>
        <time>2022-04-12T09:16:34Z</time>
      </trkpt>
      <trkpt lat="48.98927" lon="2.03984">
        <ele>102.1</ele>
        <time>2022-04-12T09:16:38Z</time>
      </trkpt>
      <trkpt lat="48.98929" lon="2.03976">
        <ele>101.9</ele>
        <time>2022-04-12T09:16:42Z</time>
      </trkpt>
      <trkpt lat="48.9893" lon="2.03969">
        <ele>100.9</ele>
        <time>2022-04-12T09:16:46Z</time>
      </trkpt>
      <trkpt lat="48.98931" lon="2.0396">
        <ele>99.9</ele>
        <time>2022-04-12T09:16:51Z</time>
      </trkpt>
      <trkpt lat="48.98933" lon="2.03951">
        <ele>98.8</ele>
        <time>2022-04-12T09:16:56Z</time>
      </trkpt>
      <trkpt lat="48.98933" lon="2.03943">
        <ele>97.4</ele>
        <time>2022-04-12T09:17:00Z</time>
      </trkpt>
      <trkpt lat="48.98935" lon="2.03935">
        <ele>98.4</ele>
        <time>2022-04-12T09:17:05Z</time>
      </trkpt>
      <trkpt lat="48.98937" lon="2.03928">
        <ele>99.4</ele>
        <time>2022-04-12T09:17:09Z</time>
      </trkpt>
      <trkpt lat="48.98939" lon="2.03919">
        <ele>98.4</ele>
        <time>2022-04-12T09:17:13Z</time>
      </trkpt>
      <trkpt lat="48.9894" lon="2.03912">
        <ele>97</ele>
        <time>2022-04-12T09:17:18Z</time>
      </trkpt>
      <trkpt lat="48.98942" lon="2.03904">
        <ele>96.9</ele>
        <time>2022-04-12T09:17:22Z</time>
      </trkpt>
      <trkpt lat="48.98945" lon="2.03897">
        <ele>97.1</ele>
        <time>2022-04-12T09:17:27Z</time>
      </trkpt>
      <trkpt lat="48.98948" lon="2.0389">
        <ele>97.8</ele>
        <time>2022-04-12T09:17:31Z</time>
      </trkpt>
      <trkpt lat="48.98952" lon="2.03884">
        <ele>98.5</ele>
        <time>2022-04-12T09:17:36Z</time>
      </trkpt>
      <trkpt lat="48.98955" lon="2.03878">
        <ele>97.9</ele>
        <time>2022-04-12T09:17:40Z</time>
      </trkpt>
      <trkpt lat="48.98958" lon="2.03872">
        <ele>97.5</ele>
        <time>2022-04-12T09:17:44Z</time>
      </trkpt>
      <trkpt lat="48.9896" lon="2.03866">
        <ele>98.5</ele>
        <time>2022-04-12T09:17:48Z</time>
      </trkpt>
      <trkpt lat="48.98963" lon="2.0386">
        <ele>98.4</ele>
        <time>2022-04-12T09:17:53Z</time>
      </trkpt>
      <trkpt lat="48.98965" lon="2.03853">
        <ele>98.1</ele>
        <time>2022-04-12T09:17:57Z</time>
      </trkpt>
      <trkpt lat="48.9897" lon="2.0385">
        <ele>99</ele>
        <time>2022-04-12T09:18:02Z</time>
      </trkpt>
      <trkpt lat="48.98973" lon="2.03844">
        <ele>98.3</ele>
        <time>2022-04-12T09:18:06Z</time>
      </trkpt>
      <trkpt lat="48.98975" lon="2.03838">
        <ele>98.1</ele>
        <time>2022-04-12T09:18:10Z</time>
      </trkpt>
      <trkpt lat="48.98977" lon="2.03831">
        <ele>97.2</ele>
        <time>2022-04-12T09:18:15Z</time>
      </trkpt>
      <trkpt lat="48.9898" lon="2.03825">
        <ele>100</ele>
        <time>2022-04-12T09:18:19Z</time>
      </trkpt>
      <trkpt lat="48.98984" lon="2.0382">
        <ele>101.2</ele>
        <time>2022-04-12T09:18:24Z</time>
      </trkpt>
      <trkpt lat="48.98986" lon="2.03813">
        <ele>100.3</ele>
        <time>2022-04-12T09:18:31Z</time>
      </trkpt>
      <trkpt lat="48.98987" lon="2.03806">
        <ele>101.4</ele>
        <time>2022-04-12T09:18:37Z</time>
      </trkpt>
      <trkpt lat="48.98988" lon="2.03797">
        <ele>98.7</ele>
        <time>2022-04-12T09:18:42Z</time>
      </trkpt>
      <trkpt lat="48.98988" lon="2.0379">
        <ele>98</ele>
        <time>2022-04-12T09:18:47Z</time>
      </trkpt>
      <trkpt lat="48.98988" lon="2.03782">
        <ele>98.8</ele>
        <time>2022-04-12T09:18:52Z</time>
      </trkpt>
      <trkpt lat="48.9899" lon="2.03774">
        <ele>96</ele>
        <time>2022-04-12T09:18:57Z</time>
      </trkpt>
      <trkpt lat="48.98992" lon="2.03767">
        <ele>96.9</ele>
        <time>2022-04-12T09:19:02Z</time>
      </trkpt>
      <trkpt lat="48.98992" lon="2.0376">
        <ele>95.8</ele>
        <time>2022-04-12T09:19:06Z</time>
      </trkpt>
      <trkpt lat="48.98995" lon="2.03753">
        <ele>95.7</ele>
        <time>2022-04-12T09:19:11Z</time>
      </trkpt>
      <trkpt lat="48.98997" lon="2.03746">
        <ele>95.4</ele>
        <time>2022-04-12T09:19:15Z</time>
      </trkpt>
      <trkpt lat="48.98998" lon="2.03739">
        <ele>94.7</ele>
        <time>2022-04-12T09:19:20Z</time>
      </trkpt>
      <trkpt lat="48.98998" lon="2.03731">
        <ele>96.4</ele>
        <time>2022-04-12T09:19:25Z</time>
      </trkpt>
      <trkpt lat="48.98999" lon="2.03723">
        <ele>96.6</ele>
        <time>2022-04-12T09:19:30Z</time>
      </trkpt>
      <trkpt lat="48.99" lon="2.03716">
        <ele>95.3</ele>
        <time>2022-04-12T09:19:34Z</time>
      </trkpt>
      <trkpt lat="48.99001" lon="2.03709">
        <ele>95.5</ele>
        <time>2022-04-12T09:19:38Z</time>
      </trkpt>
      <trkpt lat="48.99004" lon="2.03702">
        <ele>97.2</ele>
        <time>2022-04-12T09:19:43Z</time>
      </trkpt>
      <trkpt lat="48.99006" lon="2.03696">
        <ele>95.8</ele>
        <time>2022-04-12T09:19:47Z</time>
      </trkpt>
      <trkpt lat="48.99008" lon="2.03688">
        <ele>97.3</ele>
        <time>2022-04-12T09:19:52Z</time>
      </trkpt>
      <trkpt lat="48.99009" lon="2.0368">
        <ele>97.2</ele>
        <time>2022-04-12T09:19:56Z</time>
      </trkpt>
      <trkpt lat="48.99011" lon="2.03671">
        <ele>97.7</ele>
        <time>2022-04-12T09:20:02Z</time>
      </trkpt>
      <trkpt lat="48.99012" lon="2.03665">
        <ele>99.2</ele>
        <time>2022-04-12T09:20:06Z</time>
      </trkpt>
      <trkpt lat="48.99014" lon="2.03655">
        <ele>97.8</ele>
        <time>2022-04-12T09:20:12Z</time>
      </trkpt>
      <trkpt lat="48.99015" lon="2.03649">
        <ele>98.2</ele>
        <time>2022-04-12T09:20:16Z</time>
      </trkpt>
      <trkpt lat="48.99017" lon="2.03641">
        <ele>99.5</ele>
        <time>2022-04-12T09:20:20Z</time>
      </trkpt>
      <trkpt lat="48.99019" lon="2.03634">
        <ele>98.5</ele>
        <time>2022-04-12T09:20:26Z</time>
      </trkpt>
      <trkpt lat="48.99022" lon="2.03628">
        <ele>99.7</ele>
        <time>2022-04-12T09:20:30Z</time>
      </trkpt>
      <trkpt lat="48.99024" lon="2.03621">
        <ele>101.2</ele>
        <time>2022-04-12T09:20:35Z</time>
      </trkpt>
      <trkpt lat="48.99026" lon="2.03614">
        <ele>101.4</ele>
        <time>2022-04-12T09:20:39Z</time>
      </trkpt>
      <trkpt lat="48.99027" lon="2.03606">
        <ele>101.4</ele>
        <time>2022-04-12T09:20:44Z</time>
      </trkpt>
      <trkpt lat="48.99027" lon="2.03599">
        <ele>101</ele>
        <time>2022-04-12T09:20:48Z</time>
      </trkpt>
      <trkpt lat="48.99028" lon="2.03592">
        <ele>102.9</ele>
        <time>2022-04-12T09:20:53Z</time>
      </trkpt>
      <trkpt lat="48.99029" lon="2.03584">
        <ele>102.5</ele>
        <time>2022-04-12T09:20:58Z</time>
      </trkpt>
      <trkpt lat="48.99031" lon="2.03576">
        <ele>105.8</ele>
        <time>2022-04-12T09:21:02Z</time>
      </trkpt>
      <trkpt lat="48.99032" lon="2.0357">
        <ele>106.9</ele>
        <time>2022-04-12T09:21:07Z</time>
      </trkpt>
      <trkpt lat="48.99034" lon="2.03563">
        <ele>107.9</ele>
        <time>2022-04-12T09:21:11Z</time>
      </trkpt>
      <trkpt lat="48.99035" lon="2.03555">
        <ele>107.7</ele>
        <time>2022-04-12T09:21:16Z</time>
      </trkpt>
      <trkpt lat="48.99033" lon="2.03549">
        <ele>106.4</ele>
        <time>2022-04-12T09:21:21Z</time>
      </trkpt>
      <trkpt lat="48.9903" lon="2.03542">
        <ele>105.4</ele>
        <time>2022-04-12T09:21:26Z</time>
      </trkpt>
      <trkpt lat="48.99027" lon="2.03536">
        <ele>102.6</ele>
        <time>2022-04-12T09:21:31Z</time>
      </trkpt>
      <trkpt lat="48.99025" lon="2.0353">
        <ele>104</ele>
        <time>2022-04-12T09:25:27Z</time>
      </trkpt>
      <trkpt lat="48.99024" lon="2.03536">
        <ele>105.3</ele>
        <time>2022-04-12T09:26:30Z</time>
      </trkpt>
      <trkpt lat="48.9902" lon="2.03542">
        <ele>106.7</ele>
        <time>2022-04-12T09:29:19Z</time>
      </trkpt>
      <trkpt lat="48.99014" lon="2.03539">
        <ele>105</ele>
        <time>2022-04-12T09:29:24Z</time>
      </trkpt>
      <trkpt lat="48.9901" lon="2.03535">
        <ele>104.7</ele>
        <time>2022-04-12T09:29:28Z</time>
      </trkpt>
      <trkpt lat="48.99006" lon="2.03532">
        <ele>105.9</ele>
        <time>2022-04-12T09:29:33Z</time>
      </trkpt>
      <trkpt lat="48.99001" lon="2.0353">
        <ele>108.5</ele>
        <time>2022-04-12T09:29:38Z</time>
      </trkpt>
      <trkpt lat="48.98996" lon="2.03528">
        <ele>106.8</ele>
        <time>2022-04-12T09:29:53Z</time>
      </trkpt>
      <trkpt lat="48.98991" lon="2.03524">
        <ele>108.2</ele>
        <time>2022-04-12T09:29:57Z</time>
      </trkpt>
      <trkpt lat="48.98986" lon="2.03522">
        <ele>109.3</ele>
        <time>2022-04-12T09:30:02Z</time>
      </trkpt>
      <trkpt lat="48.98982" lon="2.0352">
        <ele>109.3</ele>
        <time>2022-04-12T09:30:07Z</time>
      </trkpt>
      <trkpt lat="48.98977" lon="2.03517">
        <ele>109.5</ele>
        <time>2022-04-12T09:30:11Z</time>
      </trkpt>
      <trkpt lat="48.98972" lon="2.03515">
        <ele>108.5</ele>
        <time>2022-04-12T09:30:15Z</time>
      </trkpt>
      <trkpt lat="48.98968" lon="2.03513">
        <ele>109.2</ele>
        <time>2022-04-12T09:30:18Z</time>
      </trkpt>
      <trkpt lat="48.98962" lon="2.03512">
        <ele>109.3</ele>
        <time>2022-04-12T09:30:23Z</time>
      </trkpt>
      <trkpt lat="48.98958" lon="2.0351">
        <ele>109.8</ele>
        <time>2022-04-12T09:30:27Z</time>
      </trkpt>
      <trkpt lat="48.98953" lon="2.03508">
        <ele>110.5</ele>
        <time>2022-04-12T09:30:30Z</time>
      </trkpt>
      <trkpt lat="48.98948" lon="2.03506">
        <ele>112.1</ele>
        <time>2022-04-12T09:30:34Z</time>
      </trkpt>
      <trkpt lat="48.98944" lon="2.03503">
        <ele>112.4</ele>
        <time>2022-04-12T09:30:38Z</time>
      </trkpt>
      <trkpt lat="48.98938" lon="2.03499">
        <ele>112.9</ele>
        <time>2022-04-12T09:30:43Z</time>
      </trkpt>
      <trkpt lat="48.98933" lon="2.03498">
        <ele>113.1</ele>
        <time>2022-04-12T09:30:47Z</time>
      </trkpt>
      <trkpt lat="48.98928" lon="2.03497">
        <ele>111.9</ele>
        <time>2022-04-12T09:30:51Z</time>
      </trkpt>
      <trkpt lat="48.98923" lon="2.03497">
        <ele>110.9</ele>
        <time>2022-04-12T09:30:55Z</time>
      </trkpt>
      <trkpt lat="48.98918" lon="2.03494">
        <ele>110.2</ele>
        <time>2022-04-12T09:30:59Z</time>
      </trkpt>
      <trkpt lat="48.98913" lon="2.03491">
        <ele>112.5</ele>
        <time>2022-04-12T09:31:04Z</time>
      </trkpt>
      <trkpt lat="48.98909" lon="2.03488">
        <ele>110.7</ele>
        <time>2022-04-12T09:31:08Z</time>
      </trkpt>
      <trkpt lat="48.98903" lon="2.03486">
        <ele>110.7</ele>
        <time>2022-04-12T09:31:12Z</time>
      </trkpt>
      <trkpt lat="48.98899" lon="2.03483">
        <ele>113</ele>
        <time>2022-04-12T09:31:16Z</time>
      </trkpt>
      <trkpt lat="48.98894" lon="2.03481">
        <ele>113.9</ele>
        <time>2022-04-12T09:31:20Z</time>
      </trkpt>
      <trkpt lat="48.9889" lon="2.0348">
        <ele>115.7</ele>
        <time>2022-04-12T09:31:25Z</time>
      </trkpt>
      <trkpt lat="48.98885" lon="2.03478">
        <ele>115.2</ele>
        <time>2022-04-12T09:31:29Z</time>
      </trkpt>
      <trkpt lat="48.98881" lon="2.03475">
        <ele>115.1</ele>
        <time>2022-04-12T09:31:34Z</time>
      </trkpt>
      <trkpt lat="48.98875" lon="2.03473">
        <ele>115</ele>
        <time>2022-04-12T09:31:39Z</time>
      </trkpt>
      <trkpt lat="48.98871" lon="2.0347">
        <ele>115.3</ele>
        <time>2022-04-12T09:31:43Z</time>
      </trkpt>
      <trkpt lat="48.98867" lon="2.03467">
        <ele>117.4</ele>
        <time>2022-04-12T09:31:48Z</time>
      </trkpt>
      <trkpt lat="48.98862" lon="2.03462">
        <ele>116.9</ele>
        <time>2022-04-12T09:31:53Z</time>
      </trkpt>
      <trkpt lat="48.98858" lon="2.03459">
        <ele>118.7</ele>
        <time>2022-04-12T09:31:57Z</time>
      </trkpt>
      <trkpt lat="48.98853" lon="2.03458">
        <ele>119.2</ele>
        <time>2022-04-12T09:32:02Z</time>
      </trkpt>
      <trkpt lat="48.98847" lon="2.03455">
        <ele>121.4</ele>
        <time>2022-04-12T09:32:08Z</time>
      </trkpt>
      <trkpt lat="48.98841" lon="2.03453">
        <ele>120.2</ele>
        <time>2022-04-12T09:32:13Z</time>
      </trkpt>
      <trkpt lat="48.98836" lon="2.03451">
        <ele>119</ele>
        <time>2022-04-12T09:32:17Z</time>
      </trkpt>
      <trkpt lat="48.98831" lon="2.03449">
        <ele>118.4</ele>
        <time>2022-04-12T09:32:22Z</time>
      </trkpt>
      <trkpt lat="48.98827" lon="2.03447">
        <ele>118.6</ele>
        <time>2022-04-12T09:32:26Z</time>
      </trkpt>
      <trkpt lat="48.98822" lon="2.03446">
        <ele>119.1</ele>
        <time>2022-04-12T09:32:30Z</time>
      </trkpt>
      <trkpt lat="48.98817" lon="2.03442">
        <ele>121.3</ele>
        <time>2022-04-12T09:32:36Z</time>
      </trkpt>
      <trkpt lat="48.98812" lon="2.0344">
        <ele>121.7</ele>
        <time>2022-04-12T09:32:41Z</time>
      </trkpt>
      <trkpt lat="48.98808" lon="2.03437">
        <ele>122.1</ele>
        <time>2022-04-12T09:32:46Z</time>
      </trkpt>
      <trkpt lat="48.98803" lon="2.03435">
        <ele>123.7</ele>
        <time>2022-04-12T09:32:50Z</time>
      </trkpt>
      <trkpt lat="48.98799" lon="2.03431">
        <ele>126.3</ele>
        <time>2022-04-12T09:32:57Z</time>
      </trkpt>
      <trkpt lat="48.98794" lon="2.03427">
        <ele>129.5</ele>
        <time>2022-04-12T09:33:03Z</time>
      </trkpt>
      <trkpt lat="48.9879" lon="2.03423">
        <ele>132.7</ele>
        <time>2022-04-12T09:33:09Z</time>
      </trkpt>
      <trkpt lat="48.98785" lon="2.0342">
        <ele>132.1</ele>
        <time>2022-04-12T09:33:15Z</time>
      </trkpt>
      <trkpt lat="48.98781" lon="2.03416">
        <ele>131.2</ele>
        <time>2022-04-12T09:33:21Z</time>
      </trkpt>
      <trkpt lat="48.98777" lon="2.03411">
        <ele>132.2</ele>
        <time>2022-04-12T09:33:28Z</time>
      </trkpt>
      <trkpt lat="48.98772" lon="2.03408">
        <ele>133.3</ele>
        <time>2022-04-12T09:33:33Z</time>
      </trkpt>
      <trkpt lat="48.98768" lon="2.03406">
        <ele>133.8</ele>
        <time>2022-04-12T09:33:39Z</time>
      </trkpt>
      <trkpt lat="48.98763" lon="2.03404">
        <ele>138.7</ele>
        <time>2022-04-12T09:33:46Z</time>
      </trkpt>
      <trkpt lat="48.98758" lon="2.034">
        <ele>138.7</ele>
        <time>2022-04-12T09:33:54Z</time>
      </trkpt>
      <trkpt lat="48.98754" lon="2.03397">
        <ele>140</ele>
        <time>2022-04-12T09:34:02Z</time>
      </trkpt>
      <trkpt lat="48.9875" lon="2.03396">
        <ele>141.7</ele>
        <time>2022-04-12T09:34:08Z</time>
      </trkpt>
      <trkpt lat="48.98745" lon="2.03394">
        <ele>142.1</ele>
        <time>2022-04-12T09:34:15Z</time>
      </trkpt>
      <trkpt lat="48.9874" lon="2.03396">
        <ele>144.2</ele>
        <time>2022-04-12T09:34:22Z</time>
      </trkpt>
      <trkpt lat="48.98734" lon="2.03401">
        <ele>147.4</ele>
        <time>2022-04-12T09:34:28Z</time>
      </trkpt>
      <trkpt lat="48.9873" lon="2.03404">
        <ele>148.1</ele>
        <time>2022-04-12T09:34:31Z</time>
      </trkpt>
      <trkpt lat="48.98726" lon="2.03409">
        <ele>147.1</ele>
        <time>2022-04-12T09:34:36Z</time>
      </trkpt>
      <trkpt lat="48.98721" lon="2.03412">
        <ele>147.3</ele>
        <time>2022-04-12T09:34:40Z</time>
      </trkpt>
      <trkpt lat="48.9872" lon="2.03419">
        <ele>150.8</ele>
        <time>2022-04-12T09:34:45Z</time>
      </trkpt>
      <trkpt lat="48.98716" lon="2.03424">
        <ele>154.6</ele>
        <time>2022-04-12T09:34:49Z</time>
      </trkpt>
      <trkpt lat="48.98712" lon="2.03427">
        <ele>153.9</ele>
        <time>2022-04-12T09:34:54Z</time>
      </trkpt>
      <trkpt lat="48.98708" lon="2.03431">
        <ele>152.7</ele>
        <time>2022-04-12T09:34:58Z</time>
      </trkpt>
      <trkpt lat="48.98703" lon="2.03434">
        <ele>152.8</ele>
        <time>2022-04-12T09:35:04Z</time>
      </trkpt>
      <trkpt lat="48.98699" lon="2.03436">
        <ele>152.1</ele>
        <time>2022-04-12T09:35:09Z</time>
      </trkpt>
      <trkpt lat="48.98694" lon="2.03436">
        <ele>151.8</ele>
        <time>2022-04-12T09:35:15Z</time>
      </trkpt>
      <trkpt lat="48.98689" lon="2.03436">
        <ele>152</ele>
        <time>2022-04-12T09:35:21Z</time>
      </trkpt>
      <trkpt lat="48.98683" lon="2.03436">
        <ele>153.1</ele>
        <time>2022-04-12T09:35:26Z</time>
      </trkpt>
      <trkpt lat="48.98678" lon="2.03435">
        <ele>150.7</ele>
        <time>2022-04-12T09:35:31Z</time>
      </trkpt>
      <trkpt lat="48.98673" lon="2.03435">
        <ele>150.4</ele>
        <time>2022-04-12T09:35:36Z</time>
      </trkpt>
      <trkpt lat="48.98669" lon="2.03434">
        <ele>152.1</ele>
        <time>2022-04-12T09:35:40Z</time>
      </trkpt>
      <trkpt lat="48.98664" lon="2.03434">
        <ele>150.5</ele>
        <time>2022-04-12T09:35:44Z</time>
      </trkpt>
      <trkpt lat="48.98659" lon="2.03436">
        <ele>150.1</ele>
        <time>2022-04-12T09:35:49Z</time>
      </trkpt>
      <trkpt lat="48.98654" lon="2.03438">
        <ele>153.6</ele>
        <time>2022-04-12T09:35:53Z</time>
      </trkpt>
      <trkpt lat="48.9865" lon="2.03438">
        <ele>154.1</ele>
        <time>2022-04-12T09:35:58Z</time>
      </trkpt>
      <trkpt lat="48.98645" lon="2.03438">
        <ele>155.8</ele>
        <time>2022-04-12T09:36:02Z</time>
      </trkpt>
      <trkpt lat="48.98639" lon="2.03439">
        <ele>155.6</ele>
        <time>2022-04-12T09:36:08Z</time>
      </trkpt>
      <trkpt lat="48.98634" lon="2.03439">
        <ele>155.6</ele>
        <time>2022-04-12T09:36:12Z</time>
      </trkpt>
      <trkpt lat="48.98629" lon="2.03439">
        <ele>155.3</ele>
        <time>2022-04-12T09:36:17Z</time>
      </trkpt>
      <trkpt lat="48.98624" lon="2.03437">
        <ele>157.3</ele>
        <time>2022-04-12T09:36:21Z</time>
      </trkpt>
      <trkpt lat="48.9862" lon="2.03435">
        <ele>158</ele>
        <time>2022-04-12T09:36:26Z</time>
      </trkpt>
      <trkpt lat="48.98616" lon="2.03431">
        <ele>156.9</ele>
        <time>2022-04-12T09:36:31Z</time>
      </trkpt>
      <trkpt lat="48.98611" lon="2.0343">
        <ele>158.4</ele>
        <time>2022-04-12T09:36:36Z</time>
      </trkpt>
      <trkpt lat="48.98606" lon="2.03432">
        <ele>161.6</ele>
        <time>2022-04-12T09:36:41Z</time>
      </trkpt>
      <trkpt lat="48.98602" lon="2.03431">
        <ele>162.8</ele>
        <time>2022-04-12T09:36:45Z</time>
      </trkpt>
      <trkpt lat="48.98597" lon="2.0343">
        <ele>163.7</ele>
        <time>2022-04-12T09:36:50Z</time>
      </trkpt>
      <trkpt lat="48.98592" lon="2.03428">
        <ele>163.6</ele>
        <time>2022-04-12T09:36:54Z</time>
      </trkpt>
      <trkpt lat="48.98587" lon="2.03428">
        <ele>165.2</ele>
        <time>2022-04-12T09:36:59Z</time>
      </trkpt>
      <trkpt lat="48.98582" lon="2.03427">
        <ele>164.4</ele>
        <time>2022-04-12T09:37:05Z</time>
      </trkpt>
      <trkpt lat="48.98577" lon="2.03427">
        <ele>164</ele>
        <time>2022-04-12T09:37:11Z</time>
      </trkpt>
      <trkpt lat="48.98573" lon="2.03424">
        <ele>169.2</ele>
        <time>2022-04-12T09:37:15Z</time>
      </trkpt>
      <trkpt lat="48.98568" lon="2.03421">
        <ele>169.9</ele>
        <time>2022-04-12T09:37:19Z</time>
      </trkpt>
      <trkpt lat="48.98562" lon="2.0342">
        <ele>170.9</ele>
        <time>2022-04-12T09:37:25Z</time>
      </trkpt>
      <trkpt lat="48.98557" lon="2.0342">
        <ele>171.1</ele>
        <time>2022-04-12T09:37:29Z</time>
      </trkpt>
      <trkpt lat="48.98551" lon="2.03419">
        <ele>172.3</ele>
        <time>2022-04-12T09:37:34Z</time>
      </trkpt>
      <trkpt lat="48.98546" lon="2.03417">
        <ele>173</ele>
        <time>2022-04-12T09:37:38Z</time>
      </trkpt>
      <trkpt lat="48.98541" lon="2.03417">
        <ele>173.2</ele>
        <time>2022-04-12T09:37:43Z</time>
      </trkpt>
      <trkpt lat="48.98536" lon="2.03418">
        <ele>172.4</ele>
        <time>2022-04-12T09:37:47Z</time>
      </trkpt>
      <trkpt lat="48.98531" lon="2.03418">
        <ele>172.9</ele>
        <time>2022-04-12T09:37:51Z</time>
      </trkpt>
      <trkpt lat="48.98526" lon="2.03417">
        <ele>173.6</ele>
        <time>2022-04-12T09:37:55Z</time>
      </trkpt>
      <trkpt lat="48.9852" lon="2.03417">
        <ele>174.7</ele>
        <time>2022-04-12T09:38:00Z</time>
      </trkpt>
      <trkpt lat="48.98515" lon="2.03416">
        <ele>175.5</ele>
        <time>2022-04-12T09:38:04Z</time>
      </trkpt>
      <trkpt lat="48.9851" lon="2.03418">
        <ele>176.6</ele>
        <time>2022-04-12T09:38:07Z</time>
      </trkpt>
      <trkpt lat="48.98505" lon="2.03417">
        <ele>175.6</ele>
        <time>2022-04-12T09:38:12Z</time>
      </trkpt>
      <trkpt lat="48.985" lon="2.03414">
        <ele>174.9</ele>
        <time>2022-04-12T09:38:16Z</time>
      </trkpt>
      <trkpt lat="48.98496" lon="2.03412">
        <ele>175</ele>
        <time>2022-04-12T09:38:20Z</time>
      </trkpt>
      <trkpt lat="48.9849" lon="2.0341">
        <ele>171.7</ele>
        <time>2022-04-12T09:38:24Z</time>
      </trkpt>
      <trkpt lat="48.98485" lon="2.0341">
        <ele>170</ele>
        <time>2022-04-12T09:38:29Z</time>
      </trkpt>
      <trkpt lat="48.98479" lon="2.0341">
        <ele>169</ele>
        <time>2022-04-12T09:38:33Z</time>
      </trkpt>
      <trkpt lat="48.98474" lon="2.03407">
        <ele>169.5</ele>
        <time>2022-04-12T09:38:38Z</time>
      </trkpt>
      <trkpt lat="48.9847" lon="2.03405">
        <ele>172.2</ele>
        <time>2022-04-12T09:38:42Z</time>
      </trkpt>
      <trkpt lat="48.98465" lon="2.03406">
        <ele>172.7</ele>
        <time>2022-04-12T09:38:46Z</time>
      </trkpt>
      <trkpt lat="48.9846" lon="2.03402">
        <ele>171.2</ele>
        <time>2022-04-12T09:38:51Z</time>
      </trkpt>
      <trkpt lat="48.98457" lon="2.03397">
        <ele>170</ele>
        <time>2022-04-12T09:38:55Z</time>
      </trkpt>
      <trkpt lat="48.98452" lon="2.034">
        <ele>169.8</ele>
        <time>2022-04-12T09:39:00Z</time>
      </trkpt>
      <trkpt lat="48.98448" lon="2.03405">
        <ele>171.8</ele>
        <time>2022-04-12T09:39:04Z</time>
      </trkpt>
      <trkpt lat="48.98446" lon="2.03412">
        <ele>171.8</ele>
        <time>2022-04-12T09:39:10Z</time>
      </trkpt>
      <trkpt lat="48.98441" lon="2.03414">
        <ele>171.7</ele>
        <time>2022-04-12T09:39:15Z</time>
      </trkpt>
      <trkpt lat="48.98436" lon="2.03414">
        <ele>169.5</ele>
        <time>2022-04-12T09:39:23Z</time>
      </trkpt>
      <trkpt lat="48.98431" lon="2.03415">
        <ele>171.7</ele>
        <time>2022-04-12T09:39:30Z</time>
      </trkpt>
      <trkpt lat="48.98426" lon="2.03415">
        <ele>171.2</ele>
        <time>2022-04-12T09:39:38Z</time>
      </trkpt>
      <trkpt lat="48.98421" lon="2.03414">
        <ele>171.3</ele>
        <time>2022-04-12T09:39:45Z</time>
      </trkpt>
      <trkpt lat="48.98416" lon="2.03414">
        <ele>170</ele>
        <time>2022-04-12T09:39:51Z</time>
      </trkpt>
      <trkpt lat="48.98411" lon="2.03414">
        <ele>168.7</ele>
        <time>2022-04-12T09:39:57Z</time>
      </trkpt>
      <trkpt lat="48.98406" lon="2.03412">
        <ele>170.6</ele>
        <time>2022-04-12T09:40:03Z</time>
      </trkpt>
      <trkpt lat="48.98401" lon="2.03412">
        <ele>169.4</ele>
        <time>2022-04-12T09:40:09Z</time>
      </trkpt>
      <trkpt lat="48.98396" lon="2.03412">
        <ele>166.8</ele>
        <time>2022-04-12T09:40:15Z</time>
      </trkpt>
      <trkpt lat="48.98392" lon="2.03416">
        <ele>164.3</ele>
        <time>2022-04-12T09:40:21Z</time>
      </trkpt>
      <trkpt lat="48.98395" lon="2.03422">
        <ele>163.4</ele>
        <time>2022-04-12T09:42:16Z</time>
      </trkpt>
      <trkpt lat="48.98395" lon="2.0343">
        <ele>165.2</ele>
        <time>2022-04-12T09:42:20Z</time>
      </trkpt>
      <trkpt lat="48.98396" lon="2.0344">
        <ele>165.2</ele>
        <time>2022-04-12T09:42:24Z</time>
      </trkpt>
      <trkpt lat="48.98398" lon="2.03448">
        <ele>167.1</ele>
        <time>2022-04-12T09:42:29Z</time>
      </trkpt>
      <trkpt lat="48.984" lon="2.03457">
        <ele>166.9</ele>
        <time>2022-04-12T09:42:33Z</time>
      </trkpt>
      <trkpt lat="48.98401" lon="2.03464">
        <ele>166.9</ele>
        <time>2022-04-12T09:42:38Z</time>
      </trkpt>
      <trkpt lat="48.98402" lon="2.03472">
        <ele>164.9</ele>
        <time>2022-04-12T09:42:42Z</time>
      </trkpt>
      <trkpt lat="48.98403" lon="2.03479">
        <ele>165.7</ele>
        <time>2022-04-12T09:42:47Z</time>
      </trkpt>
      <trkpt lat="48.98404" lon="2.03486">
        <ele>166.5</ele>
        <time>2022-04-12T09:42:50Z</time>
      </trkpt>
      <trkpt lat="48.98404" lon="2.03493">
        <ele>167.1</ele>
        <time>2022-04-12T09:42:54Z</time>
      </trkpt>
      <trkpt lat="48.98405" lon="2.03501">
        <ele>164.3</ele>
        <time>2022-04-12T09:42:58Z</time>
      </trkpt>
      <trkpt lat="48.98407" lon="2.0351">
        <ele>164.9</ele>
        <time>2022-04-12T09:43:03Z</time>
      </trkpt>
      <trkpt lat="48.98407" lon="2.03518">
        <ele>161.2</ele>
        <time>2022-04-12T09:43:07Z</time>
      </trkpt>
      <trkpt lat="48.98408" lon="2.03526">
        <ele>162.1</ele>
        <time>2022-04-12T09:43:11Z</time>
      </trkpt>
      <trkpt lat="48.98408" lon="2.03534">
        <ele>162.1</ele>
        <time>2022-04-12T09:43:14Z</time>
      </trkpt>
      <trkpt lat="48.98409" lon="2.03542">
        <ele>162.5</ele>
        <time>2022-04-12T09:43:18Z</time>
      </trkpt>
      <trkpt lat="48.98409" lon="2.03549">
        <ele>165.1</ele>
        <time>2022-04-12T09:43:22Z</time>
      </trkpt>
      <trkpt lat="48.9841" lon="2.03556">
        <ele>164.4</ele>
        <time>2022-04-12T09:43:26Z</time>
      </trkpt>
      <trkpt lat="48.98413" lon="2.03564">
        <ele>164.1</ele>
        <time>2022-04-12T09:43:31Z</time>
      </trkpt>
      <trkpt lat="48.98415" lon="2.0357">
        <ele>159.8</ele>
        <time>2022-04-12T09:43:35Z</time>
      </trkpt>
      <trkpt lat="48.98417" lon="2.03578">
        <ele>161.2</ele>
        <time>2022-04-12T09:43:38Z</time>
      </trkpt>
      <trkpt lat="48.98415" lon="2.03586">
        <ele>161.9</ele>
        <time>2022-04-12T09:43:42Z</time>
      </trkpt>
      <trkpt lat="48.98414" lon="2.03593">
        <ele>165.1</ele>
        <time>2022-04-12T09:43:45Z</time>
      </trkpt>
      <trkpt lat="48.98412" lon="2.03602">
        <ele>165</ele>
        <time>2022-04-12T09:43:49Z</time>
      </trkpt>
      <trkpt lat="48.98409" lon="2.03609">
        <ele>168.2</ele>
        <time>2022-04-12T09:43:53Z</time>
      </trkpt>
      <trkpt lat="48.98406" lon="2.03618">
        <ele>171.4</ele>
        <time>2022-04-12T09:43:57Z</time>
      </trkpt>
      <trkpt lat="48.98405" lon="2.03625">
        <ele>173.7</ele>
        <time>2022-04-12T09:44:00Z</time>
      </trkpt>
      <trkpt lat="48.98405" lon="2.03632">
        <ele>171.8</ele>
        <time>2022-04-12T09:44:03Z</time>
      </trkpt>
      <trkpt lat="48.98406" lon="2.03639">
        <ele>173.2</ele>
        <time>2022-04-12T09:44:07Z</time>
      </trkpt>
      <trkpt lat="48.98408" lon="2.03646">
        <ele>173.8</ele>
        <time>2022-04-12T09:44:10Z</time>
      </trkpt>
      <trkpt lat="48.9841" lon="2.03653">
        <ele>174.4</ele>
        <time>2022-04-12T09:44:14Z</time>
      </trkpt>
      <trkpt lat="48.98412" lon="2.0366">
        <ele>174.5</ele>
        <time>2022-04-12T09:44:18Z</time>
      </trkpt>
      <trkpt lat="48.98412" lon="2.03668">
        <ele>174.5</ele>
        <time>2022-04-12T09:44:38Z</time>
      </trkpt>
      <trkpt lat="48.98411" lon="2.03678">
        <ele>174.1</ele>
        <time>2022-04-12T09:44:40Z</time>
      </trkpt>
      <trkpt lat="48.98411" lon="2.03686">
        <ele>174.7</ele>
        <time>2022-04-12T09:44:43Z</time>
      </trkpt>
      <trkpt lat="48.98413" lon="2.03694">
        <ele>175.7</ele>
        <time>2022-04-12T09:44:47Z</time>
      </trkpt>
      <trkpt lat="48.98414" lon="2.03701">
        <ele>175.2</ele>
        <time>2022-04-12T09:44:52Z</time>
      </trkpt>
      <trkpt lat="48.98417" lon="2.03709">
        <ele>176.7</ele>
        <time>2022-04-12T09:44:56Z</time>
      </trkpt>
      <trkpt lat="48.98418" lon="2.03717">
        <ele>175.1</ele>
        <time>2022-04-12T09:45:01Z</time>
      </trkpt>
      <trkpt lat="48.98419" lon="2.03725">
        <ele>174.4</ele>
        <time>2022-04-12T09:45:05Z</time>
      </trkpt>
      <trkpt lat="48.9842" lon="2.03732">
        <ele>175.4</ele>
        <time>2022-04-12T09:45:09Z</time>
      </trkpt>
      <trkpt lat="48.98419" lon="2.03741">
        <ele>175.7</ele>
        <time>2022-04-12T09:45:14Z</time>
      </trkpt>
      <trkpt lat="48.98418" lon="2.03749">
        <ele>175.2</ele>
        <time>2022-04-12T09:45:18Z</time>
      </trkpt>
      <trkpt lat="48.98417" lon="2.03756">
        <ele>173.8</ele>
        <time>2022-04-12T09:45:22Z</time>
      </trkpt>
      <trkpt lat="48.98417" lon="2.03764">
        <ele>174.8</ele>
        <time>2022-04-12T09:45:27Z</time>
      </trkpt>
      <trkpt lat="48.98417" lon="2.03771">
        <ele>174.4</ele>
        <time>2022-04-12T09:45:30Z</time>
      </trkpt>
      <trkpt lat="48.98419" lon="2.0378">
        <ele>175</ele>
        <time>2022-04-12T09:45:35Z</time>
      </trkpt>
      <trkpt lat="48.98422" lon="2.03788">
        <ele>175.9</ele>
        <time>2022-04-12T09:45:39Z</time>
      </trkpt>
      <trkpt lat="48.98424" lon="2.03796">
        <ele>174.7</ele>
        <time>2022-04-12T09:45:44Z</time>
      </trkpt>
      <trkpt lat="48.98425" lon="2.03803">
        <ele>174.9</ele>
        <time>2022-04-12T09:45:47Z</time>
      </trkpt>
      <trkpt lat="48.98424" lon="2.0381">
        <ele>175.2</ele>
        <time>2022-04-12T09:45:51Z</time>
      </trkpt>
      <trkpt lat="48.98424" lon="2.03819">
        <ele>174.8</ele>
        <time>2022-04-12T09:45:55Z</time>
      </trkpt>
      <trkpt lat="48.98423" lon="2.03827">
        <ele>175.4</ele>
        <time>2022-04-12T09:46:01Z</time>
      </trkpt>
      <trkpt lat="48.98425" lon="2.03834">
        <ele>177.6</ele>
        <time>2022-04-12T09:46:04Z</time>
      </trkpt>
      <trkpt lat="48.98425" lon="2.03842">
        <ele>178.1</ele>
        <time>2022-04-12T09:46:08Z</time>
      </trkpt>
      <trkpt lat="48.98427" lon="2.03849">
        <ele>177.2</ele>
        <time>2022-04-12T09:46:12Z</time>
      </trkpt>
      <trkpt lat="48.98428" lon="2.03857">
        <ele>174.7</ele>
        <time>2022-04-12T09:46:18Z</time>
      </trkpt>
      <trkpt lat="48.98429" lon="2.03865">
        <ele>174.3</ele>
        <time>2022-04-12T09:46:22Z</time>
      </trkpt>
      <trkpt lat="48.98431" lon="2.03874">
        <ele>172.5</ele>
        <time>2022-04-12T09:46:27Z</time>
      </trkpt>
      <trkpt lat="48.9843" lon="2.03882">
        <ele>173.5</ele>
        <time>2022-04-12T09:46:31Z</time>
      </trkpt>
      <trkpt lat="48.9843" lon="2.0389">
        <ele>172.5</ele>
        <time>2022-04-12T09:46:35Z</time>
      </trkpt>
      <trkpt lat="48.9843" lon="2.03896">
        <ele>172.5</ele>
        <time>2022-04-12T09:46:38Z</time>
      </trkpt>
      <trkpt lat="48.9843" lon="2.03903">
        <ele>171.8</ele>
        <time>2022-04-12T09:46:42Z</time>
      </trkpt>
      <trkpt lat="48.9843" lon="2.03911">
        <ele>169.9</ele>
        <time>2022-04-12T09:46:46Z</time>
      </trkpt>
      <trkpt lat="48.9843" lon="2.03919">
        <ele>167.7</ele>
        <time>2022-04-12T09:46:51Z</time>
      </trkpt>
      <trkpt lat="48.9843" lon="2.03926">
        <ele>164.4</ele>
        <time>2022-04-12T09:46:55Z</time>
      </trkpt>
      <trkpt lat="48.98428" lon="2.03934">
        <ele>163</ele>
        <time>2022-04-12T09:46:59Z</time>
      </trkpt>
      <trkpt lat="48.98427" lon="2.03942">
        <ele>165.9</ele>
        <time>2022-04-12T09:47:03Z</time>
      </trkpt>
      <trkpt lat="48.98427" lon="2.03949">
        <ele>165.1</ele>
        <time>2022-04-12T09:47:07Z</time>
      </trkpt>
      <trkpt lat="48.98426" lon="2.03957">
        <ele>166.3</ele>
        <time>2022-04-12T09:47:10Z</time>
      </trkpt>
      <trkpt lat="48.98428" lon="2.03965">
        <ele>169</ele>
        <time>2022-04-12T09:47:15Z</time>
      </trkpt>
      <trkpt lat="48.98429" lon="2.03972">
        <ele>167.2</ele>
        <time>2022-04-12T09:47:18Z</time>
      </trkpt>
      <trkpt lat="48.9843" lon="2.03979">
        <ele>170.9</ele>
        <time>2022-04-12T09:47:22Z</time>
      </trkpt>
      <trkpt lat="48.9843" lon="2.03987">
        <ele>169</ele>
        <time>2022-04-12T09:47:26Z</time>
      </trkpt>
      <trkpt lat="48.9843" lon="2.03995">
        <ele>170.8</ele>
        <time>2022-04-12T09:47:30Z</time>
      </trkpt>
      <trkpt lat="48.9843" lon="2.04003">
        <ele>169.1</ele>
        <time>2022-04-12T09:47:35Z</time>
      </trkpt>
      <trkpt lat="48.9843" lon="2.04011">
        <ele>165.1</ele>
        <time>2022-04-12T09:47:39Z</time>
      </trkpt>
      <trkpt lat="48.98431" lon="2.0402">
        <ele>167.3</ele>
        <time>2022-04-12T09:47:44Z</time>
      </trkpt>
      <trkpt lat="48.98433" lon="2.04028">
        <ele>167.9</ele>
        <time>2022-04-12T09:47:48Z</time>
      </trkpt>
      <trkpt lat="48.98434" lon="2.04037">
        <ele>167.2</ele>
        <time>2022-04-12T09:47:53Z</time>
      </trkpt>
      <trkpt lat="48.98433" lon="2.04045">
        <ele>167.1</ele>
        <time>2022-04-12T09:47:57Z</time>
      </trkpt>
      <trkpt lat="48.98431" lon="2.04053">
        <ele>166</ele>
        <time>2022-04-12T09:48:01Z</time>
      </trkpt>
      <trkpt lat="48.98429" lon="2.04061">
        <ele>164.9</ele>
        <time>2022-04-12T09:48:05Z</time>
      </trkpt>
      <trkpt lat="48.98429" lon="2.04069">
        <ele>162.3</ele>
        <time>2022-04-12T09:48:08Z</time>
      </trkpt>
      <trkpt lat="48.98429" lon="2.04077">
        <ele>162.6</ele>
        <time>2022-04-12T09:48:12Z</time>
      </trkpt>
      <trkpt lat="48.9843" lon="2.04085">
        <ele>163.1</ele>
        <time>2022-04-12T09:48:17Z</time>
      </trkpt>
      <trkpt lat="48.9843" lon="2.04094">
        <ele>165.7</ele>
        <time>2022-04-12T09:48:21Z</time>
      </trkpt>
      <trkpt lat="48.9843" lon="2.04101">
        <ele>170.2</ele>
        <time>2022-04-12T09:48:26Z</time>
      </trkpt>
      <trkpt lat="48.98429" lon="2.0411">
        <ele>168.9</ele>
        <time>2022-04-12T09:48:31Z</time>
      </trkpt>
      <trkpt lat="48.98428" lon="2.04118">
        <ele>168.2</ele>
        <time>2022-04-12T09:48:35Z</time>
      </trkpt>
      <trkpt lat="48.98428" lon="2.04126">
        <ele>166.2</ele>
        <time>2022-04-12T09:48:40Z</time>
      </trkpt>
      <trkpt lat="48.98427" lon="2.04135">
        <ele>166.9</ele>
        <time>2022-04-12T09:48:44Z</time>
      </trkpt>
      <trkpt lat="48.98427" lon="2.04142">
        <ele>165.8</ele>
        <time>2022-04-12T09:48:49Z</time>
      </trkpt>
      <trkpt lat="48.98429" lon="2.04151">
        <ele>165.2</ele>
        <time>2022-04-12T09:48:53Z</time>
      </trkpt>
      <trkpt lat="48.98428" lon="2.04158">
        <ele>163.7</ele>
        <time>2022-04-12T09:48:58Z</time>
      </trkpt>
      <trkpt lat="48.98427" lon="2.04166">
        <ele>160.9</ele>
        <time>2022-04-12T09:49:02Z</time>
      </trkpt>
      <trkpt lat="48.98427" lon="2.04174">
        <ele>160.3</ele>
        <time>2022-04-12T09:49:07Z</time>
      </trkpt>
      <trkpt lat="48.98427" lon="2.04181">
        <ele>158.5</ele>
        <time>2022-04-12T09:49:10Z</time>
      </trkpt>
      <trkpt lat="48.98428" lon="2.04189">
        <ele>159.1</ele>
        <time>2022-04-12T09:49:14Z</time>
      </trkpt>
      <trkpt lat="48.98428" lon="2.04197">
        <ele>161.2</ele>
        <time>2022-04-12T09:49:18Z</time>
      </trkpt>
      <trkpt lat="48.9843" lon="2.04205">
        <ele>160.4</ele>
        <time>2022-04-12T09:49:23Z</time>
      </trkpt>
      <trkpt lat="48.98431" lon="2.04214">
        <ele>159.5</ele>
        <time>2022-04-12T09:49:27Z</time>
      </trkpt>
      <trkpt lat="48.98433" lon="2.04221">
        <ele>158.1</ele>
        <time>2022-04-12T09:49:31Z</time>
      </trkpt>
      <trkpt lat="48.98434" lon="2.04229">
        <ele>159.1</ele>
        <time>2022-04-12T09:49:35Z</time>
      </trkpt>
      <trkpt lat="48.98435" lon="2.04237">
        <ele>161</ele>
        <time>2022-04-12T09:49:39Z</time>
      </trkpt>
      <trkpt lat="48.98436" lon="2.04244">
        <ele>160.1</ele>
        <time>2022-04-12T09:49:42Z</time>
      </trkpt>
      <trkpt lat="48.98436" lon="2.04252">
        <ele>158.4</ele>
        <time>2022-04-12T09:49:46Z</time>
      </trkpt>
      <trkpt lat="48.98437" lon="2.04259">
        <ele>157.9</ele>
        <time>2022-04-12T09:49:50Z</time>
      </trkpt>
      <trkpt lat="48.98438" lon="2.04266">
        <ele>158.2</ele>
        <time>2022-04-12T09:49:55Z</time>
      </trkpt>
      <trkpt lat="48.98439" lon="2.04273">
        <ele>157</ele>
        <time>2022-04-12T09:49:59Z</time>
      </trkpt>
      <trkpt lat="48.9844" lon="2.0428">
        <ele>158.4</ele>
        <time>2022-04-12T09:50:03Z</time>
      </trkpt>
      <trkpt lat="48.98441" lon="2.04288">
        <ele>160.2</ele>
        <time>2022-04-12T09:50:07Z</time>
      </trkpt>
      <trkpt lat="48.98442" lon="2.04295">
        <ele>160.9</ele>
        <time>2022-04-12T09:50:10Z</time>
      </trkpt>
      <trkpt lat="48.98443" lon="2.04302">
        <ele>159.8</ele>
        <time>2022-04-12T09:50:13Z</time>
      </trkpt>
      <trkpt lat="48.98443" lon="2.04309">
        <ele>158.5</ele>
        <time>2022-04-12T09:50:17Z</time>
      </trkpt>
      <trkpt lat="48.98443" lon="2.04317">
        <ele>161.5</ele>
        <time>2022-04-12T09:50:21Z</time>
      </trkpt>
      <trkpt lat="48.98442" lon="2.04325">
        <ele>161.4</ele>
        <time>2022-04-12T09:50:25Z</time>
      </trkpt>
      <trkpt lat="48.98443" lon="2.04332">
        <ele>160.8</ele>
        <time>2022-04-12T09:50:29Z</time>
      </trkpt>
      <trkpt lat="48.98443" lon="2.0434">
        <ele>161.9</ele>
        <time>2022-04-12T09:50:33Z</time>
      </trkpt>
      <trkpt lat="48.98441" lon="2.04347">
        <ele>161.8</ele>
        <time>2022-04-12T09:50:37Z</time>
      </trkpt>
      <trkpt lat="48.98438" lon="2.04354">
        <ele>163.6</ele>
        <time>2022-04-12T09:50:42Z</time>
      </trkpt>
      <trkpt lat="48.98436" lon="2.0436">
        <ele>164.1</ele>
        <time>2022-04-12T09:50:45Z</time>
      </trkpt>
      <trkpt lat="48.98433" lon="2.04366">
        <ele>164.8</ele>
        <time>2022-04-12T09:50:48Z</time>
      </trkpt>
      <trkpt lat="48.98431" lon="2.04372">
        <ele>165.4</ele>
        <time>2022-04-12T09:50:51Z</time>
      </trkpt>
      <trkpt lat="48.98428" lon="2.04378">
        <ele>162.7</ele>
        <time>2022-04-12T09:50:55Z</time>
      </trkpt>
      <trkpt lat="48.98425" lon="2.04385">
        <ele>161.7</ele>
        <time>2022-04-12T09:50:59Z</time>
      </trkpt>
      <trkpt lat="48.98422" lon="2.04391">
        <ele>164</ele>
        <time>2022-04-12T09:51:03Z</time>
      </trkpt>
      <trkpt lat="48.98419" lon="2.04397">
        <ele>160.2</ele>
        <time>2022-04-12T09:53:10Z</time>
      </trkpt>
      <trkpt lat="48.98417" lon="2.04406">
        <ele>159.6</ele>
        <time>2022-04-12T09:53:18Z</time>
      </trkpt>
      <trkpt lat="48.98411" lon="2.0441">
        <ele>159.8</ele>
        <time>2022-04-12T09:53:20Z</time>
      </trkpt>
      <trkpt lat="48.98407" lon="2.04416">
        <ele>158.8</ele>
        <time>2022-04-12T09:53:24Z</time>
      </trkpt>
      <trkpt lat="48.98408" lon="2.04423">
        <ele>158.3</ele>
        <time>2022-04-12T09:53:29Z</time>
      </trkpt>
      <trkpt lat="48.98406" lon="2.04429">
        <ele>156.9</ele>
        <time>2022-04-12T09:53:33Z</time>
      </trkpt>
      <trkpt lat="48.98401" lon="2.04434">
        <ele>159.4</ele>
        <time>2022-04-12T09:53:39Z</time>
      </trkpt>
      <trkpt lat="48.98398" lon="2.04439">
        <ele>156.3</ele>
        <time>2022-04-12T09:53:43Z</time>
      </trkpt>
      <trkpt lat="48.98396" lon="2.04446">
        <ele>156.7</ele>
        <time>2022-04-12T09:53:47Z</time>
      </trkpt>
      <trkpt lat="48.98394" lon="2.04453">
        <ele>155.6</ele>
        <time>2022-04-12T09:53:51Z</time>
      </trkpt>
      <trkpt lat="48.9839" lon="2.04458">
        <ele>153.6</ele>
        <time>2022-04-12T09:53:55Z</time>
      </trkpt>
      <trkpt lat="48.98386" lon="2.04462">
        <ele>153.7</ele>
        <time>2022-04-12T09:53:59Z</time>
      </trkpt>
      <trkpt lat="48.98383" lon="2.04468">
        <ele>153.2</ele>
        <time>2022-04-12T09:54:04Z</time>
      </trkpt>
      <trkpt lat="48.9838" lon="2.04476">
        <ele>154.2</ele>
        <time>2022-04-12T09:54:09Z</time>
      </trkpt>
      <trkpt lat="48.98377" lon="2.04483">
        <ele>155.7</ele>
        <time>2022-04-12T09:54:13Z</time>
      </trkpt>
      <trkpt lat="48.98374" lon="2.0449">
        <ele>153.6</ele>
        <time>2022-04-12T09:54:17Z</time>
      </trkpt>
      <trkpt lat="48.98372" lon="2.04497">
        <ele>154.1</ele>
        <time>2022-04-12T09:54:21Z</time>
      </trkpt>
      <trkpt lat="48.9837" lon="2.04504">
        <ele>152.2</ele>
        <time>2022-04-12T09:54:26Z</time>
      </trkpt>
      <trkpt lat="48.98368" lon="2.04511">
        <ele>151.3</ele>
        <time>2022-04-12T09:54:30Z</time>
      </trkpt>
      <trkpt lat="48.98366" lon="2.04517">
        <ele>150</ele>
        <time>2022-04-12T09:54:34Z</time>
      </trkpt>
      <trkpt lat="48.98362" lon="2.04523">
        <ele>153</ele>
        <time>2022-04-12T09:54:38Z</time>
      </trkpt>
      <trkpt lat="48.98359" lon="2.04529">
        <ele>150.7</ele>
        <time>2022-04-12T09:54:42Z</time>
      </trkpt>
      <trkpt lat="48.98356" lon="2.04535">
        <ele>150</ele>
        <time>2022-04-12T09:54:47Z</time>
      </trkpt>
      <trkpt lat="48.98354" lon="2.04542">
        <ele>147.8</ele>
        <time>2022-04-12T09:54:52Z</time>
      </trkpt>
      <trkpt lat="48.98352" lon="2.0455">
        <ele>145.6</ele>
        <time>2022-04-12T09:54:56Z</time>
      </trkpt>
      <trkpt lat="48.98349" lon="2.04558">
        <ele>141.5</ele>
        <time>2022-04-12T09:55:01Z</time>
      </trkpt>
      <trkpt lat="48.98347" lon="2.04565">
        <ele>140.9</ele>
        <time>2022-04-12T09:55:05Z</time>
      </trkpt>
      <trkpt lat="48.98344" lon="2.04573">
        <ele>140.3</ele>
        <time>2022-04-12T09:55:08Z</time>
      </trkpt>
      <trkpt lat="48.98343" lon="2.0458">
        <ele>139.6</ele>
        <time>2022-04-12T09:55:12Z</time>
      </trkpt>
      <trkpt lat="48.98342" lon="2.04587">
        <ele>141.2</ele>
        <time>2022-04-12T09:55:16Z</time>
      </trkpt>
      <trkpt lat="48.98341" lon="2.04594">
        <ele>139.9</ele>
        <time>2022-04-12T09:55:20Z</time>
      </trkpt>
      <trkpt lat="48.9834" lon="2.04601">
        <ele>138.5</ele>
        <time>2022-04-12T09:55:24Z</time>
      </trkpt>
      <trkpt lat="48.98339" lon="2.04608">
        <ele>137.6</ele>
        <time>2022-04-12T09:55:29Z</time>
      </trkpt>
      <trkpt lat="48.98339" lon="2.04615">
        <ele>137.5</ele>
        <time>2022-04-12T09:55:33Z</time>
      </trkpt>
      <trkpt lat="48.98339" lon="2.04622">
        <ele>136.1</ele>
        <time>2022-04-12T09:55:37Z</time>
      </trkpt>
      <trkpt lat="48.98338" lon="2.04629">
        <ele>134.9</ele>
        <time>2022-04-12T09:55:41Z</time>
      </trkpt>
      <trkpt lat="48.98337" lon="2.04636">
        <ele>134.3</ele>
        <time>2022-04-12T09:55:45Z</time>
      </trkpt>
      <trkpt lat="48.98337" lon="2.04643">
        <ele>133.1</ele>
        <time>2022-04-12T09:55:49Z</time>
      </trkpt>
      <trkpt lat="48.98337" lon="2.0465">
        <ele>132.8</ele>
        <time>2022-04-12T09:55:53Z</time>
      </trkpt>
      <trkpt lat="48.98337" lon="2.04657">
        <ele>132</ele>
        <time>2022-04-12T09:55:57Z</time>
      </trkpt>
      <trkpt lat="48.98336" lon="2.04665">
        <ele>130.9</ele>
        <time>2022-04-12T09:56:01Z</time>
      </trkpt>
      <trkpt lat="48.98336" lon="2.04672">
        <ele>131.6</ele>
        <time>2022-04-12T09:56:05Z</time>
      </trkpt>
      <trkpt lat="48.98337" lon="2.04679">
        <ele>132.3</ele>
        <time>2022-04-12T09:56:09Z</time>
      </trkpt>
      <trkpt lat="48.98337" lon="2.04686">
        <ele>130</ele>
        <time>2022-04-12T09:56:13Z</time>
      </trkpt>
      <trkpt lat="48.98336" lon="2.04694">
        <ele>127.5</ele>
        <time>2022-04-12T09:56:17Z</time>
      </trkpt>
      <trkpt lat="48.98335" lon="2.04701">
        <ele>126.4</ele>
        <time>2022-04-12T09:56:21Z</time>
      </trkpt>
      <trkpt lat="48.98335" lon="2.04709">
        <ele>127.9</ele>
        <time>2022-04-12T09:56:26Z</time>
      </trkpt>
      <trkpt lat="48.98334" lon="2.04716">
        <ele>129.1</ele>
        <time>2022-04-12T09:56:30Z</time>
      </trkpt>
      <trkpt lat="48.98333" lon="2.04724">
        <ele>126.8</ele>
        <time>2022-04-12T09:56:34Z</time>
      </trkpt>
      <trkpt lat="48.98333" lon="2.04732">
        <ele>126.3</ele>
        <time>2022-04-12T09:56:39Z</time>
      </trkpt>
      <trkpt lat="48.98332" lon="2.04739">
        <ele>125.9</ele>
        <time>2022-04-12T09:56:42Z</time>
      </trkpt>
      <trkpt lat="48.98331" lon="2.04747">
        <ele>125.9</ele>
        <time>2022-04-12T09:56:46Z</time>
      </trkpt>
      <trkpt lat="48.98331" lon="2.04754">
        <ele>124.9</ele>
        <time>2022-04-12T09:56:50Z</time>
      </trkpt>
      <trkpt lat="48.98329" lon="2.04761">
        <ele>124.2</ele>
        <time>2022-04-12T09:56:55Z</time>
      </trkpt>
      <trkpt lat="48.98323" lon="2.04762">
        <ele>124</ele>
        <time>2022-04-12T09:56:59Z</time>
      </trkpt>
      <trkpt lat="48.98318" lon="2.04762">
        <ele>124.1</ele>
        <time>2022-04-12T09:57:03Z</time>
      </trkpt>
      <trkpt lat="48.98314" lon="2.04764">
        <ele>124.1</ele>
        <time>2022-04-12T09:57:07Z</time>
      </trkpt>
      <trkpt lat="48.98309" lon="2.04768">
        <ele>124.5</ele>
        <time>2022-04-12T09:57:11Z</time>
      </trkpt>
      <trkpt lat="48.98305" lon="2.0477">
        <ele>122.9</ele>
        <time>2022-04-12T09:57:17Z</time>
      </trkpt>
      <trkpt lat="48.983" lon="2.04773">
        <ele>124.4</ele>
        <time>2022-04-12T09:57:23Z</time>
      </trkpt>
      <trkpt lat="48.98299" lon="2.04781">
        <ele>124.7</ele>
        <time>2022-04-12T09:57:28Z</time>
      </trkpt>
      <trkpt lat="48.983" lon="2.04788">
        <ele>124</ele>
        <time>2022-04-12T09:57:33Z</time>
      </trkpt>
      <trkpt lat="48.983" lon="2.04795">
        <ele>124.3</ele>
        <time>2022-04-12T09:57:39Z</time>
      </trkpt>
      <trkpt lat="48.98301" lon="2.04804">
        <ele>124.4</ele>
        <time>2022-04-12T09:57:54Z</time>
      </trkpt>
      <trkpt lat="48.98298" lon="2.0481">
        <ele>123</ele>
        <time>2022-04-12T09:57:59Z</time>
      </trkpt>
      <trkpt lat="48.98295" lon="2.04818">
        <ele>123.6</ele>
        <time>2022-04-12T09:58:05Z</time>
      </trkpt>
      <trkpt lat="48.98294" lon="2.04825">
        <ele>122.5</ele>
        <time>2022-04-12T09:58:10Z</time>
      </trkpt>
      <trkpt lat="48.98295" lon="2.04832">
        <ele>119.2</ele>
        <time>2022-04-12T09:58:37Z</time>
      </trkpt>
      <trkpt lat="48.98294" lon="2.0484">
        <ele>119.2</ele>
        <time>2022-04-12T09:58:42Z</time>
      </trkpt>
      <trkpt lat="48.98293" lon="2.04848">
        <ele>117.4</ele>
        <time>2022-04-12T09:58:47Z</time>
      </trkpt>
      <trkpt lat="48.98292" lon="2.04856">
        <ele>118</ele>
        <time>2022-04-12T09:58:52Z</time>
      </trkpt>
      <trkpt lat="48.98291" lon="2.04863">
        <ele>118.6</ele>
        <time>2022-04-12T09:58:57Z</time>
      </trkpt>
      <trkpt lat="48.98291" lon="2.04871">
        <ele>118.5</ele>
        <time>2022-04-12T09:59:03Z</time>
      </trkpt>
      <trkpt lat="48.98289" lon="2.04879">
        <ele>118.8</ele>
        <time>2022-04-12T09:59:08Z</time>
      </trkpt>
      <trkpt lat="48.98288" lon="2.04887">
        <ele>118.3</ele>
        <time>2022-04-12T09:59:14Z</time>
      </trkpt>
      <trkpt lat="48.98286" lon="2.04893">
        <ele>118.6</ele>
        <time>2022-04-12T09:59:19Z</time>
      </trkpt>
      <trkpt lat="48.98284" lon="2.04901">
        <ele>117.6</ele>
        <time>2022-04-12T09:59:24Z</time>
      </trkpt>
      <trkpt lat="48.98283" lon="2.04908">
        <ele>117.2</ele>
        <time>2022-04-12T09:59:29Z</time>
      </trkpt>
      <trkpt lat="48.98282" lon="2.04915">
        <ele>117.2</ele>
        <time>2022-04-12T09:59:33Z</time>
      </trkpt>
      <trkpt lat="48.98279" lon="2.04922">
        <ele>115.9</ele>
        <time>2022-04-12T09:59:37Z</time>
      </trkpt>
      <trkpt lat="48.98278" lon="2.04929">
        <ele>115.2</ele>
        <time>2022-04-12T09:59:42Z</time>
      </trkpt>
      <trkpt lat="48.98274" lon="2.04935">
        <ele>115</ele>
        <time>2022-04-12T09:59:47Z</time>
      </trkpt>
      <trkpt lat="48.98272" lon="2.04941">
        <ele>114.6</ele>
        <time>2022-04-12T09:59:51Z</time>
      </trkpt>
      <trkpt lat="48.98268" lon="2.04947">
        <ele>114.5</ele>
        <time>2022-04-12T09:59:57Z</time>
      </trkpt>
      <trkpt lat="48.98265" lon="2.04953">
        <ele>113.7</ele>
        <time>2022-04-12T10:00:01Z</time>
      </trkpt>
      <trkpt lat="48.98262" lon="2.0496">
        <ele>112.4</ele>
        <time>2022-04-12T10:00:06Z</time>
      </trkpt>
      <trkpt lat="48.98259" lon="2.04965">
        <ele>112.3</ele>
        <time>2022-04-12T10:00:10Z</time>
      </trkpt>
      <trkpt lat="48.98256" lon="2.04972">
        <ele>111.4</ele>
        <time>2022-04-12T10:00:17Z</time>
      </trkpt>
      <trkpt lat="48.98253" lon="2.04978">
        <ele>110.6</ele>
        <time>2022-04-12T10:00:21Z</time>
      </trkpt>
      <trkpt lat="48.9825" lon="2.04985">
        <ele>109.5</ele>
        <time>2022-04-12T10:00:26Z</time>
      </trkpt>
      <trkpt lat="48.98247" lon="2.04992">
        <ele>108.4</ele>
        <time>2022-04-12T10:00:32Z</time>
      </trkpt>
      <trkpt lat="48.98244" lon="2.04999">
        <ele>107.1</ele>
        <time>2022-04-12T10:00:37Z</time>
      </trkpt>
      <trkpt lat="48.98241" lon="2.05004">
        <ele>106.7</ele>
        <time>2022-04-12T10:00:41Z</time>
      </trkpt>
      <trkpt lat="48.98239" lon="2.0501">
        <ele>107.4</ele>
        <time>2022-04-12T10:00:46Z</time>
      </trkpt>
      <trkpt lat="48.98236" lon="2.05016">
        <ele>107.5</ele>
        <time>2022-04-12T10:00:50Z</time>
      </trkpt>
      <trkpt lat="48.98232" lon="2.05021">
        <ele>106.3</ele>
        <time>2022-04-12T10:00:55Z</time>
      </trkpt>
      <trkpt lat="48.98228" lon="2.05026">
        <ele>105.5</ele>
        <time>2022-04-12T10:00:59Z</time>
      </trkpt>
      <trkpt lat="48.98226" lon="2.05032">
        <ele>104.9</ele>
        <time>2022-04-12T10:01:04Z</time>
      </trkpt>
      <trkpt lat="48.98224" lon="2.05039">
        <ele>104.9</ele>
        <time>2022-04-12T10:01:08Z</time>
      </trkpt>
      <trkpt lat="48.98224" lon="2.05046">
        <ele>104.3</ele>
        <time>2022-04-12T10:01:13Z</time>
      </trkpt>
      <trkpt lat="48.98222" lon="2.05054">
        <ele>104.3</ele>
        <time>2022-04-12T10:01:18Z</time>
      </trkpt>
      <trkpt lat="48.9822" lon="2.0506">
        <ele>104.6</ele>
        <time>2022-04-12T10:01:22Z</time>
      </trkpt>
      <trkpt lat="48.98219" lon="2.05067">
        <ele>104.4</ele>
        <time>2022-04-12T10:01:27Z</time>
      </trkpt>
      <trkpt lat="48.98218" lon="2.05076">
        <ele>103.5</ele>
        <time>2022-04-12T10:01:32Z</time>
      </trkpt>
      <trkpt lat="48.98216" lon="2.05083">
        <ele>102</ele>
        <time>2022-04-12T10:01:37Z</time>
      </trkpt>
      <trkpt lat="48.98213" lon="2.0509">
        <ele>100.2</ele>
        <time>2022-04-12T10:01:42Z</time>
      </trkpt>
      <trkpt lat="48.98211" lon="2.05097">
        <ele>100.4</ele>
        <time>2022-04-12T10:01:47Z</time>
      </trkpt>
      <trkpt lat="48.98209" lon="2.05104">
        <ele>98.6</ele>
        <time>2022-04-12T10:01:53Z</time>
      </trkpt>
      <trkpt lat="48.98208" lon="2.05111">
        <ele>98.5</ele>
        <time>2022-04-12T10:01:57Z</time>
      </trkpt>
      <trkpt lat="48.98208" lon="2.05118">
        <ele>96.8</ele>
        <time>2022-04-12T10:02:01Z</time>
      </trkpt>
      <trkpt lat="48.98206" lon="2.05126">
        <ele>97.2</ele>
        <time>2022-04-12T10:02:07Z</time>
      </trkpt>
      <trkpt lat="48.98205" lon="2.05134">
        <ele>96.3</ele>
        <time>2022-04-12T10:02:12Z</time>
      </trkpt>
      <trkpt lat="48.98203" lon="2.05142">
        <ele>92.6</ele>
        <time>2022-04-12T10:02:17Z</time>
      </trkpt>
      <trkpt lat="48.98201" lon="2.0515">
        <ele>92.4</ele>
        <time>2022-04-12T10:02:23Z</time>
      </trkpt>
      <trkpt lat="48.98199" lon="2.05157">
        <ele>93.1</ele>
        <time>2022-04-12T10:02:28Z</time>
      </trkpt>
      <trkpt lat="48.98199" lon="2.05164">
        <ele>92.5</ele>
        <time>2022-04-12T10:03:06Z</time>
      </trkpt>
      <trkpt lat="48.98198" lon="2.05171">
        <ele>90.5</ele>
        <time>2022-04-12T10:03:10Z</time>
      </trkpt>
      <trkpt lat="48.98196" lon="2.05179">
        <ele>91</ele>
        <time>2022-04-12T10:03:14Z</time>
      </trkpt>
      <trkpt lat="48.98193" lon="2.05186">
        <ele>91.5</ele>
        <time>2022-04-12T10:03:19Z</time>
      </trkpt>
      <trkpt lat="48.9819" lon="2.05191">
        <ele>87</ele>
        <time>2022-04-12T10:03:23Z</time>
      </trkpt>
      <trkpt lat="48.98186" lon="2.05195">
        <ele>87.1</ele>
        <time>2022-04-12T10:03:26Z</time>
      </trkpt>
      <trkpt lat="48.98186" lon="2.05203">
        <ele>88.8</ele>
        <time>2022-04-12T10:03:30Z</time>
      </trkpt>
      <trkpt lat="48.98185" lon="2.0521">
        <ele>89.1</ele>
        <time>2022-04-12T10:03:34Z</time>
      </trkpt>
      <trkpt lat="48.98183" lon="2.05218">
        <ele>89.2</ele>
        <time>2022-04-12T10:03:39Z</time>
      </trkpt>
      <trkpt lat="48.9818" lon="2.05225">
        <ele>89</ele>
        <time>2022-04-12T10:03:44Z</time>
      </trkpt>
      <trkpt lat="48.98179" lon="2.05233">
        <ele>89.3</ele>
        <time>2022-04-12T10:03:49Z</time>
      </trkpt>
      <trkpt lat="48.98177" lon="2.0524">
        <ele>89.8</ele>
        <time>2022-04-12T10:03:54Z</time>
      </trkpt>
      <trkpt lat="48.98175" lon="2.05247">
        <ele>90.4</ele>
        <time>2022-04-12T10:03:58Z</time>
      </trkpt>
      <trkpt lat="48.98173" lon="2.05254">
        <ele>88.6</ele>
        <time>2022-04-12T10:04:03Z</time>
      </trkpt>
      <trkpt lat="48.98169" lon="2.05259">
        <ele>89.4</ele>
        <time>2022-04-12T10:04:07Z</time>
      </trkpt>
      <trkpt lat="48.98164" lon="2.05258">
        <ele>89.6</ele>
        <time>2022-04-12T10:04:11Z</time>
      </trkpt>
      <trkpt lat="48.98159" lon="2.05256">
        <ele>89.6</ele>
        <time>2022-04-12T10:04:15Z</time>
      </trkpt>
      <trkpt lat="48.98154" lon="2.05256">
        <ele>89.6</ele>
        <time>2022-04-12T10:04:19Z</time>
      </trkpt>
      <trkpt lat="48.98149" lon="2.05261">
        <ele>89.1</ele>
        <time>2022-04-12T10:04:23Z</time>
      </trkpt>
      <trkpt lat="48.98146" lon="2.05267">
        <ele>86.7</ele>
        <time>2022-04-12T10:04:26Z</time>
      </trkpt>
      <trkpt lat="48.98144" lon="2.05274">
        <ele>87.4</ele>
        <time>2022-04-12T10:04:30Z</time>
      </trkpt>
      <trkpt lat="48.98141" lon="2.05279">
        <ele>86.4</ele>
        <time>2022-04-12T10:04:34Z</time>
      </trkpt>
      <trkpt lat="48.98138" lon="2.05285">
        <ele>85.7</ele>
        <time>2022-04-12T10:04:38Z</time>
      </trkpt>
      <trkpt lat="48.98135" lon="2.05291">
        <ele>85.3</ele>
        <time>2022-04-12T10:04:42Z</time>
      </trkpt>
      <trkpt lat="48.98132" lon="2.05297">
        <ele>84.3</ele>
        <time>2022-04-12T10:04:47Z</time>
      </trkpt>
      <trkpt lat="48.98129" lon="2.05303">
        <ele>86.2</ele>
        <time>2022-04-12T10:04:51Z</time>
      </trkpt>
      <trkpt lat="48.98124" lon="2.05309">
        <ele>86.5</ele>
        <time>2022-04-12T10:04:56Z</time>
      </trkpt>
      <trkpt lat="48.9812" lon="2.05313">
        <ele>83.2</ele>
        <time>2022-04-12T10:05:01Z</time>
      </trkpt>
      <trkpt lat="48.98118" lon="2.0532">
        <ele>83.3</ele>
        <time>2022-04-12T10:05:06Z</time>
      </trkpt>
      <trkpt lat="48.98115" lon="2.05327">
        <ele>81.3</ele>
        <time>2022-04-12T10:05:11Z</time>
      </trkpt>
      <trkpt lat="48.98113" lon="2.05335">
        <ele>80.4</ele>
        <time>2022-04-12T10:05:16Z</time>
      </trkpt>
      <trkpt lat="48.98109" lon="2.05341">
        <ele>76.2</ele>
        <time>2022-04-12T10:05:21Z</time>
      </trkpt>
      <trkpt lat="48.98105" lon="2.05347">
        <ele>75.3</ele>
        <time>2022-04-12T10:05:26Z</time>
      </trkpt>
      <trkpt lat="48.98103" lon="2.05353">
        <ele>75.5</ele>
        <time>2022-04-12T10:05:30Z</time>
      </trkpt>
      <trkpt lat="48.981" lon="2.05358">
        <ele>76.3</ele>
        <time>2022-04-12T10:05:34Z</time>
      </trkpt>
      <trkpt lat="48.98097" lon="2.05364">
        <ele>76.4</ele>
        <time>2022-04-12T10:05:38Z</time>
      </trkpt>
      <trkpt lat="48.98093" lon="2.05369">
        <ele>75.6</ele>
        <time>2022-04-12T10:05:42Z</time>
      </trkpt>
      <trkpt lat="48.9809" lon="2.05376">
        <ele>75.3</ele>
        <time>2022-04-12T10:05:47Z</time>
      </trkpt>
      <trkpt lat="48.98087" lon="2.05382">
        <ele>74.8</ele>
        <time>2022-04-12T10:05:51Z</time>
      </trkpt>
      <trkpt lat="48.98085" lon="2.05388">
        <ele>75.3</ele>
        <time>2022-04-12T10:05:55Z</time>
      </trkpt>
      <trkpt lat="48.98082" lon="2.05396">
        <ele>75.4</ele>
        <time>2022-04-12T10:06:00Z</time>
      </trkpt>
      <trkpt lat="48.9808" lon="2.05403">
        <ele>74.8</ele>
        <time>2022-04-12T10:06:04Z</time>
      </trkpt>
      <trkpt lat="48.98078" lon="2.0541">
        <ele>73.3</ele>
        <time>2022-04-12T10:06:09Z</time>
      </trkpt>
      <trkpt lat="48.98076" lon="2.05417">
        <ele>72.5</ele>
        <time>2022-04-12T10:06:13Z</time>
      </trkpt>
      <trkpt lat="48.98074" lon="2.05424">
        <ele>71.1</ele>
        <time>2022-04-12T10:06:18Z</time>
      </trkpt>
      <trkpt lat="48.98072" lon="2.05432">
        <ele>70.6</ele>
        <time>2022-04-12T10:06:22Z</time>
      </trkpt>
      <trkpt lat="48.9807" lon="2.05439">
        <ele>70.9</ele>
        <time>2022-04-12T10:06:26Z</time>
      </trkpt>
      <trkpt lat="48.98068" lon="2.05446">
        <ele>70.3</ele>
        <time>2022-04-12T10:06:31Z</time>
      </trkpt>
      <trkpt lat="48.98065" lon="2.05454">
        <ele>70.9</ele>
        <time>2022-04-12T10:06:36Z</time>
      </trkpt>
      <trkpt lat="48.98063" lon="2.05461">
        <ele>69.7</ele>
        <time>2022-04-12T10:06:40Z</time>
      </trkpt>
      <trkpt lat="48.98061" lon="2.05469">
        <ele>69.8</ele>
        <time>2022-04-12T10:06:44Z</time>
      </trkpt>
      <trkpt lat="48.98059" lon="2.05476">
        <ele>71.5</ele>
        <time>2022-04-12T10:06:49Z</time>
      </trkpt>
      <trkpt lat="48.98057" lon="2.05482">
        <ele>70.3</ele>
        <time>2022-04-12T10:06:52Z</time>
      </trkpt>
      <trkpt lat="48.98054" lon="2.05489">
        <ele>68.2</ele>
        <time>2022-04-12T10:06:57Z</time>
      </trkpt>
      <trkpt lat="48.98052" lon="2.05496">
        <ele>67.2</ele>
        <time>2022-04-12T10:07:00Z</time>
      </trkpt>
      <trkpt lat="48.98051" lon="2.05503">
        <ele>63.8</ele>
        <time>2022-04-12T10:07:05Z</time>
      </trkpt>
      <trkpt lat="48.98049" lon="2.05511">
        <ele>62</ele>
        <time>2022-04-12T10:07:10Z</time>
      </trkpt>
      <trkpt lat="48.98047" lon="2.05517">
        <ele>64.6</ele>
        <time>2022-04-12T10:07:14Z</time>
      </trkpt>
      <trkpt lat="48.98044" lon="2.05524">
        <ele>64.5</ele>
        <time>2022-04-12T10:07:18Z</time>
      </trkpt>
      <trkpt lat="48.98041" lon="2.05531">
        <ele>64.5</ele>
        <time>2022-04-12T10:07:23Z</time>
      </trkpt>
      <trkpt lat="48.98038" lon="2.05537">
        <ele>64.2</ele>
        <time>2022-04-12T10:07:27Z</time>
      </trkpt>
      <trkpt lat="48.98033" lon="2.0554">
        <ele>65</ele>
        <time>2022-04-12T10:07:32Z</time>
      </trkpt>
      <trkpt lat="48.98028" lon="2.05535">
        <ele>64.1</ele>
        <time>2022-04-12T10:07:36Z</time>
      </trkpt>
      <trkpt lat="48.98024" lon="2.05531">
        <ele>63.3</ele>
        <time>2022-04-12T10:07:40Z</time>
      </trkpt>
      <trkpt lat="48.98021" lon="2.05524">
        <ele>60.9</ele>
        <time>2022-04-12T10:07:44Z</time>
      </trkpt>
      <trkpt lat="48.98018" lon="2.05517">
        <ele>60.2</ele>
        <time>2022-04-12T10:07:49Z</time>
      </trkpt>
      <trkpt lat="48.98015" lon="2.0551">
        <ele>59.3</ele>
        <time>2022-04-12T10:07:54Z</time>
      </trkpt>
      <trkpt lat="48.98012" lon="2.05503">
        <ele>60.4</ele>
        <time>2022-04-12T10:07:58Z</time>
      </trkpt>
      <trkpt lat="48.98007" lon="2.05498">
        <ele>60.1</ele>
        <time>2022-04-12T10:08:03Z</time>
      </trkpt>
      <trkpt lat="48.98003" lon="2.05493">
        <ele>60.6</ele>
        <time>2022-04-12T10:08:08Z</time>
      </trkpt>
      <trkpt lat="48.97999" lon="2.05485">
        <ele>61.7</ele>
        <time>2022-04-12T10:08:13Z</time>
      </trkpt>
      <trkpt lat="48.97996" lon="2.0548">
        <ele>62.4</ele>
        <time>2022-04-12T10:08:17Z</time>
      </trkpt>
      <trkpt lat="48.97992" lon="2.05475">
        <ele>62.1</ele>
        <time>2022-04-12T10:08:21Z</time>
      </trkpt>
      <trkpt lat="48.97988" lon="2.05471">
        <ele>62.5</ele>
        <time>2022-04-12T10:08:25Z</time>
      </trkpt>
      <trkpt lat="48.97984" lon="2.05464">
        <ele>60</ele>
        <time>2022-04-12T10:08:30Z</time>
      </trkpt>
      <trkpt lat="48.97982" lon="2.05457">
        <ele>60.7</ele>
        <time>2022-04-12T10:08:34Z</time>
      </trkpt>
      <trkpt lat="48.97979" lon="2.05451">
        <ele>60.3</ele>
        <time>2022-04-12T10:08:38Z</time>
      </trkpt>
      <trkpt lat="48.97975" lon="2.05446">
        <ele>59.3</ele>
        <time>2022-04-12T10:08:41Z</time>
      </trkpt>
      <trkpt lat="48.9797" lon="2.05441">
        <ele>59.9</ele>
        <time>2022-04-12T10:08:46Z</time>
      </trkpt>
      <trkpt lat="48.97967" lon="2.05435">
        <ele>59.2</ele>
        <time>2022-04-12T10:08:50Z</time>
      </trkpt>
      <trkpt lat="48.97963" lon="2.05431">
        <ele>59.5</ele>
        <time>2022-04-12T10:08:54Z</time>
      </trkpt>
      <trkpt lat="48.97959" lon="2.05426">
        <ele>60.7</ele>
        <time>2022-04-12T10:08:57Z</time>
      </trkpt>
      <trkpt lat="48.97957" lon="2.0542">
        <ele>59.2</ele>
        <time>2022-04-12T10:09:01Z</time>
      </trkpt>
      <trkpt lat="48.97956" lon="2.05412">
        <ele>58.4</ele>
        <time>2022-04-12T10:09:05Z</time>
      </trkpt>
      <trkpt lat="48.97952" lon="2.05407">
        <ele>56.4</ele>
        <time>2022-04-12T10:09:09Z</time>
      </trkpt>
      <trkpt lat="48.97947" lon="2.05402">
        <ele>56.4</ele>
        <time>2022-04-12T10:09:14Z</time>
      </trkpt>
      <trkpt lat="48.97943" lon="2.05397">
        <ele>56.2</ele>
        <time>2022-04-12T10:09:18Z</time>
      </trkpt>
      <trkpt lat="48.97939" lon="2.05391">
        <ele>55.7</ele>
        <time>2022-04-12T10:09:22Z</time>
      </trkpt>
      <trkpt lat="48.97935" lon="2.05385">
        <ele>52.6</ele>
        <time>2022-04-12T10:09:26Z</time>
      </trkpt>
      <trkpt lat="48.9793" lon="2.05379">
        <ele>54.9</ele>
        <time>2022-04-12T10:09:31Z</time>
      </trkpt>
      <trkpt lat="48.97927" lon="2.05372">
        <ele>56.6</ele>
        <time>2022-04-12T10:09:35Z</time>
      </trkpt>
      <trkpt lat="48.97923" lon="2.05367">
        <ele>55.2</ele>
        <time>2022-04-12T10:09:39Z</time>
      </trkpt>
      <trkpt lat="48.9792" lon="2.05361">
        <ele>54.8</ele>
        <time>2022-04-12T10:09:43Z</time>
      </trkpt>
      <trkpt lat="48.97916" lon="2.05356">
        <ele>54.2</ele>
        <time>2022-04-12T10:09:46Z</time>
      </trkpt>
      <trkpt lat="48.97912" lon="2.05351">
        <ele>54.3</ele>
        <time>2022-04-12T10:09:50Z</time>
      </trkpt>
      <trkpt lat="48.97909" lon="2.05344">
        <ele>54.7</ele>
        <time>2022-04-12T10:09:54Z</time>
      </trkpt>
      <trkpt lat="48.97907" lon="2.05338">
        <ele>53.8</ele>
        <time>2022-04-12T10:09:58Z</time>
      </trkpt>
      <trkpt lat="48.97904" lon="2.05332">
        <ele>55.9</ele>
        <time>2022-04-12T10:10:01Z</time>
      </trkpt>
      <trkpt lat="48.979" lon="2.05326">
        <ele>53.8</ele>
        <time>2022-04-12T10:10:06Z</time>
      </trkpt>
      <trkpt lat="48.97896" lon="2.05321">
        <ele>53.8</ele>
        <time>2022-04-12T10:10:09Z</time>
      </trkpt>
      <trkpt lat="48.97892" lon="2.05317">
        <ele>55</ele>
        <time>2022-04-12T10:10:13Z</time>
      </trkpt>
      <trkpt lat="48.97888" lon="2.0531">
        <ele>54.2</ele>
        <time>2022-04-12T10:10:18Z</time>
      </trkpt>
      <trkpt lat="48.97884" lon="2.05308">
        <ele>63.9</ele>
        <time>2022-04-12T10:10:52Z</time>
      </trkpt>
      <trkpt lat="48.97884" lon="2.05301">
        <ele>64</ele>
        <time>2022-04-12T10:10:55Z</time>
      </trkpt>
      <trkpt lat="48.97881" lon="2.05293">
        <ele>64.7</ele>
        <time>2022-04-12T10:11:00Z</time>
      </trkpt>
      <trkpt lat="48.97877" lon="2.05289">
        <ele>60.9</ele>
        <time>2022-04-12T10:11:06Z</time>
      </trkpt>
      <trkpt lat="48.97877" lon="2.05297">
        <ele>58.7</ele>
        <time>2022-04-12T10:12:26Z</time>
      </trkpt>
      <trkpt lat="48.97876" lon="2.05304">
        <ele>60</ele>
        <time>2022-04-12T10:12:33Z</time>
      </trkpt>
      <trkpt lat="48.97873" lon="2.05298">
        <ele>57.9</ele>
        <time>2022-04-12T10:12:43Z</time>
      </trkpt>
      <trkpt lat="48.97871" lon="2.0529">
        <ele>60.4</ele>
        <time>2022-04-12T10:13:07Z</time>
      </trkpt>
      <trkpt lat="48.97869" lon="2.05283">
        <ele>60.3</ele>
        <time>2022-04-12T10:13:11Z</time>
      </trkpt>
      <trkpt lat="48.97865" lon="2.05277">
        <ele>59.8</ele>
        <time>2022-04-12T10:13:14Z</time>
      </trkpt>
      <trkpt lat="48.97861" lon="2.05272">
        <ele>60</ele>
        <time>2022-04-12T10:13:17Z</time>
      </trkpt>
      <trkpt lat="48.97858" lon="2.05267">
        <ele>60.1</ele>
        <time>2022-04-12T10:13:21Z</time>
      </trkpt>
      <trkpt lat="48.97854" lon="2.05261">
        <ele>60.6</ele>
        <time>2022-04-12T10:13:25Z</time>
      </trkpt>
      <trkpt lat="48.97851" lon="2.05254">
        <ele>61.6</ele>
        <time>2022-04-12T10:13:29Z</time>
      </trkpt>
      <trkpt lat="48.97848" lon="2.05248">
        <ele>62.8</ele>
        <time>2022-04-12T10:13:32Z</time>
      </trkpt>
      <trkpt lat="48.97844" lon="2.05243">
        <ele>62.8</ele>
        <time>2022-04-12T10:13:35Z</time>
      </trkpt>
      <trkpt lat="48.9784" lon="2.05239">
        <ele>61.5</ele>
        <time>2022-04-12T10:13:39Z</time>
      </trkpt>
      <trkpt lat="48.97834" lon="2.05235">
        <ele>61.3</ele>
        <time>2022-04-12T10:13:44Z</time>
      </trkpt>
      <trkpt lat="48.97829" lon="2.0523">
        <ele>58.4</ele>
        <time>2022-04-12T10:13:48Z</time>
      </trkpt>
      <trkpt lat="48.97824" lon="2.05226">
        <ele>61.1</ele>
        <time>2022-04-12T10:13:52Z</time>
      </trkpt>
      <trkpt lat="48.9782" lon="2.05222">
        <ele>60.9</ele>
        <time>2022-04-12T10:13:55Z</time>
      </trkpt>
      <trkpt lat="48.97816" lon="2.05218">
        <ele>61</ele>
        <time>2022-04-12T10:13:59Z</time>
      </trkpt>
      <trkpt lat="48.9781" lon="2.05215">
        <ele>61.9</ele>
        <time>2022-04-12T10:14:04Z</time>
      </trkpt>
      <trkpt lat="48.97806" lon="2.05212">
        <ele>61.3</ele>
        <time>2022-04-12T10:14:08Z</time>
      </trkpt>
      <trkpt lat="48.97802" lon="2.05208">
        <ele>62</ele>
        <time>2022-04-12T10:14:11Z</time>
      </trkpt>
      <trkpt lat="48.97798" lon="2.05202">
        <ele>62.4</ele>
        <time>2022-04-12T10:14:15Z</time>
      </trkpt>
      <trkpt lat="48.97795" lon="2.05198">
        <ele>61.4</ele>
        <time>2022-04-12T10:14:19Z</time>
      </trkpt>
      <trkpt lat="48.9779" lon="2.05193">
        <ele>59.1</ele>
        <time>2022-04-12T10:14:23Z</time>
      </trkpt>
      <trkpt lat="48.97786" lon="2.05189">
        <ele>58.2</ele>
        <time>2022-04-12T10:14:26Z</time>
      </trkpt>
      <trkpt lat="48.97781" lon="2.05185">
        <ele>59.5</ele>
        <time>2022-04-12T10:14:30Z</time>
      </trkpt>
      <trkpt lat="48.97776" lon="2.05182">
        <ele>58.8</ele>
        <time>2022-04-12T10:14:35Z</time>
      </trkpt>
      <trkpt lat="48.97771" lon="2.0518">
        <ele>58.1</ele>
        <time>2022-04-12T10:14:39Z</time>
      </trkpt>
      <trkpt lat="48.97765" lon="2.05179">
        <ele>57.6</ele>
        <time>2022-04-12T10:14:42Z</time>
      </trkpt>
      <trkpt lat="48.9776" lon="2.05178">
        <ele>57.6</ele>
        <time>2022-04-12T10:14:46Z</time>
      </trkpt>
      <trkpt lat="48.97755" lon="2.05177">
        <ele>57.4</ele>
        <time>2022-04-12T10:14:50Z</time>
      </trkpt>
      <trkpt lat="48.9775" lon="2.05177">
        <ele>58</ele>
        <time>2022-04-12T10:14:54Z</time>
      </trkpt>
      <trkpt lat="48.97745" lon="2.05177">
        <ele>57.8</ele>
        <time>2022-04-12T10:14:58Z</time>
      </trkpt>
      <trkpt lat="48.9774" lon="2.05178">
        <ele>58.5</ele>
        <time>2022-04-12T10:15:02Z</time>
      </trkpt>
      <trkpt lat="48.97734" lon="2.0518">
        <ele>57.7</ele>
        <time>2022-04-12T10:15:06Z</time>
      </trkpt>
      <trkpt lat="48.97729" lon="2.05181">
        <ele>57.5</ele>
        <time>2022-04-12T10:15:10Z</time>
      </trkpt>
      <trkpt lat="48.97724" lon="2.05181">
        <ele>57.6</ele>
        <time>2022-04-12T10:15:14Z</time>
      </trkpt>
      <trkpt lat="48.97718" lon="2.05181">
        <ele>57.1</ele>
        <time>2022-04-12T10:15:18Z</time>
      </trkpt>
      <trkpt lat="48.97713" lon="2.05181">
        <ele>54</ele>
        <time>2022-04-12T10:15:22Z</time>
      </trkpt>
      <trkpt lat="48.97709" lon="2.0518">
        <ele>52.4</ele>
        <time>2022-04-12T10:15:26Z</time>
      </trkpt>
      <trkpt lat="48.97704" lon="2.05182">
        <ele>51.8</ele>
        <time>2022-04-12T10:15:29Z</time>
      </trkpt>
      <trkpt lat="48.97699" lon="2.05181">
        <ele>51.2</ele>
        <time>2022-04-12T10:15:34Z</time>
      </trkpt>
      <trkpt lat="48.97693" lon="2.05179">
        <ele>50.2</ele>
        <time>2022-04-12T10:15:39Z</time>
      </trkpt>
      <trkpt lat="48.97689" lon="2.05179">
        <ele>48.3</ele>
        <time>2022-04-12T10:15:43Z</time>
      </trkpt>
      <trkpt lat="48.97684" lon="2.05179">
        <ele>48.4</ele>
        <time>2022-04-12T10:15:47Z</time>
      </trkpt>
      <trkpt lat="48.97679" lon="2.05179">
        <ele>48.5</ele>
        <time>2022-04-12T10:15:51Z</time>
      </trkpt>
      <trkpt lat="48.97674" lon="2.05178">
        <ele>51.4</ele>
        <time>2022-04-12T10:15:55Z</time>
      </trkpt>
      <trkpt lat="48.97669" lon="2.05177">
        <ele>51.1</ele>
        <time>2022-04-12T10:15:59Z</time>
      </trkpt>
      <trkpt lat="48.97665" lon="2.05176">
        <ele>48.8</ele>
        <time>2022-04-12T10:16:03Z</time>
      </trkpt>
      <trkpt lat="48.97661" lon="2.05172">
        <ele>50.2</ele>
        <time>2022-04-12T10:16:07Z</time>
      </trkpt>
      <trkpt lat="48.97657" lon="2.05167">
        <ele>50.5</ele>
        <time>2022-04-12T10:16:11Z</time>
      </trkpt>
      <trkpt lat="48.97653" lon="2.05163">
        <ele>51.4</ele>
        <time>2022-04-12T10:16:15Z</time>
      </trkpt>
      <trkpt lat="48.97649" lon="2.05157">
        <ele>51.5</ele>
        <time>2022-04-12T10:16:19Z</time>
      </trkpt>
      <trkpt lat="48.97645" lon="2.05151">
        <ele>50.1</ele>
        <time>2022-04-12T10:16:24Z</time>
      </trkpt>
      <trkpt lat="48.97641" lon="2.05145">
        <ele>50.5</ele>
        <time>2022-04-12T10:16:28Z</time>
      </trkpt>
      <trkpt lat="48.97637" lon="2.05138">
        <ele>49.4</ele>
        <time>2022-04-12T10:16:33Z</time>
      </trkpt>
      <trkpt lat="48.97635" lon="2.05131">
        <ele>49.4</ele>
        <time>2022-04-12T10:16:37Z</time>
      </trkpt>
      <trkpt lat="48.97631" lon="2.05126">
        <ele>49.6</ele>
        <time>2022-04-12T10:16:41Z</time>
      </trkpt>
      <trkpt lat="48.97628" lon="2.05121">
        <ele>49.6</ele>
        <time>2022-04-12T10:16:45Z</time>
      </trkpt>
      <trkpt lat="48.97624" lon="2.05115">
        <ele>48.6</ele>
        <time>2022-04-12T10:16:49Z</time>
      </trkpt>
      <trkpt lat="48.97622" lon="2.05109">
        <ele>49.1</ele>
        <time>2022-04-12T10:16:52Z</time>
      </trkpt>
      <trkpt lat="48.9762" lon="2.05101">
        <ele>49.6</ele>
        <time>2022-04-12T10:16:56Z</time>
      </trkpt>
      <trkpt lat="48.97617" lon="2.05093">
        <ele>49.2</ele>
        <time>2022-04-12T10:17:00Z</time>
      </trkpt>
      <trkpt lat="48.97613" lon="2.05088">
        <ele>49.1</ele>
        <time>2022-04-12T10:17:04Z</time>
      </trkpt>
      <trkpt lat="48.9761" lon="2.05084">
        <ele>48.7</ele>
        <time>2022-04-12T10:17:08Z</time>
      </trkpt>
      <trkpt lat="48.97606" lon="2.05079">
        <ele>49.2</ele>
        <time>2022-04-12T10:17:12Z</time>
      </trkpt>
      <trkpt lat="48.97601" lon="2.05073">
        <ele>52</ele>
        <time>2022-04-12T10:17:16Z</time>
      </trkpt>
      <trkpt lat="48.97598" lon="2.05067">
        <ele>53.9</ele>
        <time>2022-04-12T10:17:20Z</time>
      </trkpt>
      <trkpt lat="48.97594" lon="2.05061">
        <ele>53.3</ele>
        <time>2022-04-12T10:17:24Z</time>
      </trkpt>
      <trkpt lat="48.97591" lon="2.05056">
        <ele>52.4</ele>
        <time>2022-04-12T10:17:28Z</time>
      </trkpt>
      <trkpt lat="48.97588" lon="2.0505">
        <ele>52</ele>
        <time>2022-04-12T10:17:31Z</time>
      </trkpt>
      <trkpt lat="48.97585" lon="2.05044">
        <ele>51.8</ele>
        <time>2022-04-12T10:17:35Z</time>
      </trkpt>
      <trkpt lat="48.97582" lon="2.05037">
        <ele>51.7</ele>
        <time>2022-04-12T10:17:39Z</time>
      </trkpt>
      <trkpt lat="48.97578" lon="2.05032">
        <ele>51.3</ele>
        <time>2022-04-12T10:17:44Z</time>
      </trkpt>
      <trkpt lat="48.97574" lon="2.05028">
        <ele>52.4</ele>
        <time>2022-04-12T10:17:48Z</time>
      </trkpt>
      <trkpt lat="48.97569" lon="2.05028">
        <ele>52.6</ele>
        <time>2022-04-12T10:17:51Z</time>
      </trkpt>
      <trkpt lat="48.97565" lon="2.05031">
        <ele>51.6</ele>
        <time>2022-04-12T10:17:55Z</time>
      </trkpt>
      <trkpt lat="48.97562" lon="2.05038">
        <ele>51.6</ele>
        <time>2022-04-12T10:17:58Z</time>
      </trkpt>
      <trkpt lat="48.97559" lon="2.05043">
        <ele>51.8</ele>
        <time>2022-04-12T10:18:01Z</time>
      </trkpt>
      <trkpt lat="48.97556" lon="2.05048">
        <ele>53</ele>
        <time>2022-04-12T10:18:05Z</time>
      </trkpt>
      <trkpt lat="48.97552" lon="2.05054">
        <ele>54.8</ele>
        <time>2022-04-12T10:18:09Z</time>
      </trkpt>
      <trkpt lat="48.97548" lon="2.05059">
        <ele>55.4</ele>
        <time>2022-04-12T10:18:13Z</time>
      </trkpt>
      <trkpt lat="48.97544" lon="2.05063">
        <ele>54.8</ele>
        <time>2022-04-12T10:18:17Z</time>
      </trkpt>
      <trkpt lat="48.97539" lon="2.05062">
        <ele>54.4</ele>
        <time>2022-04-12T10:18:22Z</time>
      </trkpt>
      <trkpt lat="48.97536" lon="2.05057">
        <ele>53.3</ele>
        <time>2022-04-12T10:18:25Z</time>
      </trkpt>
      <trkpt lat="48.97532" lon="2.05052">
        <ele>51</ele>
        <time>2022-04-12T10:18:29Z</time>
      </trkpt>
      <trkpt lat="48.97527" lon="2.05051">
        <ele>50.3</ele>
        <time>2022-04-12T10:18:33Z</time>
      </trkpt>
      <trkpt lat="48.97522" lon="2.05049">
        <ele>50.4</ele>
        <time>2022-04-12T10:18:37Z</time>
      </trkpt>
      <trkpt lat="48.97519" lon="2.05043">
        <ele>52</ele>
        <time>2022-04-12T10:18:42Z</time>
      </trkpt>
      <trkpt lat="48.97516" lon="2.05037">
        <ele>51.5</ele>
        <time>2022-04-12T10:18:46Z</time>
      </trkpt>
      <trkpt lat="48.97513" lon="2.0503">
        <ele>50.7</ele>
        <time>2022-04-12T10:18:50Z</time>
      </trkpt>
      <trkpt lat="48.97509" lon="2.05024">
        <ele>48.5</ele>
        <time>2022-04-12T10:18:54Z</time>
      </trkpt>
      <trkpt lat="48.97506" lon="2.05018">
        <ele>50.5</ele>
        <time>2022-04-12T10:18:58Z</time>
      </trkpt>
      <trkpt lat="48.97503" lon="2.05013">
        <ele>50.5</ele>
        <time>2022-04-12T10:19:02Z</time>
      </trkpt>
      <trkpt lat="48.97497" lon="2.05016">
        <ele>49.4</ele>
        <time>2022-04-12T10:19:06Z</time>
      </trkpt>
      <trkpt lat="48.97493" lon="2.05021">
        <ele>52.3</ele>
        <time>2022-04-12T10:19:11Z</time>
      </trkpt>
      <trkpt lat="48.97489" lon="2.05024">
        <ele>50</ele>
        <time>2022-04-12T10:19:15Z</time>
      </trkpt>
      <trkpt lat="48.97483" lon="2.05025">
        <ele>48.3</ele>
        <time>2022-04-12T10:19:20Z</time>
      </trkpt>
      <trkpt lat="48.97479" lon="2.0502">
        <ele>50.6</ele>
        <time>2022-04-12T10:19:24Z</time>
      </trkpt>
      <trkpt lat="48.97475" lon="2.05013">
        <ele>50.8</ele>
        <time>2022-04-12T10:19:28Z</time>
      </trkpt>
      <trkpt lat="48.97472" lon="2.05008">
        <ele>50.7</ele>
        <time>2022-04-12T10:19:33Z</time>
      </trkpt>
      <trkpt lat="48.97468" lon="2.05003">
        <ele>51.4</ele>
        <time>2022-04-12T10:19:37Z</time>
      </trkpt>
      <trkpt lat="48.97464" lon="2.04997">
        <ele>50.1</ele>
        <time>2022-04-12T10:19:41Z</time>
      </trkpt>
      <trkpt lat="48.97459" lon="2.04993">
        <ele>50.2</ele>
        <time>2022-04-12T10:19:46Z</time>
      </trkpt>
      <trkpt lat="48.97455" lon="2.04988">
        <ele>48.1</ele>
        <time>2022-04-12T10:19:50Z</time>
      </trkpt>
      <trkpt lat="48.9745" lon="2.04983">
        <ele>47</ele>
        <time>2022-04-12T10:19:55Z</time>
      </trkpt>
      <trkpt lat="48.97447" lon="2.04977">
        <ele>46.5</ele>
        <time>2022-04-12T10:19:59Z</time>
      </trkpt>
      <trkpt lat="48.97443" lon="2.04973">
        <ele>46</ele>
        <time>2022-04-12T10:20:03Z</time>
      </trkpt>
      <trkpt lat="48.97439" lon="2.04969">
        <ele>46.2</ele>
        <time>2022-04-12T10:20:07Z</time>
      </trkpt>
      <trkpt lat="48.97434" lon="2.04966">
        <ele>45.9</ele>
        <time>2022-04-12T10:20:11Z</time>
      </trkpt>
      <trkpt lat="48.9743" lon="2.04962">
        <ele>45.3</ele>
        <time>2022-04-12T10:20:15Z</time>
      </trkpt>
      <trkpt lat="48.97426" lon="2.04957">
        <ele>44.4</ele>
        <time>2022-04-12T10:20:19Z</time>
      </trkpt>
      <trkpt lat="48.97423" lon="2.04953">
        <ele>44.2</ele>
        <time>2022-04-12T10:20:23Z</time>
      </trkpt>
      <trkpt lat="48.97418" lon="2.04949">
        <ele>43.9</ele>
        <time>2022-04-12T10:20:26Z</time>
      </trkpt>
      <trkpt lat="48.97415" lon="2.04944">
        <ele>45</ele>
        <time>2022-04-12T10:20:30Z</time>
      </trkpt>
      <trkpt lat="48.97409" lon="2.04938">
        <ele>44.4</ele>
        <time>2022-04-12T10:20:35Z</time>
      </trkpt>
      <trkpt lat="48.97404" lon="2.04934">
        <ele>43.7</ele>
        <time>2022-04-12T10:20:40Z</time>
      </trkpt>
      <trkpt lat="48.97399" lon="2.04931">
        <ele>42.8</ele>
        <time>2022-04-12T10:20:44Z</time>
      </trkpt>
      <trkpt lat="48.97395" lon="2.04927">
        <ele>43.5</ele>
        <time>2022-04-12T10:20:49Z</time>
      </trkpt>
      <trkpt lat="48.9739" lon="2.04924">
        <ele>41.3</ele>
        <time>2022-04-12T10:20:53Z</time>
      </trkpt>
      <trkpt lat="48.97386" lon="2.04919">
        <ele>41</ele>
        <time>2022-04-12T10:20:57Z</time>
      </trkpt>
      <trkpt lat="48.97382" lon="2.04914">
        <ele>43.8</ele>
        <time>2022-04-12T10:21:01Z</time>
      </trkpt>
      <trkpt lat="48.97378" lon="2.04908">
        <ele>45.4</ele>
        <time>2022-04-12T10:21:05Z</time>
      </trkpt>
      <trkpt lat="48.97374" lon="2.04902">
        <ele>44.6</ele>
        <time>2022-04-12T10:21:08Z</time>
      </trkpt>
      <trkpt lat="48.9737" lon="2.04898">
        <ele>43.6</ele>
        <time>2022-04-12T10:21:12Z</time>
      </trkpt>
      <trkpt lat="48.97366" lon="2.04893">
        <ele>41.7</ele>
        <time>2022-04-12T10:21:16Z</time>
      </trkpt>
      <trkpt lat="48.97362" lon="2.04889">
        <ele>42.2</ele>
        <time>2022-04-12T10:21:20Z</time>
      </trkpt>
      <trkpt lat="48.97358" lon="2.04885">
        <ele>43.3</ele>
        <time>2022-04-12T10:21:24Z</time>
      </trkpt>
      <trkpt lat="48.97353" lon="2.04881">
        <ele>41.4</ele>
        <time>2022-04-12T10:21:28Z</time>
      </trkpt>
      <trkpt lat="48.97349" lon="2.04877">
        <ele>40</ele>
        <time>2022-04-12T10:21:32Z</time>
      </trkpt>
      <trkpt lat="48.97345" lon="2.04872">
        <ele>40.8</ele>
        <time>2022-04-12T10:21:35Z</time>
      </trkpt>
      <trkpt lat="48.97341" lon="2.04868">
        <ele>40.7</ele>
        <time>2022-04-12T10:21:39Z</time>
      </trkpt>
      <trkpt lat="48.97337" lon="2.04862">
        <ele>39.8</ele>
        <time>2022-04-12T10:21:44Z</time>
      </trkpt>
      <trkpt lat="48.97333" lon="2.04857">
        <ele>37</ele>
        <time>2022-04-12T10:21:48Z</time>
      </trkpt>
      <trkpt lat="48.9733" lon="2.04862">
        <ele>41.4</ele>
        <time>2022-04-12T10:21:58Z</time>
      </trkpt>
      <trkpt lat="48.97326" lon="2.04857">
        <ele>42.9</ele>
        <time>2022-04-12T10:22:12Z</time>
      </trkpt>
      <trkpt lat="48.97322" lon="2.04852">
        <ele>42.9</ele>
        <time>2022-04-12T10:22:16Z</time>
      </trkpt>
      <trkpt lat="48.97319" lon="2.04847">
        <ele>43.2</ele>
        <time>2022-04-12T10:22:20Z</time>
      </trkpt>
      <trkpt lat="48.97315" lon="2.04841">
        <ele>44.1</ele>
        <time>2022-04-12T10:22:25Z</time>
      </trkpt>
      <trkpt lat="48.9731" lon="2.04841">
        <ele>44.2</ele>
        <time>2022-04-12T10:22:30Z</time>
      </trkpt>
      <trkpt lat="48.97307" lon="2.04836">
        <ele>44.3</ele>
        <time>2022-04-12T10:22:35Z</time>
      </trkpt>
      <trkpt lat="48.97301" lon="2.04833">
        <ele>44.7</ele>
        <time>2022-04-12T10:22:39Z</time>
      </trkpt>
      <trkpt lat="48.97297" lon="2.04829">
        <ele>45.1</ele>
        <time>2022-04-12T10:22:42Z</time>
      </trkpt>
      <trkpt lat="48.97292" lon="2.04825">
        <ele>43.9</ele>
        <time>2022-04-12T10:22:46Z</time>
      </trkpt>
      <trkpt lat="48.97288" lon="2.0482">
        <ele>44</ele>
        <time>2022-04-12T10:22:50Z</time>
      </trkpt>
      <trkpt lat="48.97285" lon="2.04813">
        <ele>43.8</ele>
        <time>2022-04-12T10:22:54Z</time>
      </trkpt>
      <trkpt lat="48.9728" lon="2.04808">
        <ele>44.6</ele>
        <time>2022-04-12T10:22:58Z</time>
      </trkpt>
      <trkpt lat="48.97276" lon="2.04805">
        <ele>43.1</ele>
        <time>2022-04-12T10:23:02Z</time>
      </trkpt>
      <trkpt lat="48.97272" lon="2.04801">
        <ele>45.6</ele>
        <time>2022-04-12T10:23:06Z</time>
      </trkpt>
      <trkpt lat="48.97268" lon="2.04798">
        <ele>46.5</ele>
        <time>2022-04-12T10:23:10Z</time>
      </trkpt>
      <trkpt lat="48.97264" lon="2.04794">
        <ele>47.2</ele>
        <time>2022-04-12T10:23:14Z</time>
      </trkpt>
      <trkpt lat="48.97258" lon="2.04793">
        <ele>47.9</ele>
        <time>2022-04-12T10:23:18Z</time>
      </trkpt>
      <trkpt lat="48.97255" lon="2.04799">
        <ele>48.5</ele>
        <time>2022-04-12T10:23:21Z</time>
      </trkpt>
      <trkpt lat="48.97253" lon="2.04806">
        <ele>47.1</ele>
        <time>2022-04-12T10:23:25Z</time>
      </trkpt>
      <trkpt lat="48.97253" lon="2.04813">
        <ele>47.4</ele>
        <time>2022-04-12T10:23:30Z</time>
      </trkpt>
      <trkpt lat="48.9726" lon="2.04824">
        <ele>48</ele>
        <time>2022-04-12T10:23:43Z</time>
      </trkpt>
      <trkpt lat="48.97257" lon="2.0483">
        <ele>44.2</ele>
        <time>2022-04-12T10:23:46Z</time>
      </trkpt>
      <trkpt lat="48.97255" lon="2.04836">
        <ele>43.9</ele>
        <time>2022-04-12T10:23:49Z</time>
      </trkpt>
      <trkpt lat="48.97251" lon="2.04842">
        <ele>39.1</ele>
        <time>2022-04-12T10:23:53Z</time>
      </trkpt>
      <trkpt lat="48.97251" lon="2.0485">
        <ele>36.8</ele>
        <time>2022-04-12T10:23:57Z</time>
      </trkpt>
      <trkpt lat="48.97255" lon="2.04856">
        <ele>36.5</ele>
        <time>2022-04-12T10:24:01Z</time>
      </trkpt>
      <trkpt lat="48.9726" lon="2.04859">
        <ele>38.6</ele>
        <time>2022-04-12T10:24:05Z</time>
      </trkpt>
      <trkpt lat="48.97265" lon="2.0486">
        <ele>38.5</ele>
        <time>2022-04-12T10:24:09Z</time>
      </trkpt>
      <trkpt lat="48.97269" lon="2.04864">
        <ele>42.6</ele>
        <time>2022-04-12T10:24:15Z</time>
      </trkpt>
      <trkpt lat="48.97268" lon="2.04873">
        <ele>39.3</ele>
        <time>2022-04-12T10:24:19Z</time>
      </trkpt>
      <trkpt lat="48.97264" lon="2.04879">
        <ele>37.6</ele>
        <time>2022-04-12T10:24:22Z</time>
      </trkpt>
      <trkpt lat="48.97259" lon="2.04884">
        <ele>38.8</ele>
        <time>2022-04-12T10:24:26Z</time>
      </trkpt>
      <trkpt lat="48.97256" lon="2.04889">
        <ele>38.5</ele>
        <time>2022-04-12T10:24:29Z</time>
      </trkpt>
      <trkpt lat="48.97252" lon="2.04894">
        <ele>38</ele>
        <time>2022-04-12T10:24:32Z</time>
      </trkpt>
      <trkpt lat="48.9725" lon="2.04901">
        <ele>35.3</ele>
        <time>2022-04-12T10:24:37Z</time>
      </trkpt>
      <trkpt lat="48.97247" lon="2.04908">
        <ele>35.5</ele>
        <time>2022-04-12T10:24:42Z</time>
      </trkpt>
      <trkpt lat="48.97245" lon="2.04915">
        <ele>36.6</ele>
        <time>2022-04-12T10:24:46Z</time>
      </trkpt>
      <trkpt lat="48.97242" lon="2.04921">
        <ele>38.3</ele>
        <time>2022-04-12T10:24:51Z</time>
      </trkpt>
      <trkpt lat="48.97239" lon="2.04928">
        <ele>36.6</ele>
        <time>2022-04-12T10:24:56Z</time>
      </trkpt>
      <trkpt lat="48.97239" lon="2.04936">
        <ele>36.8</ele>
        <time>2022-04-12T10:25:01Z</time>
      </trkpt>
      <trkpt lat="48.9724" lon="2.04943">
        <ele>36.6</ele>
        <time>2022-04-12T10:25:05Z</time>
      </trkpt>
      <trkpt lat="48.97236" lon="2.04948">
        <ele>35.6</ele>
        <time>2022-04-12T10:25:10Z</time>
      </trkpt>
      <trkpt lat="48.97233" lon="2.04953">
        <ele>33.2</ele>
        <time>2022-04-12T10:25:15Z</time>
      </trkpt>
      <trkpt lat="48.97229" lon="2.04959">
        <ele>33.3</ele>
        <time>2022-04-12T10:25:20Z</time>
      </trkpt>
      <trkpt lat="48.97226" lon="2.04965">
        <ele>32.8</ele>
        <time>2022-04-12T10:25:26Z</time>
      </trkpt>
      <trkpt lat="48.97222" lon="2.0497">
        <ele>31.8</ele>
        <time>2022-04-12T10:25:32Z</time>
      </trkpt>
      <trkpt lat="48.97219" lon="2.04976">
        <ele>34</ele>
        <time>2022-04-12T10:25:37Z</time>
      </trkpt>
      <trkpt lat="48.97217" lon="2.04983">
        <ele>36.7</ele>
        <time>2022-04-12T10:25:43Z</time>
      </trkpt>
      <trkpt lat="48.97214" lon="2.04989">
        <ele>34.2</ele>
        <time>2022-04-12T10:25:49Z</time>
      </trkpt>
      <trkpt lat="48.97211" lon="2.04995">
        <ele>28.8</ele>
        <time>2022-04-12T10:25:56Z</time>
      </trkpt>
      <trkpt lat="48.9721" lon="2.05002">
        <ele>28.1</ele>
        <time>2022-04-12T10:26:02Z</time>
      </trkpt>
      <trkpt lat="48.97215" lon="2.05003">
        <ele>26.9</ele>
        <time>2022-04-12T10:26:30Z</time>
      </trkpt>
      <trkpt lat="48.97221" lon="2.04999">
        <ele>23.5</ele>
        <time>2022-04-12T10:26:47Z</time>
      </trkpt>
      <trkpt lat="48.97225" lon="2.05002">
        <ele>23</ele>
        <time>2022-04-12T10:26:51Z</time>
      </trkpt>
      <trkpt lat="48.97227" lon="2.0501">
        <ele>22.9</ele>
        <time>2022-04-12T10:26:54Z</time>
      </trkpt>
      <trkpt lat="48.97228" lon="2.05017">
        <ele>26.2</ele>
        <time>2022-04-12T10:26:58Z</time>
      </trkpt>
      <trkpt lat="48.97233" lon="2.05021">
        <ele>28.3</ele>
        <time>2022-04-12T10:27:02Z</time>
      </trkpt>
      <trkpt lat="48.97237" lon="2.05025">
        <ele>27.1</ele>
        <time>2022-04-12T10:27:06Z</time>
      </trkpt>
      <trkpt lat="48.97241" lon="2.05029">
        <ele>24.3</ele>
        <time>2022-04-12T10:27:11Z</time>
      </trkpt>
      <trkpt lat="48.97246" lon="2.05033">
        <ele>24.8</ele>
        <time>2022-04-12T10:27:15Z</time>
      </trkpt>
      <trkpt lat="48.9725" lon="2.05039">
        <ele>26.1</ele>
        <time>2022-04-12T10:27:19Z</time>
      </trkpt>
      <trkpt lat="48.97255" lon="2.05044">
        <ele>26.8</ele>
        <time>2022-04-12T10:27:23Z</time>
      </trkpt>
      <trkpt lat="48.9726" lon="2.05048">
        <ele>27.8</ele>
        <time>2022-04-12T10:27:27Z</time>
      </trkpt>
      <trkpt lat="48.97264" lon="2.05052">
        <ele>29.7</ele>
        <time>2022-04-12T10:27:31Z</time>
      </trkpt>
      <trkpt lat="48.97268" lon="2.0506">
        <ele>29.7</ele>
        <time>2022-04-12T10:27:35Z</time>
      </trkpt>
      <trkpt lat="48.97271" lon="2.05064">
        <ele>29.2</ele>
        <time>2022-04-12T10:27:38Z</time>
      </trkpt>
      <trkpt lat="48.97276" lon="2.05068">
        <ele>29.9</ele>
        <time>2022-04-12T10:27:42Z</time>
      </trkpt>
      <trkpt lat="48.9728" lon="2.05073">
        <ele>32</ele>
        <time>2022-04-12T10:27:46Z</time>
      </trkpt>
      <trkpt lat="48.97284" lon="2.05078">
        <ele>32.2</ele>
        <time>2022-04-12T10:27:50Z</time>
      </trkpt>
      <trkpt lat="48.97287" lon="2.05083">
        <ele>34.3</ele>
        <time>2022-04-12T10:27:53Z</time>
      </trkpt>
      <trkpt lat="48.97291" lon="2.05087">
        <ele>33.1</ele>
        <time>2022-04-12T10:27:56Z</time>
      </trkpt>
      <trkpt lat="48.97295" lon="2.05091">
        <ele>31.2</ele>
        <time>2022-04-12T10:27:59Z</time>
      </trkpt>
      <trkpt lat="48.97299" lon="2.05094">
        <ele>28.7</ele>
        <time>2022-04-12T10:28:02Z</time>
      </trkpt>
      <trkpt lat="48.97304" lon="2.05098">
        <ele>27.5</ele>
        <time>2022-04-12T10:28:06Z</time>
      </trkpt>
      <trkpt lat="48.97308" lon="2.05103">
        <ele>26.9</ele>
        <time>2022-04-12T10:28:10Z</time>
      </trkpt>
      <trkpt lat="48.97312" lon="2.05109">
        <ele>27.2</ele>
        <time>2022-04-12T10:28:13Z</time>
      </trkpt>
      <trkpt lat="48.97316" lon="2.05115">
        <ele>26.9</ele>
        <time>2022-04-12T10:28:18Z</time>
      </trkpt>
      <trkpt lat="48.97315" lon="2.05124">
        <ele>22.3</ele>
        <time>2022-04-12T10:28:23Z</time>
      </trkpt>
      <trkpt lat="48.9731" lon="2.05128">
        <ele>22.3</ele>
        <time>2022-04-12T10:28:26Z</time>
      </trkpt>
      <trkpt lat="48.97305" lon="2.05132">
        <ele>23.1</ele>
        <time>2022-04-12T10:28:30Z</time>
      </trkpt>
      <trkpt lat="48.97302" lon="2.05136">
        <ele>21.7</ele>
        <time>2022-04-12T10:28:33Z</time>
      </trkpt>
      <trkpt lat="48.97299" lon="2.05142">
        <ele>22.3</ele>
        <time>2022-04-12T10:28:36Z</time>
      </trkpt>
      <trkpt lat="48.97295" lon="2.05149">
        <ele>24.1</ele>
        <time>2022-04-12T10:28:41Z</time>
      </trkpt>
      <trkpt lat="48.97293" lon="2.05155">
        <ele>23.8</ele>
        <time>2022-04-12T10:28:45Z</time>
      </trkpt>
      <trkpt lat="48.9729" lon="2.05161">
        <ele>22.9</ele>
        <time>2022-04-12T10:28:49Z</time>
      </trkpt>
      <trkpt lat="48.97288" lon="2.05168">
        <ele>22.9</ele>
        <time>2022-04-12T10:28:54Z</time>
      </trkpt>
      <trkpt lat="48.97292" lon="2.05171">
        <ele>22.4</ele>
        <time>2022-04-12T10:29:00Z</time>
      </trkpt>
      <trkpt lat="48.97291" lon="2.05177">
        <ele>20.3</ele>
        <time>2022-04-12T10:29:05Z</time>
      </trkpt>
      <trkpt lat="48.97287" lon="2.05181">
        <ele>22.7</ele>
        <time>2022-04-12T10:29:08Z</time>
      </trkpt>
      <trkpt lat="48.97284" lon="2.05186">
        <ele>22.9</ele>
        <time>2022-04-12T10:29:11Z</time>
      </trkpt>
      <trkpt lat="48.97281" lon="2.05192">
        <ele>23.4</ele>
        <time>2022-04-12T10:29:15Z</time>
      </trkpt>
      <trkpt lat="48.97278" lon="2.05198">
        <ele>25.2</ele>
        <time>2022-04-12T10:29:19Z</time>
      </trkpt>
      <trkpt lat="48.97274" lon="2.05205">
        <ele>24.8</ele>
        <time>2022-04-12T10:29:24Z</time>
      </trkpt>
      <trkpt lat="48.97269" lon="2.05211">
        <ele>21.5</ele>
        <time>2022-04-12T10:29:29Z</time>
      </trkpt>
      <trkpt lat="48.97273" lon="2.05206">
        <ele>18.2</ele>
        <time>2022-04-12T10:29:39Z</time>
      </trkpt>
      <trkpt lat="48.97271" lon="2.05213">
        <ele>17.5</ele>
        <time>2022-04-12T10:29:42Z</time>
      </trkpt>
      <trkpt lat="48.97276" lon="2.05214">
        <ele>18.6</ele>
        <time>2022-04-12T10:29:54Z</time>
      </trkpt>
      <trkpt lat="48.97281" lon="2.05219">
        <ele>18.4</ele>
        <time>2022-04-12T10:29:57Z</time>
      </trkpt>
      <trkpt lat="48.97286" lon="2.05223">
        <ele>18.4</ele>
        <time>2022-04-12T10:30:00Z</time>
      </trkpt>
      <trkpt lat="48.97289" lon="2.05228">
        <ele>17.7</ele>
        <time>2022-04-12T10:30:03Z</time>
      </trkpt>
      <trkpt lat="48.97292" lon="2.05234">
        <ele>17.9</ele>
        <time>2022-04-12T10:30:06Z</time>
      </trkpt>
      <trkpt lat="48.97295" lon="2.05239">
        <ele>17.6</ele>
        <time>2022-04-12T10:30:09Z</time>
      </trkpt>
      <trkpt lat="48.97299" lon="2.05244">
        <ele>15</ele>
        <time>2022-04-12T10:30:12Z</time>
      </trkpt>
      <trkpt lat="48.97303" lon="2.0525">
        <ele>17.6</ele>
        <time>2022-04-12T10:30:16Z</time>
      </trkpt>
      <trkpt lat="48.97306" lon="2.05256">
        <ele>16.5</ele>
        <time>2022-04-12T10:30:20Z</time>
      </trkpt>
      <trkpt lat="48.9731" lon="2.05261">
        <ele>16.8</ele>
        <time>2022-04-12T10:30:23Z</time>
      </trkpt>
      <trkpt lat="48.97314" lon="2.05263">
        <ele>19.7</ele>
        <time>2022-04-12T10:30:27Z</time>
      </trkpt>
      <trkpt lat="48.97319" lon="2.05264">
        <ele>18.2</ele>
        <time>2022-04-12T10:30:30Z</time>
      </trkpt>
      <trkpt lat="48.97324" lon="2.05268">
        <ele>19.2</ele>
        <time>2022-04-12T10:30:34Z</time>
      </trkpt>
      <trkpt lat="48.97328" lon="2.05274">
        <ele>20.2</ele>
        <time>2022-04-12T10:30:38Z</time>
      </trkpt>
      <trkpt lat="48.97332" lon="2.05279">
        <ele>20.1</ele>
        <time>2022-04-12T10:30:43Z</time>
      </trkpt>
      <trkpt lat="48.97337" lon="2.05281">
        <ele>19.4</ele>
        <time>2022-04-12T10:30:48Z</time>
      </trkpt>
      <trkpt lat="48.9734" lon="2.05287">
        <ele>20.3</ele>
        <time>2022-04-12T10:30:53Z</time>
      </trkpt>
      <trkpt lat="48.97345" lon="2.05291">
        <ele>21.6</ele>
        <time>2022-04-12T10:30:57Z</time>
      </trkpt>
      <trkpt lat="48.97349" lon="2.05296">
        <ele>17.4</ele>
        <time>2022-04-12T10:31:01Z</time>
      </trkpt>
      <trkpt lat="48.97353" lon="2.05302">
        <ele>18.1</ele>
        <time>2022-04-12T10:31:05Z</time>
      </trkpt>
      <trkpt lat="48.97356" lon="2.05308">
        <ele>17.6</ele>
        <time>2022-04-12T10:31:09Z</time>
      </trkpt>
      <trkpt lat="48.9736" lon="2.05313">
        <ele>20.2</ele>
        <time>2022-04-12T10:31:13Z</time>
      </trkpt>
      <trkpt lat="48.97363" lon="2.05317">
        <ele>19</ele>
        <time>2022-04-12T10:31:17Z</time>
      </trkpt>
      <trkpt lat="48.97368" lon="2.05322">
        <ele>19.7</ele>
        <time>2022-04-12T10:31:21Z</time>
      </trkpt>
      <trkpt lat="48.97372" lon="2.05326">
        <ele>18.6</ele>
        <time>2022-04-12T10:31:26Z</time>
      </trkpt>
      <trkpt lat="48.97376" lon="2.05331">
        <ele>19.6</ele>
        <time>2022-04-12T10:31:31Z</time>
      </trkpt>
      <trkpt lat="48.9738" lon="2.05335">
        <ele>18.1</ele>
        <time>2022-04-12T10:31:35Z</time>
      </trkpt>
      <trkpt lat="48.97385" lon="2.05339">
        <ele>16.8</ele>
        <time>2022-04-12T10:31:40Z</time>
      </trkpt>
      <trkpt lat="48.97388" lon="2.05343">
        <ele>17.5</ele>
        <time>2022-04-12T10:31:44Z</time>
      </trkpt>
      <trkpt lat="48.97392" lon="2.05348">
        <ele>17.7</ele>
        <time>2022-04-12T10:31:48Z</time>
      </trkpt>
      <trkpt lat="48.97397" lon="2.05353">
        <ele>17.8</ele>
        <time>2022-04-12T10:31:54Z</time>
      </trkpt>
      <trkpt lat="48.97401" lon="2.05355">
        <ele>18.7</ele>
        <time>2022-04-12T10:31:58Z</time>
      </trkpt>
      <trkpt lat="48.97405" lon="2.0536">
        <ele>19.5</ele>
        <time>2022-04-12T10:32:02Z</time>
      </trkpt>
      <trkpt lat="48.97409" lon="2.05365">
        <ele>19.9</ele>
        <time>2022-04-12T10:32:07Z</time>
      </trkpt>
      <trkpt lat="48.97414" lon="2.05368">
        <ele>19.5</ele>
        <time>2022-04-12T10:32:12Z</time>
      </trkpt>
      <trkpt lat="48.97417" lon="2.05373">
        <ele>18.4</ele>
        <time>2022-04-12T10:32:16Z</time>
      </trkpt>
      <trkpt lat="48.97421" lon="2.05376">
        <ele>18.5</ele>
        <time>2022-04-12T10:32:20Z</time>
      </trkpt>
      <trkpt lat="48.97425" lon="2.05381">
        <ele>18.1</ele>
        <time>2022-04-12T10:32:24Z</time>
      </trkpt>
      <trkpt lat="48.97428" lon="2.05387">
        <ele>18.2</ele>
        <time>2022-04-12T10:32:28Z</time>
      </trkpt>
      <trkpt lat="48.97431" lon="2.05392">
        <ele>18</ele>
        <time>2022-04-12T10:32:33Z</time>
      </trkpt>
      <trkpt lat="48.97435" lon="2.05396">
        <ele>17.9</ele>
        <time>2022-04-12T10:32:37Z</time>
      </trkpt>
      <trkpt lat="48.97439" lon="2.054">
        <ele>17.7</ele>
        <time>2022-04-12T10:32:41Z</time>
      </trkpt>
      <trkpt lat="48.97444" lon="2.05405">
        <ele>17.5</ele>
        <time>2022-04-12T10:32:46Z</time>
      </trkpt>
      <trkpt lat="48.97448" lon="2.0541">
        <ele>18</ele>
        <time>2022-04-12T10:32:50Z</time>
      </trkpt>
      <trkpt lat="48.97451" lon="2.05417">
        <ele>19.5</ele>
        <time>2022-04-12T10:32:55Z</time>
      </trkpt>
      <trkpt lat="48.97455" lon="2.05423">
        <ele>18.9</ele>
        <time>2022-04-12T10:32:59Z</time>
      </trkpt>
      <trkpt lat="48.97459" lon="2.05428">
        <ele>16.9</ele>
        <time>2022-04-12T10:33:04Z</time>
      </trkpt>
      <trkpt lat="48.97463" lon="2.05434">
        <ele>16</ele>
        <time>2022-04-12T10:33:09Z</time>
      </trkpt>
      <trkpt lat="48.97468" lon="2.05438">
        <ele>17</ele>
        <time>2022-04-12T10:33:14Z</time>
      </trkpt>
      <trkpt lat="48.97472" lon="2.05442">
        <ele>18.6</ele>
        <time>2022-04-12T10:33:18Z</time>
      </trkpt>
      <trkpt lat="48.97477" lon="2.05446">
        <ele>18.3</ele>
        <time>2022-04-12T10:33:24Z</time>
      </trkpt>
      <trkpt lat="48.97482" lon="2.05449">
        <ele>18.5</ele>
        <time>2022-04-12T10:33:28Z</time>
      </trkpt>
      <trkpt lat="48.97486" lon="2.05447">
        <ele>19.1</ele>
        <time>2022-04-12T10:33:33Z</time>
      </trkpt>
      <trkpt lat="48.9749" lon="2.0545">
        <ele>19</ele>
        <time>2022-04-12T10:33:37Z</time>
      </trkpt>
      <trkpt lat="48.97492" lon="2.05458">
        <ele>19.9</ele>
        <time>2022-04-12T10:33:42Z</time>
      </trkpt>
      <trkpt lat="48.97496" lon="2.05454">
        <ele>21.4</ele>
        <time>2022-04-12T10:35:18Z</time>
      </trkpt>
      <trkpt lat="48.97502" lon="2.05456">
        <ele>21.4</ele>
        <time>2022-04-12T10:35:22Z</time>
      </trkpt>
      <trkpt lat="48.97506" lon="2.05459">
        <ele>21.6</ele>
        <time>2022-04-12T10:35:25Z</time>
      </trkpt>
      <trkpt lat="48.97511" lon="2.05463">
        <ele>20.8</ele>
        <time>2022-04-12T10:35:29Z</time>
      </trkpt>
      <trkpt lat="48.97516" lon="2.05468">
        <ele>20.8</ele>
        <time>2022-04-12T10:35:33Z</time>
      </trkpt>
      <trkpt lat="48.97521" lon="2.05471">
        <ele>21.3</ele>
        <time>2022-04-12T10:35:37Z</time>
      </trkpt>
      <trkpt lat="48.97525" lon="2.05475">
        <ele>19.7</ele>
        <time>2022-04-12T10:35:41Z</time>
      </trkpt>
      <trkpt lat="48.9753" lon="2.05472">
        <ele>21.7</ele>
        <time>2022-04-12T10:35:46Z</time>
      </trkpt>
      <trkpt lat="48.97533" lon="2.05464">
        <ele>22.7</ele>
        <time>2022-04-12T10:35:51Z</time>
      </trkpt>
      <trkpt lat="48.97535" lon="2.05458">
        <ele>22.6</ele>
        <time>2022-04-12T10:35:55Z</time>
      </trkpt>
      <trkpt lat="48.97538" lon="2.05452">
        <ele>22.9</ele>
        <time>2022-04-12T10:35:59Z</time>
      </trkpt>
      <trkpt lat="48.97541" lon="2.05446">
        <ele>22.4</ele>
        <time>2022-04-12T10:36:04Z</time>
      </trkpt>
      <trkpt lat="48.97544" lon="2.05439">
        <ele>21.8</ele>
        <time>2022-04-12T10:36:09Z</time>
      </trkpt>
      <trkpt lat="48.97547" lon="2.05433">
        <ele>23.2</ele>
        <time>2022-04-12T10:36:13Z</time>
      </trkpt>
      <trkpt lat="48.97551" lon="2.05428">
        <ele>23.8</ele>
        <time>2022-04-12T10:36:18Z</time>
      </trkpt>
      <trkpt lat="48.97555" lon="2.05424">
        <ele>24.2</ele>
        <time>2022-04-12T10:36:22Z</time>
      </trkpt>
      <trkpt lat="48.97559" lon="2.05418">
        <ele>24.9</ele>
        <time>2022-04-12T10:36:27Z</time>
      </trkpt>
      <trkpt lat="48.97559" lon="2.05411">
        <ele>26.1</ele>
        <time>2022-04-12T10:36:31Z</time>
      </trkpt>
      <trkpt lat="48.97554" lon="2.05409">
        <ele>28.7</ele>
        <time>2022-04-12T10:37:10Z</time>
      </trkpt>
      <trkpt lat="48.97553" lon="2.05416">
        <ele>26.7</ele>
        <time>2022-04-12T10:40:12Z</time>
      </trkpt>
      <trkpt lat="48.97549" lon="2.05422">
        <ele>27.7</ele>
        <time>2022-04-12T10:40:18Z</time>
      </trkpt>
      <trkpt lat="48.97545" lon="2.05424">
        <ele>27.3</ele>
        <time>2022-04-12T10:40:28Z</time>
      </trkpt>
    </trkseg>
  </trk>
</gpx>